Wetterdaten: Freitag, 12.04.2019
Datum Zeit Temp. A. Feuchte A. Luftdruck Regen Wind Richtung Richtung Sonnenschein ET UV Solar Taupunkt Windchill Windböen
12.04.2019 00:00 3,9 °C 92 % 1016,3 hPa 0,0 mm 2,7 km/h (1 Bft) O-NO 63 ° 0 min 0,000 mm 0,0 UV-I 0 W/m² 2,7 °C 3,9 °C 6,4 km/h (2 Bft)
12.04.2019 00:01 3,9 °C 92 % 1016,3 hPa 0,0 mm 3,2 km/h (1 Bft) O-NO 65 ° 0 min 0,000 mm 0,0 UV-I 0 W/m² 2,7 °C 3,9 °C 4,8 km/h (1 Bft)
12.04.2019 00:02 3,9 °C 92 % 1016,3 hPa 0,0 mm 1,1 km/h (1 Bft) O-NO 65 ° 0 min 0,000 mm 0,0 UV-I 0 W/m² 2,7 °C 3,9 °C 3,2 km/h (1 Bft)
12.04.2019 00:03 3,9 °C 92 % 1016,3 hPa 0,0 mm 0,3 km/h (0 Bft) O-NO 65 ° 0 min 0,000 mm 0,0 UV-I 0 W/m² 2,7 °C 3,9 °C 1,6 km/h (1 Bft)
12.04.2019 00:04 3,9 °C 92 % 1016,3 hPa 0,0 mm 2,3 km/h (1 Bft) O-NO 65 ° 0 min 0,000 mm 0,0 UV-I 0 W/m² 2,7 °C 3,9 °C 4,8 km/h (1 Bft)
12.04.2019 00:05 3,8 °C 92 % 1016,3 hPa 0,0 mm 2,8 km/h (1 Bft) O-NO 59 ° 0 min 0,000 mm 0,0 UV-I 0 W/m² 2,6 °C 3,8 °C 4,8 km/h (1 Bft)
12.04.2019 00:06 3,9 °C 92 % 1016,3 hPa 0,0 mm 0,0 km/h (0 Bft) O-NO 59 ° 0 min 0,000 mm 0,0 UV-I 0 W/m² 2,7 °C 3,9 °C 0,0 km/h (0 Bft)
12.04.2019 00:07 3,8 °C 92 % 1016,3 hPa 0,0 mm 2,2 km/h (1 Bft) O-NO 73 ° 0 min 0,000 mm 0,0 UV-I 0 W/m² 2,6 °C 3,8 °C 4,8 km/h (1 Bft)
12.04.2019 00:08 3,8 °C 92 % 1016,4 hPa 0,0 mm 0,0 km/h (0 Bft) O-NO 73 ° 0 min 0,000 mm 0,0 UV-I 0 W/m² 2,6 °C 3,8 °C 0,0 km/h (0 Bft)
12.04.2019 00:09 3,8 °C 92 % 1016,4 hPa 0,0 mm 0,6 km/h (0 Bft) O-NO 73 ° 0 min 0,000 mm 0,0 UV-I 0 W/m² 2,6 °C 3,8 °C 3,2 km/h (1 Bft)
12.04.2019 00:10 3,8 °C 92 % 1016,4 hPa 0,0 mm 2,1 km/h (1 Bft) O-NO 72 ° 0 min 0,000 mm 0,0 UV-I 0 W/m² 2,6 °C 3,8 °C 4,8 km/h (1 Bft)
12.04.2019 00:11 3,8 °C 92 % 1016,4 hPa 0,0 mm 0,2 km/h (0 Bft) O-NO 72 ° 0 min 0,000 mm 0,0 UV-I 0 W/m² 2,6 °C 3,8 °C 1,6 km/h (1 Bft)
12.04.2019 00:12 3,8 °C 92 % 1016,3 hPa 0,0 mm 0,0 km/h (0 Bft) O-NO 72 ° 0 min 0,000 mm 0,0 UV-I 0 W/m² 2,6 °C 3,8 °C 0,0 km/h (0 Bft)
12.04.2019 00:13 3,8 °C 92 % 1016,4 hPa 0,0 mm 0,0 km/h (0 Bft) O-NO 72 ° 0 min 0,000 mm 0,0 UV-I 0 W/m² 2,6 °C 3,8 °C 0,0 km/h (0 Bft)
12.04.2019 00:14 3,8 °C 92 % 1016,4 hPa 0,0 mm 0,0 km/h (0 Bft) O-NO 72 ° 0 min 0,000 mm 0,0 UV-I 0 W/m² 2,6 °C 3,8 °C 0,0 km/h (0 Bft)
12.04.2019 00:15 3,8 °C 91 % 1016,4 hPa 0,0 mm 0,0 km/h (0 Bft) O-NO 72 ° 0 min 0,000 mm 0,0 UV-I 0 W/m² 2,5 °C 3,8 °C 0,0 km/h (0 Bft)
12.04.2019 00:16 3,8 °C 92 % 1016,4 hPa 0,0 mm 0,0 km/h (0 Bft) O-NO 72 ° 0 min 0,000 mm 0,0 UV-I 0 W/m² 2,6 °C 3,8 °C 0,0 km/h (0 Bft)
12.04.2019 00:17 3,8 °C 92 % 1016,4 hPa 0,0 mm 0,0 km/h (0 Bft) O-NO 72 ° 0 min 0,000 mm 0,0 UV-I 0 W/m² 2,6 °C 3,8 °C 0,0 km/h (0 Bft)
12.04.2019 00:18 3,8 °C 92 % 1016,5 hPa 0,0 mm 0,0 km/h (0 Bft) O-NO 72 ° 0 min 0,000 mm 0,0 UV-I 0 W/m² 2,6 °C 3,8 °C 0,0 km/h (0 Bft)
12.04.2019 00:19 3,8 °C 92 % 1016,4 hPa 0,0 mm 0,0 km/h (0 Bft) O-NO 72 ° 0 min 0,000 mm 0,0 UV-I 0 W/m² 2,6 °C 3,8 °C 0,0 km/h (0 Bft)
12.04.2019 00:20 3,7 °C 92 % 1016,5 hPa 0,0 mm 0,0 km/h (0 Bft) O-NO 72 ° 0 min 0,000 mm 0,0 UV-I 0 W/m² 2,5 °C 3,7 °C 0,0 km/h (0 Bft)
12.04.2019 00:21 3,7 °C 92 % 1016,4 hPa 0,0 mm 0,0 km/h (0 Bft) O-NO 72 ° 0 min 0,000 mm 0,0 UV-I 0 W/m² 2,5 °C 3,7 °C 0,0 km/h (0 Bft)
12.04.2019 00:22 3,7 °C 91 % 1016,4 hPa 0,0 mm 0,0 km/h (0 Bft) O-NO 72 ° 0 min 0,000 mm 0,0 UV-I 0 W/m² 2,4 °C 3,7 °C 0,0 km/h (0 Bft)
12.04.2019 00:23 3,7 °C 91 % 1016,4 hPa 0,0 mm 0,2 km/h (0 Bft) O-NO 76 ° 0 min 0,000 mm 0,0 UV-I 0 W/m² 2,4 °C 3,7 °C 1,6 km/h (1 Bft)
12.04.2019 00:24 3,7 °C 91 % 1016,3 hPa 0,0 mm 0,0 km/h (0 Bft) O-NO 76 ° 0 min 0,000 mm 0,0 UV-I 0 W/m² 2,4 °C 3,7 °C 0,0 km/h (0 Bft)
12.04.2019 00:25 3,7 °C 91 % 1016,4 hPa 0,0 mm 1,4 km/h (1 Bft) O 84 ° 0 min 0,000 mm 0,0 UV-I 0 W/m² 2,4 °C 3,7 °C 4,8 km/h (1 Bft)
12.04.2019 00:26 3,7 °C 91 % 1016,4 hPa 0,0 mm 1,8 km/h (1 Bft) O 84 ° 0 min 0,000 mm 0,0 UV-I 0 W/m² 2,4 °C 3,7 °C 4,8 km/h (1 Bft)
12.04.2019 00:27 3,7 °C 91 % 1016,4 hPa 0,0 mm 2,3 km/h (1 Bft) O 99 ° 0 min 0,000 mm 0,0 UV-I 0 W/m² 2,4 °C 3,7 °C 4,8 km/h (1 Bft)
12.04.2019 00:28 3,7 °C 91 % 1016,4 hPa 0,0 mm 2,1 km/h (1 Bft) O 82 ° 0 min 0,000 mm 0,0 UV-I 0 W/m² 2,4 °C 3,7 °C 4,8 km/h (1 Bft)
12.04.2019 00:29 3,7 °C 91 % 1016,4 hPa 0,0 mm 0,2 km/h (0 Bft) O 82 ° 0 min 0,000 mm 0,0 UV-I 0 W/m² 2,4 °C 3,7 °C 1,6 km/h (1 Bft)
12.04.2019 00:30 3,6 °C 91 % 1016,4 hPa 0,0 mm 0,0 km/h (0 Bft) O 82 ° 0 min 0,000 mm 0,0 UV-I 0 W/m² 2,3 °C 3,6 °C 0,0 km/h (0 Bft)
12.04.2019 00:31 3,6 °C 91 % 1016,4 hPa 0,0 mm 0,0 km/h (0 Bft) O 82 ° 0 min 0,000 mm 0,0 UV-I 0 W/m² 2,3 °C 3,6 °C 0,0 km/h (0 Bft)
12.04.2019 00:32 3,6 °C 91 % 1016,4 hPa 0,0 mm 0,0 km/h (0 Bft) O 82 ° 0 min 0,000 mm 0,0 UV-I 0 W/m² 2,3 °C 3,6 °C 0,0 km/h (0 Bft)
12.04.2019 00:33 3,6 °C 91 % 1016,4 hPa 0,0 mm 2,0 km/h (1 Bft) O 79 ° 0 min 0,000 mm 0,0 UV-I 0 W/m² 2,3 °C 3,6 °C 4,8 km/h (1 Bft)
12.04.2019 00:34 3,5 °C 91 % 1016,4 hPa 0,0 mm 6,2 km/h (2 Bft) O 79 ° 0 min 0,000 mm 0,0 UV-I 0 W/m² 2,2 °C 1,9 °C 11,3 km/h (2 Bft)
12.04.2019 00:35 3,6 °C 91 % 1016,4 hPa 0,0 mm 0,2 km/h (0 Bft) O 82 ° 0 min 0,000 mm 0,0 UV-I 0 W/m² 2,3 °C 3,6 °C 3,2 km/h (1 Bft)
12.04.2019 00:36 3,6 °C 91 % 1016,4 hPa 0,0 mm 0,0 km/h (0 Bft) O 82 ° 0 min 0,000 mm 0,0 UV-I 0 W/m² 2,3 °C 3,6 °C 0,0 km/h (0 Bft)
12.04.2019 00:37 3,6 °C 91 % 1016,3 hPa 0,0 mm 0,0 km/h (0 Bft) O-NO 76 ° 0 min 0,000 mm 0,0 UV-I 0 W/m² 2,3 °C 3,6 °C 0,0 km/h (0 Bft)
12.04.2019 00:38 3,6 °C 90 % 1016,3 hPa 0,0 mm 0,0 km/h (0 Bft) O-NO 76 ° 0 min 0,000 mm 0,0 UV-I 0 W/m² 2,1 °C 3,6 °C 0,0 km/h (0 Bft)
12.04.2019 00:39 3,6 °C 90 % 1016,3 hPa 0,0 mm 1,4 km/h (1 Bft) O-NO 69 ° 0 min 0,000 mm 0,0 UV-I 0 W/m² 2,1 °C 3,6 °C 6,4 km/h (2 Bft)
12.04.2019 00:40 3,6 °C 91 % 1016,3 hPa 0,0 mm 1,1 km/h (1 Bft) O-NO 69 ° 0 min 0,000 mm 0,0 UV-I 0 W/m² 2,3 °C 3,6 °C 3,2 km/h (1 Bft)
12.04.2019 00:41 3,6 °C 91 % 1016,3 hPa 0,0 mm 1,6 km/h (1 Bft) O 84 ° 0 min 0,000 mm 0,0 UV-I 0 W/m² 2,3 °C 3,6 °C 4,8 km/h (1 Bft)
12.04.2019 00:42 3,6 °C 91 % 1016,3 hPa 0,0 mm 0,8 km/h (0 Bft) O 94 ° 0 min 0,000 mm 0,0 UV-I 0 W/m² 2,3 °C 3,6 °C 3,2 km/h (1 Bft)
12.04.2019 00:43 3,5 °C 91 % 1016,3 hPa 0,0 mm 0,0 km/h (0 Bft) O 95 ° 0 min 0,000 mm 0,0 UV-I 0 W/m² 2,2 °C 3,5 °C 0,0 km/h (0 Bft)
12.04.2019 00:44 3,4 °C 91 % 1016,3 hPa 0,0 mm 0,0 km/h (0 Bft) O 95 ° 0 min 0,000 mm 0,0 UV-I 0 W/m² 2,1 °C 3,4 °C 0,0 km/h (0 Bft)
12.04.2019 00:45 3,4 °C 91 % 1016,3 hPa 0,0 mm 0,0 km/h (0 Bft) O 95 ° 0 min 0,000 mm 0,0 UV-I 0 W/m² 2,1 °C 3,4 °C 0,0 km/h (0 Bft)
12.04.2019 00:46 3,4 °C 91 % 1016,2 hPa 0,0 mm 0,0 km/h (0 Bft) O 95 ° 0 min 0,000 mm 0,0 UV-I 0 W/m² 2,1 °C 3,4 °C 0,0 km/h (0 Bft)
12.04.2019 00:47 3,3 °C 90 % 1016,3 hPa 0,0 mm 0,0 km/h (0 Bft) O 95 ° 0 min 0,000 mm 0,0 UV-I 0 W/m² 1,8 °C 3,3 °C 0,0 km/h (0 Bft)
12.04.2019 00:48 3,3 °C 90 % 1016,2 hPa 0,0 mm 0,0 km/h (0 Bft) O 95 ° 0 min 0,000 mm 0,0 UV-I 0 W/m² 1,8 °C 3,3 °C 0,0 km/h (0 Bft)
12.04.2019 00:49 3,3 °C 90 % 1016,2 hPa 0,0 mm 0,0 km/h (0 Bft) O 95 ° 0 min 0,000 mm 0,0 UV-I 0 W/m² 1,8 °C 3,3 °C 0,0 km/h (0 Bft)
12.04.2019 00:50 3,3 °C 90 % 1016,2 hPa 0,0 mm 0,0 km/h (0 Bft) O 95 ° 0 min 0,000 mm 0,0 UV-I 0 W/m² 1,8 °C 3,3 °C 0,0 km/h (0 Bft)
12.04.2019 00:51 3,3 °C 90 % 1016,2 hPa 0,0 mm 0,0 km/h (0 Bft) O 95 ° 0 min 0,000 mm 0,0 UV-I 0 W/m² 1,8 °C 3,3 °C 0,0 km/h (0 Bft)
12.04.2019 00:52 3,3 °C 90 % 1016,2 hPa 0,0 mm 0,0 km/h (0 Bft) O 95 ° 0 min 0,000 mm 0,0 UV-I 0 W/m² 1,8 °C 3,3 °C 0,0 km/h (0 Bft)
12.04.2019 00:53 3,3 °C 90 % 1016,2 hPa 0,0 mm 0,0 km/h (0 Bft) O 95 ° 0 min 0,000 mm 0,0 UV-I 0 W/m² 1,8 °C 3,3 °C 0,0 km/h (0 Bft)
12.04.2019 00:54 3,3 °C 90 % 1016,3 hPa 0,0 mm 0,0 km/h (0 Bft) O 95 ° 0 min 0,000 mm 0,0 UV-I 0 W/m² 1,8 °C 3,3 °C 0,0 km/h (0 Bft)
12.04.2019 00:55 3,3 °C 90 % 1016,2 hPa 0,0 mm 0,0 km/h (0 Bft) O 95 ° 0 min 0,000 mm 0,0 UV-I 0 W/m² 1,8 °C 3,3 °C 0,0 km/h (0 Bft)
12.04.2019 00:56 3,3 °C 90 % 1016,2 hPa 0,0 mm 0,0 km/h (0 Bft) O 95 ° 0 min 0,000 mm 0,0 UV-I 0 W/m² 1,8 °C 3,3 °C 0,0 km/h (0 Bft)
12.04.2019 00:57 3,3 °C 90 % 1016,3 hPa 0,0 mm 0,0 km/h (0 Bft) O 95 ° 0 min 0,000 mm 0,0 UV-I 0 W/m² 1,8 °C 3,3 °C 0,0 km/h (0 Bft)
12.04.2019 00:58 3,3 °C 90 % 1016,3 hPa 0,0 mm 0,0 km/h (0 Bft) O 95 ° 0 min 0,000 mm 0,0 UV-I 0 W/m² 1,8 °C 3,3 °C 0,0 km/h (0 Bft)
12.04.2019 00:59 3,3 °C 90 % 1016,3 hPa 0,0 mm 0,0 km/h (0 Bft) O 95 ° 0 min 0,000 mm 0,0 UV-I 0 W/m² 1,8 °C 3,3 °C 0,0 km/h (0 Bft)
12.04.2019 01:00 3,3 °C 90 % 1016,3 hPa 0,0 mm 0,0 km/h (0 Bft) O 95 ° 0 min 0,000 mm 0,0 UV-I 0 W/m² 1,8 °C 3,3 °C 0,0 km/h (0 Bft)
12.04.2019 01:01 3,3 °C 89 % 1016,3 hPa 0,0 mm 0,0 km/h (0 Bft) O 95 ° 0 min 0,000 mm 0,0 UV-I 0 W/m² 1,7 °C 3,3 °C 0,0 km/h (0 Bft)
12.04.2019 01:02 3,2 °C 89 % 1016,3 hPa 0,0 mm 0,0 km/h (0 Bft) O 95 ° 0 min 0,000 mm 0,0 UV-I 0 W/m² 1,6 °C 3,2 °C 0,0 km/h (0 Bft)
12.04.2019 01:03 3,3 °C 89 % 1016,3 hPa 0,0 mm 0,0 km/h (0 Bft) O 95 ° 0 min 0,000 mm 0,0 UV-I 0 W/m² 1,7 °C 3,3 °C 0,0 km/h (0 Bft)
12.04.2019 01:04 3,3 °C 89 % 1016,3 hPa 0,0 mm 0,0 km/h (0 Bft) O 95 ° 0 min 0,000 mm 0,0 UV-I 0 W/m² 1,7 °C 3,3 °C 0,0 km/h (0 Bft)
12.04.2019 01:05 3,3 °C 89 % 1016,3 hPa 0,0 mm 0,0 km/h (0 Bft) O 95 ° 0 min 0,000 mm 0,0 UV-I 0 W/m² 1,7 °C 3,3 °C 0,0 km/h (0 Bft)
12.04.2019 01:06 3,3 °C 89 % 1016,3 hPa 0,0 mm 0,0 km/h (0 Bft) O 95 ° 0 min 0,000 mm 0,0 UV-I 0 W/m² 1,7 °C 3,3 °C 0,0 km/h (0 Bft)
12.04.2019 01:07 3,3 °C 89 % 1016,3 hPa 0,0 mm 0,0 km/h (0 Bft) O 95 ° 0 min 0,000 mm 0,0 UV-I 0 W/m² 1,7 °C 3,3 °C 0,0 km/h (0 Bft)
12.04.2019 01:08 3,3 °C 89 % 1016,2 hPa 0,0 mm 0,0 km/h (0 Bft) O 95 ° 0 min 0,000 mm 0,0 UV-I 0 W/m² 1,7 °C 3,3 °C 0,0 km/h (0 Bft)
12.04.2019 01:09 3,3 °C 89 % 1016,3 hPa 0,0 mm 0,0 km/h (0 Bft) O 95 ° 0 min 0,000 mm 0,0 UV-I 0 W/m² 1,7 °C 3,3 °C 0,0 km/h (0 Bft)
12.04.2019 01:10 3,3 °C 89 % 1016,3 hPa 0,0 mm 0,1 km/h (0 Bft) O 95 ° 0 min 0,000 mm 0,0 UV-I 0 W/m² 1,7 °C 3,3 °C 1,6 km/h (1 Bft)
12.04.2019 01:11 3,3 °C 89 % 1016,3 hPa 0,0 mm 0,3 km/h (0 Bft) O 95 ° 0 min 0,000 mm 0,0 UV-I 0 W/m² 1,7 °C 3,3 °C 3,2 km/h (1 Bft)
12.04.2019 01:12 3,2 °C 89 % 1016,3 hPa 0,0 mm 0,0 km/h (0 Bft) O 95 ° 0 min 0,000 mm 0,0 UV-I 0 W/m² 1,6 °C 3,2 °C 0,0 km/h (0 Bft)
12.04.2019 01:13 3,2 °C 89 % 1016,3 hPa 0,0 mm 0,0 km/h (0 Bft) O 95 ° 0 min 0,000 mm 0,0 UV-I 0 W/m² 1,6 °C 3,2 °C 0,0 km/h (0 Bft)
12.04.2019 01:14 3,2 °C 89 % 1016,3 hPa 0,0 mm 0,0 km/h (0 Bft) O 95 ° 0 min 0,000 mm 0,0 UV-I 0 W/m² 1,6 °C 3,2 °C 0,0 km/h (0 Bft)
12.04.2019 01:15 3,2 °C 89 % 1016,3 hPa 0,0 mm 0,0 km/h (0 Bft) O 95 ° 0 min 0,000 mm 0,0 UV-I 0 W/m² 1,6 °C 3,2 °C 0,0 km/h (0 Bft)
12.04.2019 01:16 3,2 °C 89 % 1016,3 hPa 0,0 mm 0,0 km/h (0 Bft) O 95 ° 0 min 0,000 mm 0,0 UV-I 0 W/m² 1,6 °C 3,2 °C 0,0 km/h (0 Bft)
12.04.2019 01:17 3,3 °C 89 % 1016,3 hPa 0,0 mm 0,0 km/h (0 Bft) O 96 ° 0 min 0,000 mm 0,0 UV-I 0 W/m² 1,7 °C 3,3 °C 0,0 km/h (0 Bft)
12.04.2019 01:18 3,2 °C 89 % 1016,3 hPa 0,0 mm 0,0 km/h (0 Bft) O 95 ° 0 min 0,000 mm 0,0 UV-I 0 W/m² 1,6 °C 3,2 °C 0,0 km/h (0 Bft)
12.04.2019 01:19 3,2 °C 90 % 1016,3 hPa 0,0 mm 0,0 km/h (0 Bft) O 95 ° 0 min 0,000 mm 0,0 UV-I 0 W/m² 1,7 °C 3,2 °C 0,0 km/h (0 Bft)
12.04.2019 01:20 3,2 °C 90 % 1016,3 hPa 0,0 mm 0,0 km/h (0 Bft) O 95 ° 0 min 0,000 mm 0,0 UV-I 0 W/m² 1,7 °C 3,2 °C 0,0 km/h (0 Bft)
12.04.2019 01:21 3,2 °C 90 % 1016,3 hPa 0,0 mm 0,0 km/h (0 Bft) O 95 ° 0 min 0,000 mm 0,0 UV-I 0 W/m² 1,7 °C 3,2 °C 0,0 km/h (0 Bft)
12.04.2019 01:22 3,2 °C 90 % 1016,3 hPa 0,0 mm 0,0 km/h (0 Bft) O 95 ° 0 min 0,000 mm 0,0 UV-I 0 W/m² 1,7 °C 3,2 °C 0,0 km/h (0 Bft)
12.04.2019 01:23 3,2 °C 90 % 1016,3 hPa 0,0 mm 0,0 km/h (0 Bft) O 95 ° 0 min 0,000 mm 0,0 UV-I 0 W/m² 1,7 °C 3,2 °C 0,0 km/h (0 Bft)
12.04.2019 01:24 3,1 °C 90 % 1016,3 hPa 0,0 mm 0,0 km/h (0 Bft) O 95 ° 0 min 0,000 mm 0,0 UV-I 0 W/m² 1,6 °C 3,1 °C 0,0 km/h (0 Bft)
12.04.2019 01:25 3,1 °C 90 % 1016,3 hPa 0,0 mm 0,0 km/h (0 Bft) O 95 ° 0 min 0,000 mm 0,0 UV-I 0 W/m² 1,6 °C 3,1 °C 0,0 km/h (0 Bft)
12.04.2019 01:26 3,1 °C 90 % 1016,3 hPa 0,0 mm 0,0 km/h (0 Bft) O 95 ° 0 min 0,000 mm 0,0 UV-I 0 W/m² 1,6 °C 3,1 °C 0,0 km/h (0 Bft)
12.04.2019 01:27 3,1 °C 90 % 1016,3 hPa 0,0 mm 0,0 km/h (0 Bft) O 95 ° 0 min 0,000 mm 0,0 UV-I 0 W/m² 1,6 °C 3,1 °C 0,0 km/h (0 Bft)
12.04.2019 01:28 3,1 °C 90 % 1016,3 hPa 0,0 mm 0,0 km/h (0 Bft) O 95 ° 0 min 0,000 mm 0,0 UV-I 0 W/m² 1,6 °C 3,1 °C 0,0 km/h (0 Bft)
12.04.2019 01:29 3,1 °C 90 % 1016,3 hPa 0,0 mm 0,0 km/h (0 Bft) O 95 ° 0 min 0,000 mm 0,0 UV-I 0 W/m² 1,6 °C 3,1 °C 0,0 km/h (0 Bft)
12.04.2019 01:30 3,1 °C 90 % 1016,3 hPa 0,0 mm 0,0 km/h (0 Bft) O 95 ° 0 min 0,000 mm 0,0 UV-I 0 W/m² 1,6 °C 3,1 °C 0,0 km/h (0 Bft)
12.04.2019 01:31 3,1 °C 90 % 1016,3 hPa 0,0 mm 0,0 km/h (0 Bft) O 95 ° 0 min 0,000 mm 0,0 UV-I 0 W/m² 1,6 °C 3,1 °C 0,0 km/h (0 Bft)
12.04.2019 01:32 3,1 °C 90 % 1016,3 hPa 0,0 mm 0,0 km/h (0 Bft) O 95 ° 0 min 0,000 mm 0,0 UV-I 0 W/m² 1,6 °C 3,1 °C 0,0 km/h (0 Bft)
12.04.2019 01:33 3,1 °C 90 % 1016,3 hPa 0,0 mm 0,0 km/h (0 Bft) O 95 ° 0 min 0,000 mm 0,0 UV-I 0 W/m² 1,6 °C 3,1 °C 0,0 km/h (0 Bft)
12.04.2019 01:34 3,1 °C 90 % 1016,4 hPa 0,0 mm 0,0 km/h (0 Bft) O 95 ° 0 min 0,000 mm 0,0 UV-I 0 W/m² 1,6 °C 3,1 °C 0,0 km/h (0 Bft)
12.04.2019 01:35 3,1 °C 91 % 1016,4 hPa 0,0 mm 0,0 km/h (0 Bft) O 95 ° 0 min 0,000 mm 0,0 UV-I 0 W/m² 1,8 °C 3,1 °C 0,0 km/h (0 Bft)
12.04.2019 01:36 3,1 °C 91 % 1016,4 hPa 0,0 mm 0,0 km/h (0 Bft) O 95 ° 0 min 0,000 mm 0,0 UV-I 0 W/m² 1,8 °C 3,1 °C 0,0 km/h (0 Bft)
12.04.2019 01:37 3,1 °C 91 % 1016,4 hPa 0,0 mm 0,0 km/h (0 Bft) O 95 ° 0 min 0,000 mm 0,0 UV-I 0 W/m² 1,8 °C 3,1 °C 0,0 km/h (0 Bft)
12.04.2019 01:38 3,1 °C 91 % 1016,4 hPa 0,0 mm 0,0 km/h (0 Bft) O 95 ° 0 min 0,000 mm 0,0 UV-I 0 W/m² 1,8 °C 3,1 °C 0,0 km/h (0 Bft)
12.04.2019 01:39 3,1 °C 91 % 1016,4 hPa 0,0 mm 0,0 km/h (0 Bft) O 96 ° 0 min 0,000 mm 0,0 UV-I 0 W/m² 1,8 °C 3,1 °C 0,0 km/h (0 Bft)
12.04.2019 01:40 3,1 °C 91 % 1016,4 hPa 0,0 mm 0,0 km/h (0 Bft) O 95 ° 0 min 0,000 mm 0,0 UV-I 0 W/m² 1,8 °C 3,1 °C 0,0 km/h (0 Bft)
12.04.2019 01:41 3,1 °C 91 % 1016,3 hPa 0,0 mm 0,0 km/h (0 Bft) O 95 ° 0 min 0,000 mm 0,0 UV-I 0 W/m² 1,8 °C 3,1 °C 0,0 km/h (0 Bft)
12.04.2019 01:42 3,1 °C 91 % 1016,4 hPa 0,0 mm 0,0 km/h (0 Bft) O 95 ° 0 min 0,000 mm 0,0 UV-I 0 W/m² 1,8 °C 3,1 °C 0,0 km/h (0 Bft)
12.04.2019 01:43 3,0 °C 91 % 1016,4 hPa 0,0 mm 0,0 km/h (0 Bft) O 95 ° 0 min 0,000 mm 0,0 UV-I 0 W/m² 1,7 °C 3,0 °C 0,0 km/h (0 Bft)
12.04.2019 01:44 3,0 °C 91 % 1016,3 hPa 0,0 mm 0,0 km/h (0 Bft) O 95 ° 0 min 0,000 mm 0,0 UV-I 0 W/m² 1,7 °C 3,0 °C 0,0 km/h (0 Bft)
12.04.2019 01:45 3,0 °C 91 % 1016,3 hPa 0,0 mm 0,0 km/h (0 Bft) O 95 ° 0 min 0,000 mm 0,0 UV-I 0 W/m² 1,7 °C 3,0 °C 0,0 km/h (0 Bft)
12.04.2019 01:46 3,0 °C 91 % 1016,3 hPa 0,0 mm 0,0 km/h (0 Bft) O 95 ° 0 min 0,000 mm 0,0 UV-I 0 W/m² 1,7 °C 3,0 °C 0,0 km/h (0 Bft)
12.04.2019 01:47 3,0 °C 91 % 1016,3 hPa 0,0 mm 0,0 km/h (0 Bft) O 95 ° 0 min 0,000 mm 0,0 UV-I 0 W/m² 1,7 °C 3,0 °C 0,0 km/h (0 Bft)
12.04.2019 01:48 2,9 °C 91 % 1016,3 hPa 0,0 mm 0,0 km/h (0 Bft) O 95 ° 0 min 0,000 mm 0,0 UV-I 0 W/m² 1,6 °C 2,9 °C 0,0 km/h (0 Bft)
12.04.2019 01:49 2,9 °C 91 % 1016,3 hPa 0,0 mm 0,0 km/h (0 Bft) O 95 ° 0 min 0,000 mm 0,0 UV-I 0 W/m² 1,6 °C 2,9 °C 0,0 km/h (0 Bft)
12.04.2019 01:50 3,0 °C 90 % 1016,3 hPa 0,0 mm 0,0 km/h (0 Bft) O 95 ° 0 min 0,000 mm 0,0 UV-I 0 W/m² 1,5 °C 3,0 °C 0,0 km/h (0 Bft)
12.04.2019 01:51 3,0 °C 90 % 1016,3 hPa 0,0 mm 0,0 km/h (0 Bft) O 95 ° 0 min 0,000 mm 0,0 UV-I 0 W/m² 1,5 °C 3,0 °C 0,0 km/h (0 Bft)
12.04.2019 01:52 3,1 °C 90 % 1016,3 hPa 0,0 mm 0,0 km/h (0 Bft) O 95 ° 0 min 0,000 mm 0,0 UV-I 0 W/m² 1,6 °C 3,1 °C 0,0 km/h (0 Bft)
12.04.2019 01:53 3,1 °C 90 % 1016,3 hPa 0,0 mm 0,0 km/h (0 Bft) O 95 ° 0 min 0,000 mm 0,0 UV-I 0 W/m² 1,6 °C 3,1 °C 0,0 km/h (0 Bft)
12.04.2019 01:54 3,1 °C 89 % 1016,3 hPa 0,0 mm 0,0 km/h (0 Bft) O 95 ° 0 min 0,000 mm 0,0 UV-I 0 W/m² 1,5 °C 3,1 °C 0,0 km/h (0 Bft)
12.04.2019 01:55 3,1 °C 90 % 1016,3 hPa 0,0 mm 0,0 km/h (0 Bft) O 95 ° 0 min 0,000 mm 0,0 UV-I 0 W/m² 1,6 °C 3,1 °C 0,0 km/h (0 Bft)
12.04.2019 01:56 3,1 °C 90 % 1016,3 hPa 0,0 mm 0,0 km/h (0 Bft) O 95 ° 0 min 0,000 mm 0,0 UV-I 0 W/m² 1,6 °C 3,1 °C 0,0 km/h (0 Bft)
12.04.2019 01:57 3,0 °C 90 % 1016,2 hPa 0,0 mm 0,0 km/h (0 Bft) O 95 ° 0 min 0,000 mm 0,0 UV-I 0 W/m² 1,5 °C 3,0 °C 0,0 km/h (0 Bft)
12.04.2019 01:58 3,0 °C 90 % 1016,2 hPa 0,0 mm 0,0 km/h (0 Bft) O 95 ° 0 min 0,000 mm 0,0 UV-I 0 W/m² 1,5 °C 3,0 °C 0,0 km/h (0 Bft)
12.04.2019 01:59 3,0 °C 90 % 1016,3 hPa 0,0 mm 0,0 km/h (0 Bft) O 95 ° 0 min 0,000 mm 0,0 UV-I 0 W/m² 1,5 °C 3,0 °C 0,0 km/h (0 Bft)
12.04.2019 02:00 2,9 °C 90 % 1016,2 hPa 0,0 mm 0,0 km/h (0 Bft) O 95 ° 0 min 0,000 mm 0,0 UV-I 0 W/m² 1,4 °C 2,9 °C 0,0 km/h (0 Bft)
12.04.2019 02:01 2,9 °C 90 % 1016,2 hPa 0,0 mm 0,0 km/h (0 Bft) O 95 ° 0 min 0,000 mm 0,0 UV-I 0 W/m² 1,4 °C 2,9 °C 0,0 km/h (0 Bft)
12.04.2019 02:02 2,9 °C 90 % 1016,2 hPa 0,0 mm 0,0 km/h (0 Bft) O 95 ° 0 min 0,000 mm 0,0 UV-I 0 W/m² 1,4 °C 2,9 °C 0,0 km/h (0 Bft)
12.04.2019 02:03 2,9 °C 90 % 1016,2 hPa 0,0 mm 0,0 km/h (0 Bft) O 95 ° 0 min 0,000 mm 0,0 UV-I 0 W/m² 1,4 °C 2,9 °C 0,0 km/h (0 Bft)
12.04.2019 02:04 2,9 °C 90 % 1016,2 hPa 0,0 mm 0,0 km/h (0 Bft) O 95 ° 0 min 0,000 mm 0,0 UV-I 0 W/m² 1,4 °C 2,9 °C 0,0 km/h (0 Bft)
12.04.2019 02:05 2,9 °C 90 % 1016,2 hPa 0,0 mm 0,0 km/h (0 Bft) O 95 ° 0 min 0,000 mm 0,0 UV-I 0 W/m² 1,4 °C 2,9 °C 0,0 km/h (0 Bft)
12.04.2019 02:06 2,9 °C 90 % 1016,2 hPa 0,0 mm 0,0 km/h (0 Bft) O 95 ° 0 min 0,000 mm 0,0 UV-I 0 W/m² 1,4 °C 2,9 °C 0,0 km/h (0 Bft)
12.04.2019 02:07 2,8 °C 90 % 1016,3 hPa 0,0 mm 0,0 km/h (0 Bft) O 95 ° 0 min 0,000 mm 0,0 UV-I 0 W/m² 1,3 °C 2,8 °C 0,0 km/h (0 Bft)
12.04.2019 02:08 2,8 °C 90 % 1016,2 hPa 0,0 mm 0,0 km/h (0 Bft) O 95 ° 0 min 0,000 mm 0,0 UV-I 0 W/m² 1,3 °C 2,8 °C 0,0 km/h (0 Bft)
12.04.2019 02:09 2,8 °C 90 % 1016,2 hPa 0,0 mm 0,0 km/h (0 Bft) O 95 ° 0 min 0,000 mm 0,0 UV-I 0 W/m² 1,3 °C 2,8 °C 0,0 km/h (0 Bft)
12.04.2019 02:10 2,9 °C 90 % 1016,3 hPa 0,0 mm 0,0 km/h (0 Bft) O 95 ° 0 min 0,000 mm 0,0 UV-I 0 W/m² 1,4 °C 2,9 °C 0,0 km/h (0 Bft)
12.04.2019 02:11 2,9 °C 90 % 1016,3 hPa 0,0 mm 0,0 km/h (0 Bft) O 95 ° 0 min 0,000 mm 0,0 UV-I 0 W/m² 1,4 °C 2,9 °C 0,0 km/h (0 Bft)
12.04.2019 02:12 2,9 °C 90 % 1016,3 hPa 0,0 mm 0,0 km/h (0 Bft) O 95 ° 0 min 0,000 mm 0,0 UV-I 0 W/m² 1,4 °C 2,9 °C 0,0 km/h (0 Bft)
12.04.2019 02:13 2,9 °C 90 % 1016,3 hPa 0,0 mm 0,0 km/h (0 Bft) O 95 ° 0 min 0,000 mm 0,0 UV-I 0 W/m² 1,4 °C 2,9 °C 0,0 km/h (0 Bft)
12.04.2019 02:14 2,8 °C 90 % 1016,3 hPa 0,0 mm 0,0 km/h (0 Bft) O 95 ° 0 min 0,000 mm 0,0 UV-I 0 W/m² 1,3 °C 2,8 °C 0,0 km/h (0 Bft)
12.04.2019 02:15 2,9 °C 89 % 1016,3 hPa 0,0 mm 0,0 km/h (0 Bft) O 95 ° 0 min 0,000 mm 0,0 UV-I 0 W/m² 1,3 °C 2,9 °C 0,0 km/h (0 Bft)
12.04.2019 02:16 2,9 °C 89 % 1016,3 hPa 0,0 mm 0,0 km/h (0 Bft) O 95 ° 0 min 0,000 mm 0,0 UV-I 0 W/m² 1,3 °C 2,9 °C 0,0 km/h (0 Bft)
12.04.2019 02:17 2,9 °C 89 % 1016,3 hPa 0,0 mm 0,0 km/h (0 Bft) O 95 ° 0 min 0,000 mm 0,0 UV-I 0 W/m² 1,3 °C 2,9 °C 0,0 km/h (0 Bft)
12.04.2019 02:18 2,9 °C 89 % 1016,3 hPa 0,0 mm 0,0 km/h (0 Bft) O 95 ° 0 min 0,000 mm 0,0 UV-I 0 W/m² 1,3 °C 2,9 °C 0,0 km/h (0 Bft)
12.04.2019 02:19 2,9 °C 89 % 1016,3 hPa 0,0 mm 0,0 km/h (0 Bft) O 95 ° 0 min 0,000 mm 0,0 UV-I 0 W/m² 1,3 °C 2,9 °C 0,0 km/h (0 Bft)
12.04.2019 02:20 2,9 °C 90 % 1016,3 hPa 0,0 mm 0,0 km/h (0 Bft) O 95 ° 0 min 0,000 mm 0,0 UV-I 0 W/m² 1,4 °C 2,9 °C 0,0 km/h (0 Bft)
12.04.2019 02:21 2,9 °C 90 % 1016,3 hPa 0,0 mm 0,0 km/h (0 Bft) O 95 ° 0 min 0,000 mm 0,0 UV-I 0 W/m² 1,4 °C 2,9 °C 0,0 km/h (0 Bft)
12.04.2019 02:22 2,9 °C 90 % 1016,3 hPa 0,0 mm 0,0 km/h (0 Bft) O 95 ° 0 min 0,000 mm 0,0 UV-I 0 W/m² 1,4 °C 2,9 °C 0,0 km/h (0 Bft)
12.04.2019 02:23 2,8 °C 90 % 1016,3 hPa 0,0 mm 0,0 km/h (0 Bft) O 95 ° 0 min 0,000 mm 0,0 UV-I 0 W/m² 1,3 °C 2,8 °C 0,0 km/h (0 Bft)
12.04.2019 02:24 2,8 °C 90 % 1016,3 hPa 0,0 mm 0,0 km/h (0 Bft) O 95 ° 0 min 0,000 mm 0,0 UV-I 0 W/m² 1,3 °C 2,8 °C 0,0 km/h (0 Bft)
12.04.2019 02:25 2,8 °C 90 % 1016,3 hPa 0,0 mm 0,0 km/h (0 Bft) O 95 ° 0 min 0,000 mm 0,0 UV-I 0 W/m² 1,3 °C 2,8 °C 0,0 km/h (0 Bft)
12.04.2019 02:26 2,8 °C 90 % 1016,3 hPa 0,0 mm 0,0 km/h (0 Bft) O 96 ° 0 min 0,000 mm 0,0 UV-I 0 W/m² 1,3 °C 2,8 °C 0,0 km/h (0 Bft)
12.04.2019 02:27 2,8 °C 90 % 1016,3 hPa 0,0 mm 0,0 km/h (0 Bft) O 95 ° 0 min 0,000 mm 0,0 UV-I 0 W/m² 1,3 °C 2,8 °C 0,0 km/h (0 Bft)
12.04.2019 02:28 2,8 °C 90 % 1016,3 hPa 0,0 mm 0,0 km/h (0 Bft) O 96 ° 0 min 0,000 mm 0,0 UV-I 0 W/m² 1,3 °C 2,8 °C 0,0 km/h (0 Bft)
12.04.2019 02:29 2,8 °C 90 % 1016,3 hPa 0,0 mm 0,0 km/h (0 Bft) O 96 ° 0 min 0,000 mm 0,0 UV-I 0 W/m² 1,3 °C 2,8 °C 0,0 km/h (0 Bft)
12.04.2019 02:30 2,8 °C 90 % 1016,3 hPa 0,0 mm 0,0 km/h (0 Bft) O 95 ° 0 min 0,000 mm 0,0 UV-I 0 W/m² 1,3 °C 2,8 °C 0,0 km/h (0 Bft)
12.04.2019 02:31 2,8 °C 90 % 1016,3 hPa 0,0 mm 0,0 km/h (0 Bft) O 96 ° 0 min 0,000 mm 0,0 UV-I 0 W/m² 1,3 °C 2,8 °C 0,0 km/h (0 Bft)
12.04.2019 02:32 2,8 °C 90 % 1016,3 hPa 0,0 mm 0,0 km/h (0 Bft) O 95 ° 0 min 0,000 mm 0,0 UV-I 0 W/m² 1,3 °C 2,8 °C 0,0 km/h (0 Bft)
12.04.2019 02:33 2,8 °C 90 % 1016,3 hPa 0,0 mm 0,0 km/h (0 Bft) O 95 ° 0 min 0,000 mm 0,0 UV-I 0 W/m² 1,3 °C 2,8 °C 0,0 km/h (0 Bft)
12.04.2019 02:34 2,8 °C 90 % 1016,3 hPa 0,0 mm 0,0 km/h (0 Bft) O 95 ° 0 min 0,000 mm 0,0 UV-I 0 W/m² 1,3 °C 2,8 °C 0,0 km/h (0 Bft)
12.04.2019 02:35 2,8 °C 90 % 1016,2 hPa 0,0 mm 0,0 km/h (0 Bft) O 95 ° 0 min 0,000 mm 0,0 UV-I 0 W/m² 1,3 °C 2,8 °C 0,0 km/h (0 Bft)
12.04.2019 02:36 2,8 °C 90 % 1016,3 hPa 0,0 mm 0,0 km/h (0 Bft) O 95 ° 0 min 0,000 mm 0,0 UV-I 0 W/m² 1,3 °C 2,8 °C 0,0 km/h (0 Bft)
12.04.2019 02:37 2,8 °C 90 % 1016,3 hPa 0,0 mm 0,0 km/h (0 Bft) O 95 ° 0 min 0,000 mm 0,0 UV-I 0 W/m² 1,3 °C 2,8 °C 0,0 km/h (0 Bft)
12.04.2019 02:38 2,8 °C 90 % 1016,3 hPa 0,0 mm 0,0 km/h (0 Bft) O 95 ° 0 min 0,000 mm 0,0 UV-I 0 W/m² 1,3 °C 2,8 °C 0,0 km/h (0 Bft)
12.04.2019 02:39 2,8 °C 90 % 1016,2 hPa 0,0 mm 0,0 km/h (0 Bft) O 96 ° 0 min 0,000 mm 0,0 UV-I 0 W/m² 1,3 °C 2,8 °C 0,0 km/h (0 Bft)
12.04.2019 02:40 2,8 °C 90 % 1016,3 hPa 0,0 mm 0,0 km/h (0 Bft) O 95 ° 0 min 0,000 mm 0,0 UV-I 0 W/m² 1,3 °C 2,8 °C 0,0 km/h (0 Bft)
12.04.2019 02:41 2,8 °C 90 % 1016,3 hPa 0,0 mm 0,0 km/h (0 Bft) O 96 ° 0 min 0,000 mm 0,0 UV-I 0 W/m² 1,3 °C 2,8 °C 0,0 km/h (0 Bft)
12.04.2019 02:42 2,7 °C 90 % 1016,2 hPa 0,0 mm 0,0 km/h (0 Bft) O 95 ° 0 min 0,000 mm 0,0 UV-I 0 W/m² 1,2 °C 2,7 °C 0,0 km/h (0 Bft)
12.04.2019 02:43 2,8 °C 90 % 1016,2 hPa 0,0 mm 0,0 km/h (0 Bft) O 95 ° 0 min 0,000 mm 0,0 UV-I 0 W/m² 1,3 °C 2,8 °C 0,0 km/h (0 Bft)
12.04.2019 02:44 2,7 °C 90 % 1016,2 hPa 0,0 mm 0,0 km/h (0 Bft) O 95 ° 0 min 0,000 mm 0,0 UV-I 0 W/m² 1,2 °C 2,7 °C 0,0 km/h (0 Bft)
12.04.2019 02:45 2,7 °C 90 % 1016,2 hPa 0,0 mm 0,0 km/h (0 Bft) O 95 ° 0 min 0,000 mm 0,0 UV-I 0 W/m² 1,2 °C 2,7 °C 0,0 km/h (0 Bft)
12.04.2019 02:46 2,7 °C 90 % 1016,2 hPa 0,0 mm 0,0 km/h (0 Bft) O 96 ° 0 min 0,000 mm 0,0 UV-I 0 W/m² 1,2 °C 2,7 °C 0,0 km/h (0 Bft)
12.04.2019 02:47 2,7 °C 91 % 1016,2 hPa 0,0 mm 0,0 km/h (0 Bft) O 96 ° 0 min 0,000 mm 0,0 UV-I 0 W/m² 1,4 °C 2,7 °C 0,0 km/h (0 Bft)
12.04.2019 02:48 2,7 °C 91 % 1016,2 hPa 0,0 mm 0,0 km/h (0 Bft) O 95 ° 0 min 0,000 mm 0,0 UV-I 0 W/m² 1,4 °C 2,7 °C 0,0 km/h (0 Bft)
12.04.2019 02:49 2,7 °C 91 % 1016,2 hPa 0,0 mm 0,0 km/h (0 Bft) O 95 ° 0 min 0,000 mm 0,0 UV-I 0 W/m² 1,4 °C 2,7 °C 0,0 km/h (0 Bft)
12.04.2019 02:50 2,7 °C 91 % 1016,1 hPa 0,0 mm 0,0 km/h (0 Bft) O 96 ° 0 min 0,000 mm 0,0 UV-I 0 W/m² 1,4 °C 2,7 °C 0,0 km/h (0 Bft)
12.04.2019 02:51 2,7 °C 91 % 1016,1 hPa 0,0 mm 0,0 km/h (0 Bft) O 95 ° 0 min 0,000 mm 0,0 UV-I 0 W/m² 1,4 °C 2,7 °C 0,0 km/h (0 Bft)
12.04.2019 02:52 2,7 °C 91 % 1016,1 hPa 0,0 mm 0,0 km/h (0 Bft) O 96 ° 0 min 0,000 mm 0,0 UV-I 0 W/m² 1,4 °C 2,7 °C 0,0 km/h (0 Bft)
12.04.2019 02:53 2,7 °C 91 % 1016,1 hPa 0,0 mm 0,0 km/h (0 Bft) O 95 ° 0 min 0,000 mm 0,0 UV-I 0 W/m² 1,4 °C 2,7 °C 0,0 km/h (0 Bft)
12.04.2019 02:54 2,7 °C 91 % 1016,1 hPa 0,0 mm 0,0 km/h (0 Bft) O 96 ° 0 min 0,000 mm 0,0 UV-I 0 W/m² 1,4 °C 2,7 °C 0,0 km/h (0 Bft)
12.04.2019 02:55 2,7 °C 91 % 1016,1 hPa 0,0 mm 0,0 km/h (0 Bft) O 95 ° 0 min 0,000 mm 0,0 UV-I 0 W/m² 1,4 °C 2,7 °C 0,0 km/h (0 Bft)
12.04.2019 02:56 2,7 °C 91 % 1016,1 hPa 0,0 mm 0,0 km/h (0 Bft) O 95 ° 0 min 0,000 mm 0,0 UV-I 0 W/m² 1,4 °C 2,7 °C 0,0 km/h (0 Bft)
12.04.2019 02:57 2,7 °C 91 % 1016,1 hPa 0,0 mm 0,0 km/h (0 Bft) O 96 ° 0 min 0,000 mm 0,0 UV-I 0 W/m² 1,4 °C 2,7 °C 0,0 km/h (0 Bft)
12.04.2019 02:58 2,7 °C 91 % 1016,1 hPa 0,0 mm 0,0 km/h (0 Bft) O 95 ° 0 min 0,000 mm 0,0 UV-I 0 W/m² 1,4 °C 2,7 °C 0,0 km/h (0 Bft)
12.04.2019 02:59 2,7 °C 91 % 1016,1 hPa 0,0 mm 0,0 km/h (0 Bft) O 95 ° 0 min 0,000 mm 0,0 UV-I 0 W/m² 1,4 °C 2,7 °C 0,0 km/h (0 Bft)
12.04.2019 03:00 2,7 °C 91 % 1016,0 hPa 0,0 mm 0,0 km/h (0 Bft) O 95 ° 0 min 0,000 mm 0,0 UV-I 0 W/m² 1,4 °C 2,7 °C 0,0 km/h (0 Bft)
12.04.2019 03:01 2,7 °C 91 % 1016,0 hPa 0,0 mm 0,0 km/h (0 Bft) O 96 ° 0 min 0,000 mm 0,0 UV-I 0 W/m² 1,4 °C 2,7 °C 0,0 km/h (0 Bft)
12.04.2019 03:02 2,7 °C 91 % 1016,1 hPa 0,0 mm 0,0 km/h (0 Bft) O 95 ° 0 min 0,000 mm 0,0 UV-I 0 W/m² 1,4 °C 2,7 °C 0,0 km/h (0 Bft)
12.04.2019 03:03 2,7 °C 90 % 1016,1 hPa 0,0 mm 0,0 km/h (0 Bft) O 96 ° 0 min 0,000 mm 0,0 UV-I 0 W/m² 1,2 °C 2,7 °C 0,0 km/h (0 Bft)
12.04.2019 03:04 2,7 °C 90 % 1016,0 hPa 0,0 mm 0,0 km/h (0 Bft) O 95 ° 0 min 0,000 mm 0,0 UV-I 0 W/m² 1,2 °C 2,7 °C 0,0 km/h (0 Bft)
12.04.2019 03:05 2,7 °C 90 % 1016,1 hPa 0,0 mm 0,0 km/h (0 Bft) O 95 ° 0 min 0,000 mm 0,0 UV-I 0 W/m² 1,2 °C 2,7 °C 0,0 km/h (0 Bft)
12.04.2019 03:06 2,7 °C 91 % 1016,0 hPa 0,0 mm 0,0 km/h (0 Bft) O 95 ° 0 min 0,000 mm 0,0 UV-I 0 W/m² 1,4 °C 2,7 °C 0,0 km/h (0 Bft)
12.04.2019 03:07 2,7 °C 91 % 1016,1 hPa 0,0 mm 0,0 km/h (0 Bft) O 96 ° 0 min 0,000 mm 0,0 UV-I 0 W/m² 1,4 °C 2,7 °C 0,0 km/h (0 Bft)
12.04.2019 03:08 2,7 °C 91 % 1016,1 hPa 0,0 mm 0,0 km/h (0 Bft) O 95 ° 0 min 0,000 mm 0,0 UV-I 0 W/m² 1,4 °C 2,7 °C 0,0 km/h (0 Bft)
12.04.2019 03:09 2,7 °C 91 % 1016,1 hPa 0,0 mm 0,0 km/h (0 Bft) O 96 ° 0 min 0,000 mm 0,0 UV-I 0 W/m² 1,4 °C 2,7 °C 0,0 km/h (0 Bft)
12.04.2019 03:10 2,7 °C 91 % 1016,0 hPa 0,0 mm 0,0 km/h (0 Bft) O 96 ° 0 min 0,000 mm 0,0 UV-I 0 W/m² 1,4 °C 2,7 °C 0,0 km/h (0 Bft)
12.04.2019 03:11 2,7 °C 91 % 1015,9 hPa 0,0 mm 0,0 km/h (0 Bft) O 95 ° 0 min 0,000 mm 0,0 UV-I 0 W/m² 1,4 °C 2,7 °C 0,0 km/h (0 Bft)
12.04.2019 03:12 2,7 °C 91 % 1016,1 hPa 0,0 mm 0,0 km/h (0 Bft) O 96 ° 0 min 0,000 mm 0,0 UV-I 0 W/m² 1,4 °C 2,7 °C 0,0 km/h (0 Bft)
12.04.2019 03:13 2,8 °C 90 % 1016,1 hPa 0,0 mm 0,0 km/h (0 Bft) O 95 ° 0 min 0,000 mm 0,0 UV-I 0 W/m² 1,3 °C 2,8 °C 0,0 km/h (0 Bft)
12.04.2019 03:14 2,8 °C 91 % 1016,1 hPa 0,0 mm 0,0 km/h (0 Bft) O 95 ° 0 min 0,000 mm 0,0 UV-I 0 W/m² 1,5 °C 2,8 °C 0,0 km/h (0 Bft)
12.04.2019 03:15 2,7 °C 91 % 1016,1 hPa 0,0 mm 0,0 km/h (0 Bft) O 95 ° 0 min 0,000 mm 0,0 UV-I 0 W/m² 1,4 °C 2,7 °C 0,0 km/h (0 Bft)
12.04.2019 03:16 2,8 °C 91 % 1016,1 hPa 0,0 mm 0,0 km/h (0 Bft) O 96 ° 0 min 0,000 mm 0,0 UV-I 0 W/m² 1,5 °C 2,8 °C 0,0 km/h (0 Bft)
12.04.2019 03:17 2,7 °C 91 % 1016,1 hPa 0,0 mm 0,0 km/h (0 Bft) O 95 ° 0 min 0,000 mm 0,0 UV-I 0 W/m² 1,4 °C 2,7 °C 0,0 km/h (0 Bft)
12.04.2019 03:18 2,7 °C 91 % 1016,1 hPa 0,0 mm 0,0 km/h (0 Bft) O 96 ° 0 min 0,000 mm 0,0 UV-I 0 W/m² 1,4 °C 2,7 °C 0,0 km/h (0 Bft)
12.04.2019 03:19 2,7 °C 91 % 1016,1 hPa 0,0 mm 0,0 km/h (0 Bft) O 95 ° 0 min 0,000 mm 0,0 UV-I 0 W/m² 1,4 °C 2,7 °C 0,0 km/h (0 Bft)
12.04.2019 03:20 2,7 °C 91 % 1016,1 hPa 0,0 mm 0,0 km/h (0 Bft) O 96 ° 0 min 0,000 mm 0,0 UV-I 0 W/m² 1,4 °C 2,7 °C 0,0 km/h (0 Bft)
12.04.2019 03:21 2,7 °C 91 % 1016,1 hPa 0,0 mm 0,0 km/h (0 Bft) O 95 ° 0 min 0,000 mm 0,0 UV-I 0 W/m² 1,4 °C 2,7 °C 0,0 km/h (0 Bft)
12.04.2019 03:22 2,7 °C 91 % 1016,1 hPa 0,0 mm 0,0 km/h (0 Bft) O 96 ° 0 min 0,000 mm 0,0 UV-I 0 W/m² 1,4 °C 2,7 °C 0,0 km/h (0 Bft)
12.04.2019 03:23 2,7 °C 91 % 1016,1 hPa 0,0 mm 0,0 km/h (0 Bft) O 95 ° 0 min 0,000 mm 0,0 UV-I 0 W/m² 1,4 °C 2,7 °C 0,0 km/h (0 Bft)
12.04.2019 03:24 2,7 °C 91 % 1016,1 hPa 0,0 mm 0,0 km/h (0 Bft) O 95 ° 0 min 0,000 mm 0,0 UV-I 0 W/m² 1,4 °C 2,7 °C 0,0 km/h (0 Bft)
12.04.2019 03:25 2,7 °C 91 % 1016,1 hPa 0,0 mm 0,0 km/h (0 Bft) O 96 ° 0 min 0,000 mm 0,0 UV-I 0 W/m² 1,4 °C 2,7 °C 0,0 km/h (0 Bft)
12.04.2019 03:26 2,7 °C 91 % 1016,1 hPa 0,0 mm 0,0 km/h (0 Bft) O 95 ° 0 min 0,000 mm 0,0 UV-I 0 W/m² 1,4 °C 2,7 °C 0,0 km/h (0 Bft)
12.04.2019 03:27 2,7 °C 91 % 1016,1 hPa 0,0 mm 0,0 km/h (0 Bft) O 96 ° 0 min 0,000 mm 0,0 UV-I 0 W/m² 1,4 °C 2,7 °C 0,0 km/h (0 Bft)
12.04.2019 03:28 2,7 °C 91 % 1016,1 hPa 0,0 mm 0,0 km/h (0 Bft) O 95 ° 0 min 0,000 mm 0,0 UV-I 0 W/m² 1,4 °C 2,7 °C 0,0 km/h (0 Bft)
12.04.2019 03:29 2,7 °C 91 % 1016,2 hPa 0,0 mm 0,0 km/h (0 Bft) O 95 ° 0 min 0,000 mm 0,0 UV-I 0 W/m² 1,4 °C 2,7 °C 0,0 km/h (0 Bft)
12.04.2019 03:30 2,7 °C 91 % 1016,1 hPa 0,0 mm 0,0 km/h (0 Bft) O 95 ° 0 min 0,000 mm 0,0 UV-I 0 W/m² 1,4 °C 2,7 °C 0,0 km/h (0 Bft)
12.04.2019 03:31 2,7 °C 91 % 1016,1 hPa 0,0 mm 0,0 km/h (0 Bft) O 95 ° 0 min 0,000 mm 0,0 UV-I 0 W/m² 1,4 °C 2,7 °C 0,0 km/h (0 Bft)
12.04.2019 03:32 2,7 °C 91 % 1016,2 hPa 0,0 mm 0,0 km/h (0 Bft) O 95 ° 0 min 0,000 mm 0,0 UV-I 0 W/m² 1,4 °C 2,7 °C 0,0 km/h (0 Bft)
12.04.2019 03:33 2,7 °C 91 % 1016,1 hPa 0,0 mm 0,0 km/h (0 Bft) O 95 ° 0 min 0,000 mm 0,0 UV-I 0 W/m² 1,4 °C 2,7 °C 0,0 km/h (0 Bft)
12.04.2019 03:34 2,7 °C 91 % 1016,1 hPa 0,0 mm 0,0 km/h (0 Bft) O 95 ° 0 min 0,000 mm 0,0 UV-I 0 W/m² 1,4 °C 2,7 °C 0,0 km/h (0 Bft)
12.04.2019 03:35 2,7 °C 91 % 1016,1 hPa 0,0 mm 0,0 km/h (0 Bft) O 96 ° 0 min 0,000 mm 0,0 UV-I 0 W/m² 1,4 °C 2,7 °C 0,0 km/h (0 Bft)
12.04.2019 03:36 2,7 °C 91 % 1016,1 hPa 0,0 mm 0,0 km/h (0 Bft) O 95 ° 0 min 0,000 mm 0,0 UV-I 0 W/m² 1,4 °C 2,7 °C 0,0 km/h (0 Bft)
12.04.2019 03:37 2,7 °C 91 % 1016,1 hPa 0,0 mm 0,0 km/h (0 Bft) O 95 ° 0 min 0,000 mm 0,0 UV-I 0 W/m² 1,4 °C 2,7 °C 0,0 km/h (0 Bft)
12.04.2019 03:38 2,7 °C 91 % 1016,1 hPa 0,0 mm 0,0 km/h (0 Bft) O 95 ° 0 min 0,000 mm 0,0 UV-I 0 W/m² 1,4 °C 2,7 °C 0,0 km/h (0 Bft)
12.04.2019 03:39 2,7 °C 91 % 1016,1 hPa 0,0 mm 0,0 km/h (0 Bft) O 95 ° 0 min 0,000 mm 0,0 UV-I 0 W/m² 1,4 °C 2,7 °C 0,0 km/h (0 Bft)
12.04.2019 03:40 2,6 °C 91 % 1016,1 hPa 0,0 mm 0,0 km/h (0 Bft) O 95 ° 0 min 0,000 mm 0,0 UV-I 0 W/m² 1,3 °C 2,6 °C 0,0 km/h (0 Bft)
12.04.2019 03:41 2,6 °C 91 % 1016,2 hPa 0,0 mm 0,0 km/h (0 Bft) O 95 ° 0 min 0,000 mm 0,0 UV-I 0 W/m² 1,3 °C 2,6 °C 0,0 km/h (0 Bft)
12.04.2019 03:42 2,6 °C 91 % 1016,1 hPa 0,0 mm 0,0 km/h (0 Bft) O 95 ° 0 min 0,000 mm 0,0 UV-I 0 W/m² 1,3 °C 2,6 °C 0,0 km/h (0 Bft)
12.04.2019 03:43 2,6 °C 92 % 1016,2 hPa 0,0 mm 0,0 km/h (0 Bft) O 95 ° 0 min 0,000 mm 0,0 UV-I 0 W/m² 1,4 °C 2,6 °C 0,0 km/h (0 Bft)
12.04.2019 03:44 2,6 °C 91 % 1016,2 hPa 0,0 mm 0,0 km/h (0 Bft) O 96 ° 0 min 0,000 mm 0,0 UV-I 0 W/m² 1,3 °C 2,6 °C 0,0 km/h (0 Bft)
12.04.2019 03:45 2,6 °C 91 % 1016,1 hPa 0,0 mm 0,0 km/h (0 Bft) O 95 ° 0 min 0,000 mm 0,0 UV-I 0 W/m² 1,3 °C 2,6 °C 0,0 km/h (0 Bft)
12.04.2019 03:46 2,6 °C 91 % 1016,2 hPa 0,0 mm 0,0 km/h (0 Bft) O 96 ° 0 min 0,000 mm 0,0 UV-I 0 W/m² 1,3 °C 2,6 °C 0,0 km/h (0 Bft)
12.04.2019 03:47 2,6 °C 91 % 1016,2 hPa 0,0 mm 0,0 km/h (0 Bft) O 96 ° 0 min 0,000 mm 0,0 UV-I 0 W/m² 1,3 °C 2,6 °C 0,0 km/h (0 Bft)
12.04.2019 03:48 2,6 °C 91 % 1016,2 hPa 0,0 mm 0,0 km/h (0 Bft) O 96 ° 0 min 0,000 mm 0,0 UV-I 0 W/m² 1,3 °C 2,6 °C 0,0 km/h (0 Bft)
12.04.2019 03:49 2,6 °C 91 % 1016,1 hPa 0,0 mm 0,0 km/h (0 Bft) O 95 ° 0 min 0,000 mm 0,0 UV-I 0 W/m² 1,3 °C 2,6 °C 0,0 km/h (0 Bft)
12.04.2019 03:50 2,6 °C 91 % 1016,1 hPa 0,0 mm 0,0 km/h (0 Bft) O 95 ° 0 min 0,000 mm 0,0 UV-I 0 W/m² 1,3 °C 2,6 °C 0,0 km/h (0 Bft)
12.04.2019 03:51 2,6 °C 91 % 1016,1 hPa 0,0 mm 0,0 km/h (0 Bft) O 95 ° 0 min 0,000 mm 0,0 UV-I 0 W/m² 1,3 °C 2,6 °C 0,0 km/h (0 Bft)
12.04.2019 03:52 2,6 °C 91 % 1016,1 hPa 0,0 mm 0,0 km/h (0 Bft) O 95 ° 0 min 0,000 mm 0,0 UV-I 0 W/m² 1,3 °C 2,6 °C 0,0 km/h (0 Bft)
12.04.2019 03:53 2,6 °C 91 % 1016,1 hPa 0,0 mm 0,0 km/h (0 Bft) O 95 ° 0 min 0,000 mm 0,0 UV-I 0 W/m² 1,3 °C 2,6 °C 0,0 km/h (0 Bft)
12.04.2019 03:54 2,6 °C 91 % 1016,1 hPa 0,0 mm 0,0 km/h (0 Bft) O 95 ° 0 min 0,000 mm 0,0 UV-I 0 W/m² 1,3 °C 2,6 °C 0,0 km/h (0 Bft)
12.04.2019 03:55 2,6 °C 91 % 1016,1 hPa 0,0 mm 0,0 km/h (0 Bft) O 96 ° 0 min 0,000 mm 0,0 UV-I 0 W/m² 1,3 °C 2,6 °C 0,0 km/h (0 Bft)
12.04.2019 03:56 2,6 °C 91 % 1016,1 hPa 0,0 mm 0,0 km/h (0 Bft) O 95 ° 0 min 0,000 mm 0,0 UV-I 0 W/m² 1,3 °C 2,6 °C 0,0 km/h (0 Bft)
12.04.2019 03:57 2,6 °C 91 % 1016,1 hPa 0,0 mm 0,0 km/h (0 Bft) O 95 ° 0 min 0,000 mm 0,0 UV-I 0 W/m² 1,3 °C 2,6 °C 0,0 km/h (0 Bft)
12.04.2019 03:58 2,6 °C 91 % 1016,2 hPa 0,0 mm 0,0 km/h (0 Bft) O 95 ° 0 min 0,000 mm 0,0 UV-I 0 W/m² 1,3 °C 2,6 °C 0,0 km/h (0 Bft)
12.04.2019 03:59 2,6 °C 91 % 1016,1 hPa 0,0 mm 0,0 km/h (0 Bft) O 95 ° 0 min 0,000 mm 0,0 UV-I 0 W/m² 1,3 °C 2,6 °C 0,0 km/h (0 Bft)
12.04.2019 04:00 2,6 °C 91 % 1016,2 hPa 0,0 mm 0,0 km/h (0 Bft) O 96 ° 0 min 0,000 mm 0,0 UV-I 0 W/m² 1,3 °C 2,6 °C 0,0 km/h (0 Bft)
12.04.2019 04:01 2,6 °C 91 % 1016,2 hPa 0,0 mm 0,0 km/h (0 Bft) O 96 ° 0 min 0,000 mm 0,0 UV-I 0 W/m² 1,3 °C 2,6 °C 0,0 km/h (0 Bft)
12.04.2019 04:02 2,6 °C 90 % 1016,2 hPa 0,0 mm 0,0 km/h (0 Bft) O 95 ° 0 min 0,000 mm 0,0 UV-I 0 W/m² 1,1 °C 2,6 °C 0,0 km/h (0 Bft)
12.04.2019 04:03 2,6 °C 90 % 1016,1 hPa 0,0 mm 0,0 km/h (0 Bft) O 95 ° 0 min 0,000 mm 0,0 UV-I 0 W/m² 1,1 °C 2,6 °C 0,0 km/h (0 Bft)
12.04.2019 04:04 2,6 °C 90 % 1016,1 hPa 0,0 mm 0,0 km/h (0 Bft) O 95 ° 0 min 0,000 mm 0,0 UV-I 0 W/m² 1,1 °C 2,6 °C 0,0 km/h (0 Bft)
12.04.2019 04:05 2,6 °C 90 % 1016,1 hPa 0,0 mm 0,0 km/h (0 Bft) O 96 ° 0 min 0,000 mm 0,0 UV-I 0 W/m² 1,1 °C 2,6 °C 0,0 km/h (0 Bft)
12.04.2019 04:06 2,6 °C 90 % 1016,1 hPa 0,0 mm 0,0 km/h (0 Bft) O 95 ° 0 min 0,000 mm 0,0 UV-I 0 W/m² 1,1 °C 2,6 °C 0,0 km/h (0 Bft)
12.04.2019 04:07 2,6 °C 90 % 1016,2 hPa 0,0 mm 0,0 km/h (0 Bft) O 95 ° 0 min 0,000 mm 0,0 UV-I 0 W/m² 1,1 °C 2,6 °C 0,0 km/h (0 Bft)
12.04.2019 04:08 2,6 °C 90 % 1016,2 hPa 0,0 mm 0,2 km/h (0 Bft) O 95 ° 0 min 0,000 mm 0,0 UV-I 0 W/m² 1,1 °C 2,6 °C 1,6 km/h (1 Bft)
12.04.2019 04:09 2,6 °C 90 % 1016,2 hPa 0,0 mm 0,0 km/h (0 Bft) O 95 ° 0 min 0,000 mm 0,0 UV-I 0 W/m² 1,1 °C 2,6 °C 0,0 km/h (0 Bft)
12.04.2019 04:10 2,6 °C 90 % 1016,2 hPa 0,0 mm 0,0 km/h (0 Bft) O 95 ° 0 min 0,000 mm 0,0 UV-I 0 W/m² 1,1 °C 2,6 °C 0,0 km/h (0 Bft)
12.04.2019 04:11 2,6 °C 90 % 1016,2 hPa 0,0 mm 0,0 km/h (0 Bft) O 95 ° 0 min 0,000 mm 0,0 UV-I 0 W/m² 1,1 °C 2,6 °C 0,0 km/h (0 Bft)
12.04.2019 04:12 2,6 °C 90 % 1016,2 hPa 0,0 mm 0,0 km/h (0 Bft) O 95 ° 0 min 0,000 mm 0,0 UV-I 0 W/m² 1,1 °C 2,6 °C 0,0 km/h (0 Bft)
12.04.2019 04:13 2,5 °C 90 % 1016,2 hPa 0,0 mm 0,0 km/h (0 Bft) O 95 ° 0 min 0,000 mm 0,0 UV-I 0 W/m² 1,0 °C 2,5 °C 0,0 km/h (0 Bft)
12.04.2019 04:14 2,5 °C 90 % 1016,1 hPa 0,0 mm 0,0 km/h (0 Bft) O 95 ° 0 min 0,000 mm 0,0 UV-I 0 W/m² 1,0 °C 2,5 °C 0,0 km/h (0 Bft)
12.04.2019 04:15 2,5 °C 90 % 1016,2 hPa 0,0 mm 0,0 km/h (0 Bft) O 96 ° 0 min 0,000 mm 0,0 UV-I 0 W/m² 1,0 °C 2,5 °C 0,0 km/h (0 Bft)
12.04.2019 04:16 2,5 °C 90 % 1016,1 hPa 0,0 mm 0,4 km/h (0 Bft) O 96 ° 0 min 0,000 mm 0,0 UV-I 0 W/m² 1,0 °C 2,5 °C 3,2 km/h (1 Bft)
12.04.2019 04:17 2,5 °C 90 % 1016,1 hPa 0,0 mm 0,0 km/h (0 Bft) O 96 ° 0 min 0,000 mm 0,0 UV-I 0 W/m² 1,0 °C 2,5 °C 0,0 km/h (0 Bft)
12.04.2019 04:18 2,5 °C 90 % 1016,1 hPa 0,0 mm 0,0 km/h (0 Bft) O 96 ° 0 min 0,000 mm 0,0 UV-I 0 W/m² 1,0 °C 2,5 °C 0,0 km/h (0 Bft)
12.04.2019 04:19 2,5 °C 90 % 1016,1 hPa 0,0 mm 0,0 km/h (0 Bft) O 96 ° 0 min 0,000 mm 0,0 UV-I 0 W/m² 1,0 °C 2,5 °C 0,0 km/h (0 Bft)
12.04.2019 04:20 2,6 °C 90 % 1016,1 hPa 0,0 mm 0,1 km/h (0 Bft) O 96 ° 0 min 0,000 mm 0,0 UV-I 0 W/m² 1,1 °C 2,6 °C 1,6 km/h (1 Bft)
12.04.2019 04:21 2,5 °C 90 % 1016,1 hPa 0,0 mm 0,0 km/h (0 Bft) O 96 ° 0 min 0,000 mm 0,0 UV-I 0 W/m² 1,0 °C 2,5 °C 0,0 km/h (0 Bft)
12.04.2019 04:22 2,6 °C 90 % 1016,1 hPa 0,0 mm 0,0 km/h (0 Bft) O 96 ° 0 min 0,000 mm 0,0 UV-I 0 W/m² 1,1 °C 2,6 °C 0,0 km/h (0 Bft)
12.04.2019 04:23 2,5 °C 90 % 1016,1 hPa 0,0 mm 0,0 km/h (0 Bft) O 96 ° 0 min 0,000 mm 0,0 UV-I 0 W/m² 1,0 °C 2,5 °C 0,0 km/h (0 Bft)
12.04.2019 04:24 2,5 °C 90 % 1016,1 hPa 0,0 mm 0,0 km/h (0 Bft) O 96 ° 0 min 0,000 mm 0,0 UV-I 0 W/m² 1,0 °C 2,5 °C 0,0 km/h (0 Bft)
12.04.2019 04:25 2,5 °C 90 % 1016,1 hPa 0,0 mm 0,0 km/h (0 Bft) O 96 ° 0 min 0,000 mm 0,0 UV-I 0 W/m² 1,0 °C 2,5 °C 0,0 km/h (0 Bft)
12.04.2019 04:26 2,5 °C 90 % 1016,1 hPa 0,0 mm 0,0 km/h (0 Bft) O 96 ° 0 min 0,000 mm 0,0 UV-I 0 W/m² 1,0 °C 2,5 °C 0,0 km/h (0 Bft)
12.04.2019 04:27 2,5 °C 90 % 1016,1 hPa 0,0 mm 0,0 km/h (0 Bft) O 96 ° 0 min 0,000 mm 0,0 UV-I 0 W/m² 1,0 °C 2,5 °C 0,0 km/h (0 Bft)
12.04.2019 04:28 2,4 °C 90 % 1016,1 hPa 0,0 mm 0,0 km/h (0 Bft) O 96 ° 0 min 0,000 mm 0,0 UV-I 0 W/m² 0,9 °C 2,4 °C 0,0 km/h (0 Bft)
12.04.2019 04:29 2,4 °C 90 % 1016,1 hPa 0,0 mm 0,0 km/h (0 Bft) O 96 ° 0 min 0,000 mm 0,0 UV-I 0 W/m² 0,9 °C 2,4 °C 0,0 km/h (0 Bft)
12.04.2019 04:30 2,4 °C 90 % 1016,1 hPa 0,0 mm 0,0 km/h (0 Bft) O 96 ° 0 min 0,000 mm 0,0 UV-I 0 W/m² 0,9 °C 2,4 °C 0,0 km/h (0 Bft)
12.04.2019 04:31 2,4 °C 90 % 1016,1 hPa 0,0 mm 0,0 km/h (0 Bft) O 96 ° 0 min 0,000 mm 0,0 UV-I 0 W/m² 0,9 °C 2,4 °C 0,0 km/h (0 Bft)
12.04.2019 04:32 2,4 °C 90 % 1016,1 hPa 0,0 mm 0,0 km/h (0 Bft) O 96 ° 0 min 0,000 mm 0,0 UV-I 0 W/m² 0,9 °C 2,4 °C 0,0 km/h (0 Bft)
12.04.2019 04:33 2,4 °C 90 % 1016,1 hPa 0,0 mm 0,0 km/h (0 Bft) O 96 ° 0 min 0,000 mm 0,0 UV-I 0 W/m² 0,9 °C 2,4 °C 0,0 km/h (0 Bft)
12.04.2019 04:34 2,4 °C 90 % 1016,1 hPa 0,0 mm 0,0 km/h (0 Bft) O 96 ° 0 min 0,000 mm 0,0 UV-I 0 W/m² 0,9 °C 2,4 °C 0,0 km/h (0 Bft)
12.04.2019 04:35 2,4 °C 90 % 1016,1 hPa 0,0 mm 0,0 km/h (0 Bft) O 96 ° 0 min 0,000 mm 0,0 UV-I 0 W/m² 0,9 °C 2,4 °C 0,0 km/h (0 Bft)
12.04.2019 04:36 2,4 °C 90 % 1016,1 hPa 0,0 mm 0,0 km/h (0 Bft) O 96 ° 0 min 0,000 mm 0,0 UV-I 0 W/m² 0,9 °C 2,4 °C 0,0 km/h (0 Bft)
12.04.2019 04:37 2,4 °C 90 % 1016,1 hPa 0,0 mm 0,0 km/h (0 Bft) O 96 ° 0 min 0,000 mm 0,0 UV-I 0 W/m² 0,9 °C 2,4 °C 0,0 km/h (0 Bft)
12.04.2019 04:38 2,4 °C 90 % 1016,1 hPa 0,0 mm 0,0 km/h (0 Bft) O 96 ° 0 min 0,000 mm 0,0 UV-I 0 W/m² 0,9 °C 2,4 °C 0,0 km/h (0 Bft)
12.04.2019 04:39 2,4 °C 90 % 1016,2 hPa 0,0 mm 0,0 km/h (0 Bft) O 96 ° 0 min 0,000 mm 0,0 UV-I 0 W/m² 0,9 °C 2,4 °C 0,0 km/h (0 Bft)
12.04.2019 04:40 2,4 °C 90 % 1016,1 hPa 0,0 mm 0,0 km/h (0 Bft) O 96 ° 0 min 0,000 mm 0,0 UV-I 0 W/m² 0,9 °C 2,4 °C 0,0 km/h (0 Bft)
12.04.2019 04:41 2,4 °C 90 % 1016,1 hPa 0,0 mm 0,0 km/h (0 Bft) O 96 ° 0 min 0,000 mm 0,0 UV-I 0 W/m² 0,9 °C 2,4 °C 0,0 km/h (0 Bft)
12.04.2019 04:42 2,4 °C 90 % 1016,1 hPa 0,0 mm 0,0 km/h (0 Bft) O 96 ° 0 min 0,000 mm 0,0 UV-I 0 W/m² 0,9 °C 2,4 °C 0,0 km/h (0 Bft)
12.04.2019 04:43 2,4 °C 90 % 1016,1 hPa 0,0 mm 0,0 km/h (0 Bft) O 96 ° 0 min 0,000 mm 0,0 UV-I 0 W/m² 0,9 °C 2,4 °C 0,0 km/h (0 Bft)
12.04.2019 04:44 2,4 °C 90 % 1016,1 hPa 0,0 mm 0,0 km/h (0 Bft) O 96 ° 0 min 0,000 mm 0,0 UV-I 0 W/m² 0,9 °C 2,4 °C 0,0 km/h (0 Bft)
12.04.2019 04:45 2,4 °C 90 % 1016,1 hPa 0,0 mm 0,0 km/h (0 Bft) O 96 ° 0 min 0,000 mm 0,0 UV-I 0 W/m² 0,9 °C 2,4 °C 0,0 km/h (0 Bft)
12.04.2019 04:46 2,4 °C 90 % 1016,1 hPa 0,0 mm 0,0 km/h (0 Bft) O 96 ° 0 min 0,000 mm 0,0 UV-I 0 W/m² 0,9 °C 2,4 °C 0,0 km/h (0 Bft)
12.04.2019 04:47 2,4 °C 90 % 1016,1 hPa 0,0 mm 0,0 km/h (0 Bft) O 96 ° 0 min 0,000 mm 0,0 UV-I 0 W/m² 0,9 °C 2,4 °C 0,0 km/h (0 Bft)
12.04.2019 04:48 2,4 °C 90 % 1016,1 hPa 0,0 mm 0,0 km/h (0 Bft) O 96 ° 0 min 0,000 mm 0,0 UV-I 0 W/m² 0,9 °C 2,4 °C 0,0 km/h (0 Bft)
12.04.2019 04:49 2,4 °C 91 % 1016,2 hPa 0,0 mm 0,0 km/h (0 Bft) O 96 ° 0 min 0,000 mm 0,0 UV-I 0 W/m² 1,1 °C 2,4 °C 0,0 km/h (0 Bft)
12.04.2019 04:50 2,4 °C 91 % 1016,1 hPa 0,0 mm 0,0 km/h (0 Bft) O 96 ° 0 min 0,000 mm 0,0 UV-I 0 W/m² 1,1 °C 2,4 °C 0,0 km/h (0 Bft)
12.04.2019 04:51 2,4 °C 91 % 1016,1 hPa 0,0 mm 0,0 km/h (0 Bft) O 96 ° 0 min 0,000 mm 0,0 UV-I 0 W/m² 1,1 °C 2,4 °C 0,0 km/h (0 Bft)
12.04.2019 04:52 2,4 °C 91 % 1016,2 hPa 0,0 mm 0,0 km/h (0 Bft) O 96 ° 0 min 0,000 mm 0,0 UV-I 0 W/m² 1,1 °C 2,4 °C 0,0 km/h (0 Bft)
12.04.2019 04:53 2,3 °C 91 % 1016,2 hPa 0,0 mm 0,0 km/h (0 Bft) O 96 ° 0 min 0,000 mm 0,0 UV-I 0 W/m² 1,0 °C 2,3 °C 0,0 km/h (0 Bft)
12.04.2019 04:54 2,3 °C 91 % 1016,1 hPa 0,0 mm 0,0 km/h (0 Bft) O 96 ° 0 min 0,000 mm 0,0 UV-I 0 W/m² 1,0 °C 2,3 °C 0,0 km/h (0 Bft)
12.04.2019 04:55 2,3 °C 90 % 1016,1 hPa 0,0 mm 0,0 km/h (0 Bft) O 96 ° 0 min 0,000 mm 0,0 UV-I 0 W/m² 0,8 °C 2,3 °C 0,0 km/h (0 Bft)
12.04.2019 04:56 2,3 °C 90 % 1016,2 hPa 0,0 mm 0,0 km/h (0 Bft) O 96 ° 0 min 0,000 mm 0,0 UV-I 0 W/m² 0,8 °C 2,3 °C 0,0 km/h (0 Bft)
12.04.2019 04:57 2,3 °C 91 % 1016,2 hPa 0,0 mm 0,0 km/h (0 Bft) O 96 ° 0 min 0,000 mm 0,0 UV-I 0 W/m² 1,0 °C 2,3 °C 0,0 km/h (0 Bft)
12.04.2019 04:58 2,3 °C 90 % 1016,1 hPa 0,0 mm 0,0 km/h (0 Bft) O 96 ° 0 min 0,000 mm 0,0 UV-I 0 W/m² 0,8 °C 2,3 °C 0,0 km/h (0 Bft)
12.04.2019 04:59 2,3 °C 90 % 1016,1 hPa 0,0 mm 0,0 km/h (0 Bft) O 96 ° 0 min 0,000 mm 0,0 UV-I 0 W/m² 0,8 °C 2,3 °C 0,0 km/h (0 Bft)
12.04.2019 05:00 2,3 °C 90 % 1016,1 hPa 0,0 mm 0,0 km/h (0 Bft) O 96 ° 0 min 0,000 mm 0,0 UV-I 0 W/m² 0,8 °C 2,3 °C 0,0 km/h (0 Bft)
12.04.2019 05:01 2,3 °C 90 % 1016,2 hPa 0,0 mm 0,0 km/h (0 Bft) O 96 ° 0 min 0,000 mm 0,0 UV-I 0 W/m² 0,8 °C 2,3 °C 0,0 km/h (0 Bft)
12.04.2019 05:02 2,3 °C 90 % 1016,2 hPa 0,0 mm 0,0 km/h (0 Bft) O 96 ° 0 min 0,000 mm 0,0 UV-I 0 W/m² 0,8 °C 2,3 °C 0,0 km/h (0 Bft)
12.04.2019 05:03 2,3 °C 90 % 1016,1 hPa 0,0 mm 0,0 km/h (0 Bft) O 96 ° 0 min 0,000 mm 0,0 UV-I 0 W/m² 0,8 °C 2,3 °C 0,0 km/h (0 Bft)
12.04.2019 05:04 2,3 °C 90 % 1016,2 hPa 0,0 mm 0,0 km/h (0 Bft) O 96 ° 0 min 0,000 mm 0,0 UV-I 0 W/m² 0,8 °C 2,3 °C 0,0 km/h (0 Bft)
12.04.2019 05:05 2,3 °C 90 % 1016,1 hPa 0,0 mm 0,0 km/h (0 Bft) O 96 ° 0 min 0,000 mm 0,0 UV-I 0 W/m² 0,8 °C 2,3 °C 0,0 km/h (0 Bft)
12.04.2019 05:06 2,3 °C 90 % 1016,2 hPa 0,0 mm 0,0 km/h (0 Bft) O 96 ° 0 min 0,000 mm 0,0 UV-I 0 W/m² 0,8 °C 2,3 °C 0,0 km/h (0 Bft)
12.04.2019 05:07 2,3 °C 90 % 1016,2 hPa 0,0 mm 0,0 km/h (0 Bft) O 96 ° 0 min 0,000 mm 0,0 UV-I 0 W/m² 0,8 °C 2,3 °C 0,0 km/h (0 Bft)
12.04.2019 05:08 2,3 °C 90 % 1016,2 hPa 0,0 mm 0,0 km/h (0 Bft) O 96 ° 0 min 0,000 mm 0,0 UV-I 0 W/m² 0,8 °C 2,3 °C 0,0 km/h (0 Bft)
12.04.2019 05:09 2,3 °C 90 % 1016,2 hPa 0,0 mm 0,0 km/h (0 Bft) N-NO 28 ° 0 min 0,000 mm 0,0 UV-I 0 W/m² 0,8 °C 2,3 °C 0,0 km/h (0 Bft)
12.04.2019 05:10 2,4 °C 90 % 1016,2 hPa 0,0 mm 0,0 km/h (0 Bft) N-NO 28 ° 0 min 0,000 mm 0,0 UV-I 0 W/m² 0,9 °C 2,4 °C 0,0 km/h (0 Bft)
12.04.2019 05:11 2,4 °C 90 % 1016,2 hPa 0,0 mm 0,0 km/h (0 Bft) N-NO 28 ° 0 min 0,000 mm 0,0 UV-I 0 W/m² 0,9 °C 2,4 °C 0,0 km/h (0 Bft)
12.04.2019 05:12 2,3 °C 90 % 1016,2 hPa 0,0 mm 0,0 km/h (0 Bft) N-NO 28 ° 0 min 0,000 mm 0,0 UV-I 0 W/m² 0,8 °C 2,3 °C 0,0 km/h (0 Bft)
12.04.2019 05:13 2,3 °C 90 % 1016,2 hPa 0,0 mm 0,0 km/h (0 Bft) N-NO 28 ° 0 min 0,000 mm 0,0 UV-I 0 W/m² 0,8 °C 2,3 °C 0,0 km/h (0 Bft)
12.04.2019 05:14 2,3 °C 90 % 1016,2 hPa 0,0 mm 0,0 km/h (0 Bft) N-NO 28 ° 0 min 0,000 mm 0,0 UV-I 0 W/m² 0,8 °C 2,3 °C 0,0 km/h (0 Bft)
12.04.2019 05:15 2,3 °C 90 % 1016,2 hPa 0,0 mm 0,0 km/h (0 Bft) N-NO 28 ° 0 min 0,000 mm 0,0 UV-I 0 W/m² 0,8 °C 2,3 °C 0,0 km/h (0 Bft)
12.04.2019 05:16 2,3 °C 90 % 1016,2 hPa 0,0 mm 2,0 km/h (1 Bft) N 360 ° 0 min 0,000 mm 0,0 UV-I 0 W/m² 0,8 °C 2,3 °C 6,4 km/h (2 Bft)
12.04.2019 05:17 2,3 °C 90 % 1016,2 hPa 0,0 mm 6,0 km/h (2 Bft) N 360 ° 0 min 0,000 mm 0,0 UV-I 0 W/m² 0,8 °C 0,6 °C 8,0 km/h (2 Bft)
12.04.2019 05:18 2,3 °C 89 % 1016,2 hPa 0,0 mm 2,9 km/h (1 Bft) N 360 ° 0 min 0,000 mm 0,0 UV-I 0 W/m² 0,7 °C 2,3 °C 4,8 km/h (1 Bft)
12.04.2019 05:19 2,3 °C 89 % 1016,2 hPa 0,0 mm 0,0 km/h (0 Bft) N 360 ° 0 min 0,000 mm 0,0 UV-I 0 W/m² 0,7 °C 2,3 °C 0,0 km/h (0 Bft)
12.04.2019 05:20 2,3 °C 89 % 1016,2 hPa 0,0 mm 0,0 km/h (0 Bft) N 11 ° 0 min 0,000 mm 0,0 UV-I 0 W/m² 0,7 °C 2,3 °C 0,0 km/h (0 Bft)
12.04.2019 05:21 2,3 °C 89 % 1016,2 hPa 0,0 mm 0,0 km/h (0 Bft) N 11 ° 0 min 0,000 mm 0,0 UV-I 0 W/m² 0,7 °C 2,3 °C 0,0 km/h (0 Bft)
12.04.2019 05:22 2,3 °C 89 % 1016,2 hPa 0,0 mm 0,0 km/h (0 Bft) N 11 ° 0 min 0,000 mm 0,0 UV-I 0 W/m² 0,7 °C 2,3 °C 0,0 km/h (0 Bft)
12.04.2019 05:23 2,3 °C 89 % 1016,2 hPa 0,0 mm 0,0 km/h (0 Bft) N 11 ° 0 min 0,000 mm 0,0 UV-I 0 W/m² 0,7 °C 2,3 °C 0,0 km/h (0 Bft)
12.04.2019 05:24 2,3 °C 89 % 1016,2 hPa 0,0 mm 0,0 km/h (0 Bft) N 11 ° 0 min 0,000 mm 0,0 UV-I 0 W/m² 0,7 °C 2,3 °C 0,0 km/h (0 Bft)
12.04.2019 05:25 2,3 °C 89 % 1016,2 hPa 0,0 mm 0,0 km/h (0 Bft) N 11 ° 0 min 0,000 mm 0,0 UV-I 0 W/m² 0,7 °C 2,3 °C 0,0 km/h (0 Bft)
12.04.2019 05:26 2,3 °C 89 % 1016,3 hPa 0,0 mm 0,0 km/h (0 Bft) N 11 ° 0 min 0,000 mm 0,0 UV-I 0 W/m² 0,7 °C 2,3 °C 0,0 km/h (0 Bft)
12.04.2019 05:27 2,3 °C 89 % 1016,2 hPa 0,0 mm 0,0 km/h (0 Bft) N 11 ° 0 min 0,000 mm 0,0 UV-I 0 W/m² 0,7 °C 2,3 °C 0,0 km/h (0 Bft)
12.04.2019 05:28 2,3 °C 89 % 1016,3 hPa 0,0 mm 0,0 km/h (0 Bft) N 11 ° 0 min 0,000 mm 0,0 UV-I 0 W/m² 0,7 °C 2,3 °C 0,0 km/h (0 Bft)
12.04.2019 05:29 2,3 °C 89 % 1016,3 hPa 0,0 mm 0,6 km/h (0 Bft) N-NO 23 ° 0 min 0,000 mm 0,0 UV-I 0 W/m² 0,7 °C 2,3 °C 3,2 km/h (1 Bft)
12.04.2019 05:30 2,3 °C 89 % 1016,2 hPa 0,0 mm 1,0 km/h (0 Bft) N-NO 23 ° 0 min 0,000 mm 0,0 UV-I 0 W/m² 0,7 °C 2,3 °C 3,2 km/h (1 Bft)
12.04.2019 05:31 2,3 °C 89 % 1016,2 hPa 0,0 mm 0,0 km/h (0 Bft) N-NO 23 ° 0 min 0,000 mm 0,0 UV-I 0 W/m² 0,7 °C 2,3 °C 0,0 km/h (0 Bft)
12.04.2019 05:32 2,3 °C 89 % 1016,2 hPa 0,0 mm 0,0 km/h (0 Bft) N-NO 23 ° 0 min 0,000 mm 0,0 UV-I 0 W/m² 0,7 °C 2,3 °C 0,0 km/h (0 Bft)
12.04.2019 05:33 2,3 °C 89 % 1016,2 hPa 0,0 mm 0,0 km/h (0 Bft) N-NO 23 ° 0 min 0,000 mm 0,0 UV-I 0 W/m² 0,7 °C 2,3 °C 0,0 km/h (0 Bft)
12.04.2019 05:34 2,3 °C 89 % 1016,3 hPa 0,0 mm 0,0 km/h (0 Bft) N-NO 23 ° 0 min 0,000 mm 0,0 UV-I 0 W/m² 0,7 °C 2,3 °C 0,0 km/h (0 Bft)
12.04.2019 05:35 2,3 °C 89 % 1016,2 hPa 0,0 mm 0,0 km/h (0 Bft) N-NO 23 ° 0 min 0,000 mm 0,0 UV-I 0 W/m² 0,7 °C 2,3 °C 0,0 km/h (0 Bft)
12.04.2019 05:36 2,3 °C 89 % 1016,2 hPa 0,0 mm 0,0 km/h (0 Bft) N-NO 23 ° 0 min 0,000 mm 0,0 UV-I 0 W/m² 0,7 °C 2,3 °C 0,0 km/h (0 Bft)
12.04.2019 05:37 2,3 °C 89 % 1016,3 hPa 0,0 mm 0,0 km/h (0 Bft) N-NO 23 ° 0 min 0,000 mm 0,0 UV-I 0 W/m² 0,7 °C 2,3 °C 0,0 km/h (0 Bft)
12.04.2019 05:38 2,3 °C 89 % 1016,3 hPa 0,0 mm 0,0 km/h (0 Bft) N-NO 23 ° 0 min 0,000 mm 0,0 UV-I 0 W/m² 0,7 °C 2,3 °C 0,0 km/h (0 Bft)
12.04.2019 05:39 2,3 °C 89 % 1016,3 hPa 0,0 mm 0,0 km/h (0 Bft) N-NO 23 ° 0 min 0,000 mm 0,0 UV-I 0 W/m² 0,7 °C 2,3 °C 0,0 km/h (0 Bft)
12.04.2019 05:40 2,3 °C 89 % 1016,3 hPa 0,0 mm 0,0 km/h (0 Bft) N-NO 23 ° 0 min 0,000 mm 0,0 UV-I 0 W/m² 0,7 °C 2,3 °C 0,0 km/h (0 Bft)
12.04.2019 05:41 2,3 °C 89 % 1016,3 hPa 0,0 mm 0,0 km/h (0 Bft) N-NO 23 ° 0 min 0,000 mm 0,0 UV-I 0 W/m² 0,7 °C 2,3 °C 0,0 km/h (0 Bft)
12.04.2019 05:42 2,3 °C 89 % 1016,3 hPa 0,0 mm 0,0 km/h (0 Bft) N-NO 23 ° 0 min 0,000 mm 0,0 UV-I 0 W/m² 0,7 °C 2,3 °C 0,0 km/h (0 Bft)
12.04.2019 05:43 2,3 °C 89 % 1016,3 hPa 0,0 mm 0,0 km/h (0 Bft) N-NO 23 ° 0 min 0,000 mm 0,0 UV-I 0 W/m² 0,7 °C 2,3 °C 0,0 km/h (0 Bft)
12.04.2019 05:44 2,2 °C 89 % 1016,3 hPa 0,0 mm 0,0 km/h (0 Bft) N-NO 23 ° 0 min 0,000 mm 0,0 UV-I 0 W/m² 0,6 °C 2,2 °C 0,0 km/h (0 Bft)
12.04.2019 05:45 2,3 °C 90 % 1016,3 hPa 0,0 mm 0,0 km/h (0 Bft) N-NO 23 ° 0 min 0,000 mm 0,0 UV-I 0 W/m² 0,8 °C 2,3 °C 0,0 km/h (0 Bft)
12.04.2019 05:46 2,2 °C 90 % 1016,3 hPa 0,0 mm 0,0 km/h (0 Bft) N-NO 23 ° 0 min 0,000 mm 0,0 UV-I 0 W/m² 0,7 °C 2,2 °C 0,0 km/h (0 Bft)
12.04.2019 05:47 2,2 °C 90 % 1016,3 hPa 0,0 mm 0,0 km/h (0 Bft) N-NO 24 ° 0 min 0,000 mm 0,0 UV-I 0 W/m² 0,7 °C 2,2 °C 0,0 km/h (0 Bft)
12.04.2019 05:48 2,2 °C 90 % 1016,3 hPa 0,0 mm 0,0 km/h (0 Bft) N-NO 23 ° 0 min 0,000 mm 0,0 UV-I 0 W/m² 0,7 °C 2,2 °C 0,0 km/h (0 Bft)
12.04.2019 05:49 2,2 °C 90 % 1016,3 hPa 0,0 mm 0,0 km/h (0 Bft) N-NO 23 ° 0 min 0,000 mm 0,0 UV-I 0 W/m² 0,7 °C 2,2 °C 0,0 km/h (0 Bft)
12.04.2019 05:50 2,2 °C 90 % 1016,3 hPa 0,0 mm 0,0 km/h (0 Bft) N-NO 24 ° 0 min 0,000 mm 0,0 UV-I 0 W/m² 0,7 °C 2,2 °C 0,0 km/h (0 Bft)
12.04.2019 05:51 2,2 °C 90 % 1016,3 hPa 0,0 mm 0,0 km/h (0 Bft) N-NO 24 ° 0 min 0,000 mm 0,0 UV-I 0 W/m² 0,7 °C 2,2 °C 0,0 km/h (0 Bft)
12.04.2019 05:52 2,2 °C 90 % 1016,3 hPa 0,0 mm 0,0 km/h (0 Bft) N-NO 24 ° 0 min 0,000 mm 0,0 UV-I 0 W/m² 0,7 °C 2,2 °C 0,0 km/h (0 Bft)
12.04.2019 05:53 2,1 °C 90 % 1016,3 hPa 0,0 mm 0,0 km/h (0 Bft) N-NO 24 ° 0 min 0,000 mm 0,0 UV-I 0 W/m² 0,6 °C 2,1 °C 0,0 km/h (0 Bft)
12.04.2019 05:54 2,1 °C 90 % 1016,3 hPa 0,0 mm 0,0 km/h (0 Bft) N-NO 24 ° 0 min 0,000 mm 0,0 UV-I 0 W/m² 0,6 °C 2,1 °C 0,0 km/h (0 Bft)
12.04.2019 05:55 2,2 °C 90 % 1016,3 hPa 0,0 mm 0,0 km/h (0 Bft) N-NO 24 ° 0 min 0,000 mm 0,0 UV-I 0 W/m² 0,7 °C 2,2 °C 0,0 km/h (0 Bft)
12.04.2019 05:56 2,1 °C 90 % 1016,3 hPa 0,0 mm 0,0 km/h (0 Bft) N-NO 24 ° 0 min 0,000 mm 0,0 UV-I 0 W/m² 0,6 °C 2,1 °C 0,0 km/h (0 Bft)
12.04.2019 05:57 2,1 °C 90 % 1016,3 hPa 0,0 mm 0,1 km/h (0 Bft) NO 51 ° 0 min 0,000 mm 0,0 UV-I 0 W/m² 0,6 °C 2,1 °C 1,6 km/h (1 Bft)
12.04.2019 05:58 2,1 °C 90 % 1016,3 hPa 0,0 mm 1,0 km/h (0 Bft) NO 51 ° 0 min 0,000 mm 0,0 UV-I 0 W/m² 0,6 °C 2,1 °C 3,2 km/h (1 Bft)
12.04.2019 05:59 2,1 °C 90 % 1016,3 hPa 0,0 mm 0,0 km/h (0 Bft) NO 51 ° 0 min 0,000 mm 0,0 UV-I 0 W/m² 0,6 °C 2,1 °C 0,0 km/h (0 Bft)
12.04.2019 06:00 2,1 °C 90 % 1016,3 hPa 0,0 mm 0,0 km/h (0 Bft) NO 51 ° 0 min 0,000 mm 0,0 UV-I 0 W/m² 0,6 °C 2,1 °C 0,0 km/h (0 Bft)
12.04.2019 06:01 2,1 °C 90 % 1016,2 hPa 0,0 mm 0,0 km/h (0 Bft) NO 51 ° 0 min 0,000 mm 0,0 UV-I 0 W/m² 0,6 °C 2,1 °C 0,0 km/h (0 Bft)
12.04.2019 06:02 2,2 °C 90 % 1016,2 hPa 0,0 mm 0,0 km/h (0 Bft) NO 51 ° 0 min 0,000 mm 0,0 UV-I 0 W/m² 0,7 °C 2,2 °C 0,0 km/h (0 Bft)
12.04.2019 06:03 2,2 °C 90 % 1016,2 hPa 0,0 mm 0,0 km/h (0 Bft) NO 51 ° 0 min 0,000 mm 0,0 UV-I 0 W/m² 0,7 °C 2,2 °C 0,0 km/h (0 Bft)
12.04.2019 06:04 2,2 °C 90 % 1016,2 hPa 0,0 mm 0,3 km/h (0 Bft) NO 51 ° 0 min 0,000 mm 0,0 UV-I 0 W/m² 0,7 °C 2,2 °C 1,6 km/h (1 Bft)
12.04.2019 06:05 2,2 °C 90 % 1016,2 hPa 0,0 mm 0,0 km/h (0 Bft) NO 51 ° 0 min 0,000 mm 0,0 UV-I 0 W/m² 0,7 °C 2,2 °C 0,0 km/h (0 Bft)
12.04.2019 06:06 2,1 °C 90 % 1016,2 hPa 0,0 mm 0,0 km/h (0 Bft) NO 51 ° 0 min 0,000 mm 0,0 UV-I 0 W/m² 0,6 °C 2,1 °C 0,0 km/h (0 Bft)
12.04.2019 06:07 2,1 °C 90 % 1016,2 hPa 0,0 mm 0,0 km/h (0 Bft) NO 51 ° 0 min 0,000 mm 0,0 UV-I 0 W/m² 0,6 °C 2,1 °C 0,0 km/h (0 Bft)
12.04.2019 06:08 2,1 °C 90 % 1016,2 hPa 0,0 mm 0,0 km/h (0 Bft) NO 51 ° 0 min 0,000 mm 0,0 UV-I 0 W/m² 0,6 °C 2,1 °C 0,0 km/h (0 Bft)
12.04.2019 06:09 2,1 °C 90 % 1016,2 hPa 0,0 mm 0,0 km/h (0 Bft) NO 51 ° 0 min 0,000 mm 0,0 UV-I 0 W/m² 0,6 °C 2,1 °C 0,0 km/h (0 Bft)
12.04.2019 06:10 2,1 °C 90 % 1016,2 hPa 0,0 mm 0,0 km/h (0 Bft) NO 51 ° 0 min 0,000 mm 0,0 UV-I 0 W/m² 0,6 °C 2,1 °C 0,0 km/h (0 Bft)
12.04.2019 06:11 2,1 °C 90 % 1016,2 hPa 0,0 mm 0,0 km/h (0 Bft) NO 51 ° 0 min 0,000 mm 0,0 UV-I 0 W/m² 0,6 °C 2,1 °C 0,0 km/h (0 Bft)
12.04.2019 06:12 2,1 °C 90 % 1016,2 hPa 0,0 mm 0,0 km/h (0 Bft) NO 51 ° 0 min 0,000 mm 0,0 UV-I 0 W/m² 0,6 °C 2,1 °C 0,0 km/h (0 Bft)
12.04.2019 06:13 2,1 °C 90 % 1016,2 hPa 0,0 mm 0,0 km/h (0 Bft) NO 51 ° 0 min 0,000 mm 0,0 UV-I 0 W/m² 0,6 °C 2,1 °C 0,0 km/h (0 Bft)
12.04.2019 06:14 2,1 °C 90 % 1016,2 hPa 0,0 mm 0,0 km/h (0 Bft) NO 51 ° 0 min 0,000 mm 0,0 UV-I 0 W/m² 0,6 °C 2,1 °C 0,0 km/h (0 Bft)
12.04.2019 06:15 2,1 °C 90 % 1016,3 hPa 0,0 mm 0,0 km/h (0 Bft) NO 51 ° 0 min 0,000 mm 0,0 UV-I 0 W/m² 0,6 °C 2,1 °C 0,0 km/h (0 Bft)
12.04.2019 06:16 2,1 °C 90 % 1016,3 hPa 0,0 mm 0,0 km/h (0 Bft) NO 51 ° 0 min 0,000 mm 0,0 UV-I 0 W/m² 0,6 °C 2,1 °C 0,0 km/h (0 Bft)
12.04.2019 06:17 2,0 °C 90 % 1016,2 hPa 0,0 mm 0,0 km/h (0 Bft) NO 51 ° 0 min 0,000 mm 0,0 UV-I 0 W/m² 0,5 °C 2,0 °C 0,0 km/h (0 Bft)
12.04.2019 06:18 2,0 °C 90 % 1016,2 hPa 0,0 mm 0,0 km/h (0 Bft) NO 51 ° 0 min 0,000 mm 0,0 UV-I 0 W/m² 0,5 °C 2,0 °C 0,0 km/h (0 Bft)
12.04.2019 06:19 2,0 °C 90 % 1016,2 hPa 0,0 mm 0,0 km/h (0 Bft) NO 51 ° 0 min 0,000 mm 0,0 UV-I 0 W/m² 0,5 °C 2,0 °C 0,0 km/h (0 Bft)
12.04.2019 06:20 2,0 °C 90 % 1016,3 hPa 0,0 mm 0,0 km/h (0 Bft) NO 51 ° 0 min 0,000 mm 0,0 UV-I 0 W/m² 0,5 °C 2,0 °C 0,0 km/h (0 Bft)
12.04.2019 06:21 1,9 °C 90 % 1016,3 hPa 0,0 mm 0,0 km/h (0 Bft) NO 51 ° 0 min 0,000 mm 0,0 UV-I 0 W/m² 0,4 °C 1,9 °C 0,0 km/h (0 Bft)
12.04.2019 06:22 1,9 °C 90 % 1016,3 hPa 0,0 mm 0,0 km/h (0 Bft) NO 51 ° 0 min 0,000 mm 0,0 UV-I 0 W/m² 0,4 °C 1,9 °C 0,0 km/h (0 Bft)
12.04.2019 06:23 1,9 °C 90 % 1016,3 hPa 0,0 mm 0,0 km/h (0 Bft) NO 51 ° 0 min 0,000 mm 0,0 UV-I 0 W/m² 0,4 °C 1,9 °C 0,0 km/h (0 Bft)
12.04.2019 06:24 1,9 °C 91 % 1016,3 hPa 0,0 mm 0,0 km/h (0 Bft) NO 51 ° 0 min 0,000 mm 0,0 UV-I 0 W/m² 0,6 °C 1,9 °C 0,0 km/h (0 Bft)
12.04.2019 06:25 1,9 °C 91 % 1016,3 hPa 0,0 mm 0,0 km/h (0 Bft) NO 51 ° 0 min 0,000 mm 0,0 UV-I 0 W/m² 0,6 °C 1,9 °C 0,0 km/h (0 Bft)
12.04.2019 06:26 1,9 °C 91 % 1016,3 hPa 0,0 mm 0,0 km/h (0 Bft) NO 51 ° 0 min 0,000 mm 0,0 UV-I 0 W/m² 0,6 °C 1,9 °C 0,0 km/h (0 Bft)
12.04.2019 06:27 1,9 °C 91 % 1016,3 hPa 0,0 mm 0,0 km/h (0 Bft) NO 51 ° 0 min 0,000 mm 0,0 UV-I 0 W/m² 0,6 °C 1,9 °C 0,0 km/h (0 Bft)
12.04.2019 06:28 1,9 °C 91 % 1016,3 hPa 0,0 mm 0,0 km/h (0 Bft) NO 51 ° 0 min 0,000 mm 0,0 UV-I 0 W/m² 0,6 °C 1,9 °C 0,0 km/h (0 Bft)
12.04.2019 06:29 1,9 °C 91 % 1016,2 hPa 0,0 mm 0,0 km/h (0 Bft) NO 51 ° 0 min 0,000 mm 0,0 UV-I 0 W/m² 0,6 °C 1,9 °C 0,0 km/h (0 Bft)
12.04.2019 06:30 1,9 °C 91 % 1016,2 hPa 0,0 mm 0,0 km/h (0 Bft) NO 51 ° 0 min 0,000 mm 0,0 UV-I 0 W/m² 0,6 °C 1,9 °C 0,0 km/h (0 Bft)
12.04.2019 06:31 1,9 °C 91 % 1016,2 hPa 0,0 mm 0,0 km/h (0 Bft) NO 51 ° 0 min 0,000 mm 0,0 UV-I 0 W/m² 0,6 °C 1,9 °C 0,0 km/h (0 Bft)
12.04.2019 06:32 1,9 °C 91 % 1016,2 hPa 0,0 mm 0,0 km/h (0 Bft) NO 51 ° 0 min 0,000 mm 0,0 UV-I 0 W/m² 0,6 °C 1,9 °C 0,0 km/h (0 Bft)
12.04.2019 06:33 1,9 °C 91 % 1016,2 hPa 0,0 mm 0,0 km/h (0 Bft) NO 51 ° 0 min 0,000 mm 0,0 UV-I 0 W/m² 0,6 °C 1,9 °C 0,0 km/h (0 Bft)
12.04.2019 06:34 1,9 °C 91 % 1016,3 hPa 0,0 mm 0,0 km/h (0 Bft) NO 51 ° 0 min 0,000 mm 0,0 UV-I 0 W/m² 0,6 °C 1,9 °C 0,0 km/h (0 Bft)
12.04.2019 06:35 1,9 °C 91 % 1016,2 hPa 0,0 mm 0,0 km/h (0 Bft) O 86 ° 0 min 0,000 mm 0,0 UV-I 0 W/m² 0,6 °C 1,9 °C 0,0 km/h (0 Bft)
12.04.2019 06:36 1,9 °C 91 % 1016,2 hPa 0,0 mm 0,0 km/h (0 Bft) O 86 ° 0 min 0,000 mm 0,0 UV-I 0 W/m² 0,6 °C 1,9 °C 0,0 km/h (0 Bft)
12.04.2019 06:37 1,8 °C 91 % 1016,2 hPa 0,0 mm 0,0 km/h (0 Bft) O 86 ° 0 min 0,000 mm 0,0 UV-I 0 W/m² 0,5 °C 1,8 °C 0,0 km/h (0 Bft)
12.04.2019 06:38 1,8 °C 91 % 1016,2 hPa 0,0 mm 0,0 km/h (0 Bft) O 86 ° 0 min 0,000 mm 0,0 UV-I 0 W/m² 0,5 °C 1,8 °C 0,0 km/h (0 Bft)
12.04.2019 06:39 1,8 °C 91 % 1016,2 hPa 0,0 mm 0,0 km/h (0 Bft) O 86 ° 0 min 0,000 mm 0,0 UV-I 0 W/m² 0,5 °C 1,8 °C 0,0 km/h (0 Bft)
12.04.2019 06:40 1,8 °C 91 % 1016,2 hPa 0,0 mm 0,0 km/h (0 Bft) O 86 ° 0 min 0,000 mm 0,0 UV-I 0 W/m² 0,5 °C 1,8 °C 0,0 km/h (0 Bft)
12.04.2019 06:41 1,8 °C 91 % 1016,2 hPa 0,0 mm 0,0 km/h (0 Bft) O 86 ° 0 min 0,000 mm 0,0 UV-I 0 W/m² 0,5 °C 1,8 °C 0,0 km/h (0 Bft)
12.04.2019 06:42 1,9 °C 91 % 1016,3 hPa 0,0 mm 0,0 km/h (0 Bft) O 86 ° 0 min 0,000 mm 0,0 UV-I 0 W/m² 0,6 °C 1,9 °C 0,0 km/h (0 Bft)
12.04.2019 06:43 1,8 °C 91 % 1016,2 hPa 0,0 mm 0,0 km/h (0 Bft) O 86 ° 0 min 0,000 mm 0,0 UV-I 0 W/m² 0,5 °C 1,8 °C 0,0 km/h (0 Bft)
12.04.2019 06:44 1,9 °C 91 % 1016,2 hPa 0,0 mm 0,0 km/h (0 Bft) O 86 ° 0 min 0,000 mm 0,0 UV-I 0 W/m² 0,6 °C 1,9 °C 0,0 km/h (0 Bft)
12.04.2019 06:45 1,9 °C 91 % 1016,3 hPa 0,0 mm 0,0 km/h (0 Bft) O 86 ° 0 min 0,000 mm 0,0 UV-I 0 W/m² 0,6 °C 1,9 °C 0,0 km/h (0 Bft)
12.04.2019 06:46 1,9 °C 91 % 1016,2 hPa 0,0 mm 0,0 km/h (0 Bft) O 86 ° 0 min 0,000 mm 0,0 UV-I 0 W/m² 0,6 °C 1,9 °C 0,0 km/h (0 Bft)
12.04.2019 06:47 1,8 °C 91 % 1016,2 hPa 0,0 mm 0,0 km/h (0 Bft) O 86 ° 0 min 0,000 mm 0,0 UV-I 0 W/m² 0,5 °C 1,8 °C 0,0 km/h (0 Bft)
12.04.2019 06:48 1,9 °C 91 % 1016,3 hPa 0,0 mm 0,0 km/h (0 Bft) O 86 ° 0 min 0,000 mm 0,0 UV-I 0 W/m² 0,6 °C 1,9 °C 0,0 km/h (0 Bft)
12.04.2019 06:49 1,9 °C 91 % 1016,2 hPa 0,0 mm 0,0 km/h (0 Bft) O 86 ° 0 min 0,000 mm 0,0 UV-I 0 W/m² 0,6 °C 1,9 °C 0,0 km/h (0 Bft)
12.04.2019 06:50 1,8 °C 91 % 1016,3 hPa 0,0 mm 0,0 km/h (0 Bft) O 86 ° 0 min 0,000 mm 0,0 UV-I 0 W/m² 0,5 °C 1,8 °C 0,0 km/h (0 Bft)
12.04.2019 06:51 1,8 °C 91 % 1016,2 hPa 0,0 mm 0,0 km/h (0 Bft) O 86 ° 0 min 0,000 mm 0,0 UV-I 0 W/m² 0,5 °C 1,8 °C 0,0 km/h (0 Bft)
12.04.2019 06:52 1,8 °C 91 % 1016,3 hPa 0,0 mm 0,0 km/h (0 Bft) O 86 ° 0 min 0,000 mm 0,0 UV-I 0 W/m² 0,5 °C 1,8 °C 0,0 km/h (0 Bft)
12.04.2019 06:53 1,8 °C 91 % 1016,3 hPa 0,0 mm 0,0 km/h (0 Bft) O 86 ° 0 min 0,000 mm 0,0 UV-I 0 W/m² 0,5 °C 1,8 °C 0,0 km/h (0 Bft)
12.04.2019 06:54 1,8 °C 91 % 1016,3 hPa 0,0 mm 0,0 km/h (0 Bft) O 86 ° 0 min 0,000 mm 0,0 UV-I 0 W/m² 0,5 °C 1,8 °C 0,0 km/h (0 Bft)
12.04.2019 06:55 1,8 °C 91 % 1016,3 hPa 0,0 mm 0,0 km/h (0 Bft) O 86 ° 0 min 0,000 mm 0,0 UV-I 0 W/m² 0,5 °C 1,8 °C 0,0 km/h (0 Bft)
12.04.2019 06:56 1,8 °C 91 % 1016,3 hPa 0,0 mm 0,0 km/h (0 Bft) O 86 ° 0 min 0,000 mm 0,0 UV-I 0 W/m² 0,5 °C 1,8 °C 0,0 km/h (0 Bft)
12.04.2019 06:57 1,8 °C 91 % 1016,3 hPa 0,0 mm 0,0 km/h (0 Bft) O 86 ° 0 min 0,000 mm 0,0 UV-I 0 W/m² 0,5 °C 1,8 °C 0,0 km/h (0 Bft)
12.04.2019 06:58 1,8 °C 91 % 1016,3 hPa 0,0 mm 0,0 km/h (0 Bft) O 86 ° 0 min 0,000 mm 0,0 UV-I 0 W/m² 0,5 °C 1,8 °C 0,0 km/h (0 Bft)
12.04.2019 06:59 1,8 °C 91 % 1016,3 hPa 0,0 mm 0,0 km/h (0 Bft) O 86 ° 0 min 0,000 mm 0,0 UV-I 0 W/m² 0,5 °C 1,8 °C 0,0 km/h (0 Bft)
12.04.2019 07:00 1,8 °C 91 % 1016,3 hPa 0,0 mm 0,3 km/h (0 Bft) O 86 ° 0 min 0,000 mm 0,0 UV-I 0 W/m² 0,5 °C 1,8 °C 1,6 km/h (1 Bft)
12.04.2019 07:01 1,8 °C 91 % 1016,3 hPa 0,0 mm 0,0 km/h (0 Bft) O 86 ° 0 min 0,000 mm 0,0 UV-I 5 W/m² 0,5 °C 1,8 °C 0,0 km/h (0 Bft)
12.04.2019 07:02 1,8 °C 91 % 1016,4 hPa 0,0 mm 0,0 km/h (0 Bft) O 86 ° 0 min 0,000 mm 0,0 UV-I 5 W/m² 0,5 °C 1,8 °C 0,0 km/h (0 Bft)
12.04.2019 07:03 1,8 °C 91 % 1016,4 hPa 0,0 mm 0,0 km/h (0 Bft) O 86 ° 0 min 0,000 mm 0,0 UV-I 5 W/m² 0,5 °C 1,8 °C 0,0 km/h (0 Bft)
12.04.2019 07:04 1,8 °C 91 % 1016,3 hPa 0,0 mm 0,0 km/h (0 Bft) O-NO 68 ° 0 min 0,000 mm 0,0 UV-I 5 W/m² 0,5 °C 1,8 °C 0,0 km/h (0 Bft)
12.04.2019 07:05 1,8 °C 91 % 1016,4 hPa 0,0 mm 0,0 km/h (0 Bft) O-NO 68 ° 0 min 0,000 mm 0,0 UV-I 5 W/m² 0,5 °C 1,8 °C 0,0 km/h (0 Bft)
12.04.2019 07:06 1,8 °C 91 % 1016,4 hPa 0,0 mm 0,0 km/h (0 Bft) O-NO 69 ° 0 min 0,000 mm 0,0 UV-I 5 W/m² 0,5 °C 1,8 °C 0,0 km/h (0 Bft)
12.04.2019 07:07 1,8 °C 91 % 1016,4 hPa 0,0 mm 0,0 km/h (0 Bft) O-NO 69 ° 0 min 0,000 mm 0,0 UV-I 5 W/m² 0,5 °C 1,8 °C 0,0 km/h (0 Bft)
12.04.2019 07:08 1,8 °C 91 % 1016,5 hPa 0,0 mm 0,0 km/h (0 Bft) O 88 ° 0 min 0,000 mm 0,0 UV-I 5 W/m² 0,5 °C 1,8 °C 0,0 km/h (0 Bft)
12.04.2019 07:09 1,8 °C 91 % 1016,4 hPa 0,0 mm 0,0 km/h (0 Bft) O 88 ° 0 min 0,000 mm 0,0 UV-I 5 W/m² 0,5 °C 1,8 °C 0,0 km/h (0 Bft)
12.04.2019 07:10 1,8 °C 91 % 1016,5 hPa 0,0 mm 0,0 km/h (0 Bft) O 88 ° 0 min 0,000 mm 0,0 UV-I 5 W/m² 0,5 °C 1,8 °C 0,0 km/h (0 Bft)
12.04.2019 07:11 1,8 °C 91 % 1016,4 hPa 0,0 mm 0,0 km/h (0 Bft) O 88 ° 0 min 0,000 mm 0,0 UV-I 5 W/m² 0,5 °C 1,8 °C 0,0 km/h (0 Bft)
12.04.2019 07:12 1,8 °C 91 % 1016,5 hPa 0,0 mm 0,0 km/h (0 Bft) O 88 ° 0 min 0,000 mm 0,0 UV-I 5 W/m² 0,5 °C 1,8 °C 0,0 km/h (0 Bft)
12.04.2019 07:13 1,8 °C 91 % 1016,5 hPa 0,0 mm 0,0 km/h (0 Bft) O 87 ° 0 min 0,000 mm 0,0 UV-I 7 W/m² 0,5 °C 1,8 °C 0,0 km/h (0 Bft)
12.04.2019 07:14 1,8 °C 91 % 1016,5 hPa 0,0 mm 0,0 km/h (0 Bft) O 87 ° 0 min 0,000 mm 0,0 UV-I 7 W/m² 0,5 °C 1,8 °C 0,0 km/h (0 Bft)
12.04.2019 07:15 1,8 °C 91 % 1016,5 hPa 0,0 mm 0,0 km/h (0 Bft) O 88 ° 0 min 0,000 mm 0,0 UV-I 7 W/m² 0,5 °C 1,8 °C 0,0 km/h (0 Bft)
12.04.2019 07:16 1,8 °C 91 % 1016,5 hPa 0,0 mm 0,0 km/h (0 Bft) NO 56 ° 0 min 0,000 mm 0,0 UV-I 7 W/m² 0,5 °C 1,8 °C 0,0 km/h (0 Bft)
12.04.2019 07:17 1,8 °C 91 % 1016,5 hPa 0,0 mm 0,0 km/h (0 Bft) O-NO 59 ° 0 min 0,000 mm 0,0 UV-I 7 W/m² 0,5 °C 1,8 °C 0,0 km/h (0 Bft)
12.04.2019 07:18 1,8 °C 91 % 1016,5 hPa 0,0 mm 0,0 km/h (0 Bft) O-NO 63 ° 0 min 0,000 mm 0,0 UV-I 7 W/m² 0,5 °C 1,8 °C 0,0 km/h (0 Bft)
12.04.2019 07:19 1,8 °C 91 % 1016,5 hPa 0,0 mm 0,0 km/h (0 Bft) O-NO 77 ° 0 min 0,000 mm 0,0 UV-I 9 W/m² 0,5 °C 1,8 °C 0,0 km/h (0 Bft)
12.04.2019 07:20 1,8 °C 91 % 1016,5 hPa 0,0 mm 0,0 km/h (0 Bft) O-NO 77 ° 0 min 0,000 mm 0,0 UV-I 9 W/m² 0,5 °C 1,8 °C 0,0 km/h (0 Bft)
12.04.2019 07:21 1,8 °C 91 % 1016,5 hPa 0,0 mm 0,0 km/h (0 Bft) O-NO 77 ° 0 min 0,000 mm 0,0 UV-I 9 W/m² 0,5 °C 1,8 °C 0,0 km/h (0 Bft)
12.04.2019 07:22 1,8 °C 91 % 1016,5 hPa 0,0 mm 0,0 km/h (0 Bft) O-NO 77 ° 0 min 0,000 mm 0,0 UV-I 9 W/m² 0,5 °C 1,8 °C 0,0 km/h (0 Bft)
12.04.2019 07:23 1,8 °C 91 % 1016,5 hPa 0,0 mm 0,0 km/h (0 Bft) O-NO 77 ° 0 min 0,000 mm 0,0 UV-I 11 W/m² 0,5 °C 1,8 °C 0,0 km/h (0 Bft)
12.04.2019 07:24 1,8 °C 91 % 1016,5 hPa 0,0 mm 0,0 km/h (0 Bft) O-NO 77 ° 0 min 0,000 mm 0,0 UV-I 11 W/m² 0,5 °C 1,8 °C 0,0 km/h (0 Bft)
12.04.2019 07:25 1,8 °C 91 % 1016,5 hPa 0,0 mm 0,0 km/h (0 Bft) O-NO 77 ° 0 min 0,000 mm 0,0 UV-I 12 W/m² 0,5 °C 1,8 °C 0,0 km/h (0 Bft)
12.04.2019 07:26 1,8 °C 91 % 1016,5 hPa 0,0 mm 0,0 km/h (0 Bft) O-NO 77 ° 0 min 0,000 mm 0,0 UV-I 12 W/m² 0,5 °C 1,8 °C 0,0 km/h (0 Bft)
12.04.2019 07:27 1,8 °C 91 % 1016,5 hPa 0,0 mm 0,0 km/h (0 Bft) O-NO 77 ° 0 min 0,000 mm 0,0 UV-I 14 W/m² 0,5 °C 1,8 °C 0,0 km/h (0 Bft)
12.04.2019 07:28 1,8 °C 91 % 1016,5 hPa 0,0 mm 0,0 km/h (0 Bft) O-NO 77 ° 0 min 0,000 mm 0,0 UV-I 14 W/m² 0,5 °C 1,8 °C 0,0 km/h (0 Bft)
12.04.2019 07:29 1,8 °C 91 % 1016,5 hPa 0,0 mm 0,0 km/h (0 Bft) O-NO 77 ° 0 min 0,000 mm 0,0 UV-I 14 W/m² 0,5 °C 1,8 °C 0,0 km/h (0 Bft)
12.04.2019 07:30 1,8 °C 91 % 1016,5 hPa 0,0 mm 0,0 km/h (0 Bft) O-NO 77 ° 0 min 0,000 mm 0,0 UV-I 16 W/m² 0,5 °C 1,8 °C 0,0 km/h (0 Bft)
12.04.2019 07:31 1,8 °C 91 % 1016,5 hPa 0,0 mm 0,0 km/h (0 Bft) O-NO 77 ° 0 min 0,000 mm 0,0 UV-I 16 W/m² 0,5 °C 1,8 °C 0,0 km/h (0 Bft)
12.04.2019 07:32 1,8 °C 91 % 1016,5 hPa 0,0 mm 0,0 km/h (0 Bft) O-NO 76 ° 0 min 0,000 mm 0,0 UV-I 16 W/m² 0,5 °C 1,8 °C 0,0 km/h (0 Bft)
12.04.2019 07:33 1,8 °C 91 % 1016,5 hPa 0,0 mm 0,0 km/h (0 Bft) O-NO 76 ° 0 min 0,000 mm 0,0 UV-I 16 W/m² 0,5 °C 1,8 °C 0,0 km/h (0 Bft)
12.04.2019 07:34 1,8 °C 91 % 1016,5 hPa 0,0 mm 0,0 km/h (0 Bft) O 82 ° 0 min 0,000 mm 0,0 UV-I 18 W/m² 0,5 °C 1,8 °C 0,0 km/h (0 Bft)
12.04.2019 07:35 1,8 °C 91 % 1016,5 hPa 0,0 mm 0,0 km/h (0 Bft) O 82 ° 0 min 0,000 mm 0,0 UV-I 18 W/m² 0,5 °C 1,8 °C 0,0 km/h (0 Bft)
12.04.2019 07:36 1,8 °C 91 % 1016,5 hPa 0,0 mm 4,1 km/h (1 Bft) O-NO 58 ° 0 min 0,000 mm 0,0 UV-I 18 W/m² 0,5 °C 1,8 °C 6,4 km/h (2 Bft)
12.04.2019 07:37 1,8 °C 91 % 1016,5 hPa 0,0 mm 3,5 km/h (1 Bft) O-NO 65 ° 0 min 0,000 mm 0,0 UV-I 19 W/m² 0,5 °C 1,8 °C 4,8 km/h (1 Bft)
12.04.2019 07:38 1,8 °C 91 % 1016,5 hPa 0,0 mm 0,6 km/h (0 Bft) O-NO 65 ° 0 min 0,000 mm 0,0 UV-I 19 W/m² 0,5 °C 1,8 °C 3,2 km/h (1 Bft)
12.04.2019 07:39 1,8 °C 91 % 1016,5 hPa 0,0 mm 0,1 km/h (0 Bft) O-NO 65 ° 0 min 0,000 mm 0,0 UV-I 19 W/m² 0,5 °C 1,8 °C 1,6 km/h (1 Bft)
12.04.2019 07:40 1,8 °C 92 % 1016,5 hPa 0,0 mm 0,0 km/h (0 Bft) O-NO 65 ° 0 min 0,000 mm 0,0 UV-I 21 W/m² 0,6 °C 1,8 °C 0,0 km/h (0 Bft)
12.04.2019 07:41 1,8 °C 92 % 1016,5 hPa 0,0 mm 0,1 km/h (0 Bft) NO 53 ° 0 min 0,000 mm 0,0 UV-I 21 W/m² 0,6 °C 1,8 °C 1,6 km/h (1 Bft)
12.04.2019 07:42 1,8 °C 92 % 1016,5 hPa 0,0 mm 4,0 km/h (1 Bft) NO 53 ° 0 min 0,000 mm 0,0 UV-I 23 W/m² 0,6 °C 1,8 °C 6,4 km/h (2 Bft)
12.04.2019 07:43 1,8 °C 92 % 1016,5 hPa 0,0 mm 1,2 km/h (1 Bft) NO 56 ° 0 min 0,000 mm 0,0 UV-I 23 W/m² 0,6 °C 1,8 °C 3,2 km/h (1 Bft)
12.04.2019 07:44 1,8 °C 92 % 1016,4 hPa 0,0 mm 0,5 km/h (0 Bft) NO 56 ° 0 min 0,000 mm 0,0 UV-I 23 W/m² 0,6 °C 1,8 °C 3,2 km/h (1 Bft)
12.04.2019 07:45 1,8 °C 92 % 1016,4 hPa 0,0 mm 0,0 km/h (0 Bft) NO 56 ° 0 min 0,000 mm 0,0 UV-I 23 W/m² 0,6 °C 1,8 °C 0,0 km/h (0 Bft)
12.04.2019 07:46 1,8 °C 92 % 1016,4 hPa 0,0 mm 3,4 km/h (1 Bft) O-NO 69 ° 0 min 0,000 mm 0,0 UV-I 25 W/m² 0,6 °C 1,8 °C 6,4 km/h (2 Bft)
12.04.2019 07:47 1,8 °C 92 % 1016,4 hPa 0,0 mm 2,4 km/h (1 Bft) O 83 ° 0 min 0,000 mm 0,0 UV-I 23 W/m² 0,6 °C 1,8 °C 4,8 km/h (1 Bft)
12.04.2019 07:48 1,8 °C 92 % 1016,5 hPa 0,0 mm 0,1 km/h (0 Bft) O 83 ° 0 min 0,000 mm 0,0 UV-I 23 W/m² 0,6 °C 1,8 °C 1,6 km/h (1 Bft)
12.04.2019 07:49 1,8 °C 92 % 1016,4 hPa 0,0 mm 1,1 km/h (1 Bft) O 82 ° 0 min 0,000 mm 0,0 UV-I 23 W/m² 0,6 °C 1,8 °C 3,2 km/h (1 Bft)
12.04.2019 07:50 1,8 °C 92 % 1016,5 hPa 0,0 mm 2,7 km/h (1 Bft) O-NO 75 ° 0 min 0,000 mm 0,0 UV-I 23 W/m² 0,6 °C 1,8 °C 6,4 km/h (2 Bft)
12.04.2019 07:51 1,8 °C 92 % 1016,5 hPa 0,0 mm 3,0 km/h (1 Bft) O-NO 75 ° 0 min 0,000 mm 0,0 UV-I 23 W/m² 0,6 °C 1,8 °C 4,8 km/h (1 Bft)
12.04.2019 07:52 1,7 °C 92 % 1016,5 hPa 0,0 mm 4,1 km/h (1 Bft) O-NO 78 ° 0 min 0,000 mm 0,0 UV-I 21 W/m² 0,5 °C 1,7 °C 6,4 km/h (2 Bft)
12.04.2019 07:53 1,7 °C 92 % 1016,5 hPa 0,0 mm 3,5 km/h (1 Bft) O 92 ° 0 min 0,000 mm 0,0 UV-I 21 W/m² 0,5 °C 1,7 °C 4,8 km/h (1 Bft)
12.04.2019 07:54 1,7 °C 92 % 1016,5 hPa 0,0 mm 0,4 km/h (0 Bft) O 91 ° 0 min 0,000 mm 0,0 UV-I 23 W/m² 0,5 °C 1,7 °C 3,2 km/h (1 Bft)
12.04.2019 07:55 1,8 °C 92 % 1016,5 hPa 0,0 mm 2,7 km/h (1 Bft) O 82 ° 0 min 0,000 mm 0,0 UV-I 23 W/m² 0,6 °C 1,8 °C 4,8 km/h (1 Bft)
12.04.2019 07:56 1,8 °C 92 % 1016,5 hPa 0,0 mm 0,3 km/h (0 Bft) O 82 ° 0 min 0,000 mm 0,0 UV-I 23 W/m² 0,6 °C 1,8 °C 3,2 km/h (1 Bft)
12.04.2019 07:57 1,7 °C 92 % 1016,5 hPa 0,0 mm 0,1 km/h (0 Bft) O 82 ° 0 min 0,000 mm 0,0 UV-I 21 W/m² 0,5 °C 1,7 °C 1,6 km/h (1 Bft)
12.04.2019 07:58 1,8 °C 92 % 1016,5 hPa 0,0 mm 0,0 km/h (0 Bft) O 82 ° 0 min 0,000 mm 0,0 UV-I 21 W/m² 0,6 °C 1,8 °C 0,0 km/h (0 Bft)
12.04.2019 07:59 1,8 °C 92 % 1016,5 hPa 0,0 mm 0,7 km/h (0 Bft) O 81 ° 0 min 0,000 mm 0,0 UV-I 21 W/m² 0,6 °C 1,8 °C 3,2 km/h (1 Bft)
12.04.2019 08:00 1,8 °C 92 % 1016,5 hPa 0,0 mm 2,4 km/h (1 Bft) O-NO 60 ° 0 min 0,000 mm 0,0 UV-I 21 W/m² 0,6 °C 1,8 °C 6,4 km/h (2 Bft)
12.04.2019 08:01 1,8 °C 92 % 1016,5 hPa 0,0 mm 4,6 km/h (1 Bft) O-NO 71 ° 0 min 0,000 mm 0,0 UV-I 21 W/m² 0,6 °C 0,6 °C 8,0 km/h (2 Bft)
12.04.2019 08:02 1,8 °C 92 % 1016,6 hPa 0,0 mm 3,6 km/h (1 Bft) NO 49 ° 0 min 0,000 mm 0,0 UV-I 23 W/m² 0,6 °C 1,8 °C 6,4 km/h (2 Bft)
12.04.2019 08:03 1,7 °C 92 % 1016,5 hPa 0,0 mm 1,6 km/h (1 Bft) NO 49 ° 0 min 0,000 mm 0,0 UV-I 23 W/m² 0,5 °C 1,7 °C 4,8 km/h (1 Bft)
12.04.2019 08:04 1,8 °C 92 % 1016,6 hPa 0,0 mm 1,2 km/h (1 Bft) O 85 ° 0 min 0,000 mm 0,0 UV-I 23 W/m² 0,6 °C 1,8 °C 4,8 km/h (1 Bft)
12.04.2019 08:05 1,8 °C 92 % 1016,5 hPa 0,0 mm 4,2 km/h (1 Bft) O 85 ° 0 min 0,000 mm 0,0 UV-I 23 W/m² 0,6 °C 1,8 °C 6,4 km/h (2 Bft)
12.04.2019 08:06 1,8 °C 92 % 1016,6 hPa 0,0 mm 5,8 km/h (2 Bft) O 82 ° 0 min 0,000 mm 0,0 UV-I 25 W/m² 0,6 °C 0,1 °C 6,4 km/h (2 Bft)
12.04.2019 08:07 1,7 °C 92 % 1016,6 hPa 0,0 mm 1,7 km/h (1 Bft) O 86 ° 0 min 0,000 mm 0,0 UV-I 25 W/m² 0,5 °C 1,7 °C 4,8 km/h (1 Bft)
12.04.2019 08:08 1,7 °C 92 % 1016,6 hPa 0,0 mm 0,1 km/h (0 Bft) O 86 ° 0 min 0,000 mm 0,0 UV-I 26 W/m² 0,5 °C 1,7 °C 1,6 km/h (1 Bft)
12.04.2019 08:09 1,7 °C 92 % 1016,6 hPa 0,0 mm 1,8 km/h (1 Bft) O 80 ° 0 min 0,000 mm 0,0 UV-I 26 W/m² 0,5 °C 1,7 °C 4,8 km/h (1 Bft)
12.04.2019 08:10 1,7 °C 92 % 1016,5 hPa 0,0 mm 4,7 km/h (1 Bft) O-NO 61 ° 0 min 0,000 mm 0,0 UV-I 28 W/m² 0,5 °C 0,5 °C 8,0 km/h (2 Bft)
12.04.2019 08:11 1,7 °C 92 % 1016,5 hPa 0,0 mm 5,7 km/h (1 Bft) O-NO 63 ° 0 min 0,000 mm 0,0 UV-I 28 W/m² 0,5 °C 0,0 °C 11,3 km/h (2 Bft)
12.04.2019 08:12 1,7 °C 92 % 1016,5 hPa 0,0 mm 4,6 km/h (1 Bft) O 82 ° 0 min 0,000 mm 0,0 UV-I 30 W/m² 0,5 °C 0,5 °C 6,4 km/h (2 Bft)
12.04.2019 08:13 1,7 °C 92 % 1016,5 hPa 0,0 mm 4,4 km/h (1 Bft) O-NO 78 ° 0 min 0,000 mm 0,0 UV-I 30 W/m² 0,5 °C 1,7 °C 8,0 km/h (2 Bft)
12.04.2019 08:14 1,7 °C 92 % 1016,5 hPa 0,0 mm 6,1 km/h (2 Bft) O 86 ° 0 min 0,000 mm 0,0 UV-I 30 W/m² 0,5 °C -0,1 °C 11,3 km/h (2 Bft)
12.04.2019 08:15 1,7 °C 92 % 1016,5 hPa 0,0 mm 2,6 km/h (1 Bft) O 82 ° 0 min 0,000 mm 0,0 UV-I 30 W/m² 0,5 °C 1,7 °C 6,4 km/h (2 Bft)
12.04.2019 08:16 1,7 °C 91 % 1016,6 hPa 0,0 mm 4,1 km/h (1 Bft) NO 54 ° 0 min 0,000 mm 0,0 UV-I 30 W/m² 0,4 °C 1,7 °C 6,4 km/h (2 Bft)
12.04.2019 08:17 1,7 °C 91 % 1016,5 hPa 0,0 mm 4,2 km/h (1 Bft) O 81 ° 0 min 0,000 mm 0,0 UV-I 30 W/m² 0,4 °C 1,7 °C 6,4 km/h (2 Bft)
12.04.2019 08:18 1,7 °C 91 % 1016,6 hPa 0,0 mm 4,4 km/h (1 Bft) O 82 ° 0 min 0,000 mm 0,0 UV-I 32 W/m² 0,4 °C 1,7 °C 6,4 km/h (2 Bft)
12.04.2019 08:19 1,7 °C 91 % 1016,6 hPa 0,0 mm 4,7 km/h (1 Bft) O-NO 76 ° 0 min 0,000 mm 0,0 UV-I 32 W/m² 0,4 °C 0,5 °C 6,4 km/h (2 Bft)
12.04.2019 08:20 1,7 °C 91 % 1016,6 hPa 0,0 mm 6,0 km/h (2 Bft) NO 54 ° 0 min 0,000 mm 0,0 UV-I 32 W/m² 0,4 °C -0,1 °C 9,7 km/h (2 Bft)
12.04.2019 08:21 1,7 °C 91 % 1016,6 hPa 0,0 mm 7,2 km/h (2 Bft) O-NO 57 ° 0 min 0,000 mm 0,0 UV-I 32 W/m² 0,4 °C -0,5 °C 9,7 km/h (2 Bft)
12.04.2019 08:22 1,7 °C 91 % 1016,6 hPa 0,0 mm 5,6 km/h (1 Bft) NO 53 ° 0 min 0,000 mm 0,0 UV-I 32 W/m² 0,4 °C 0,1 °C 8,0 km/h (2 Bft)
12.04.2019 08:23 1,7 °C 91 % 1016,6 hPa 0,0 mm 3,3 km/h (1 Bft) NO 46 ° 0 min 0,000 mm 0,0 UV-I 32 W/m² 0,4 °C 1,7 °C 6,4 km/h (2 Bft)
12.04.2019 08:24 1,7 °C 91 % 1016,6 hPa 0,0 mm 4,0 km/h (1 Bft) O 81 ° 0 min 0,000 mm 0,0 UV-I 32 W/m² 0,4 °C 1,7 °C 8,0 km/h (2 Bft)
12.04.2019 08:25 1,7 °C 91 % 1016,6 hPa 0,0 mm 2,9 km/h (1 Bft) O-NO 63 ° 0 min 0,000 mm 0,0 UV-I 32 W/m² 0,4 °C 1,7 °C 6,4 km/h (2 Bft)
12.04.2019 08:26 1,7 °C 91 % 1016,7 hPa 0,0 mm 1,4 km/h (1 Bft) O-NO 63 ° 0 min 0,000 mm 0,0 UV-I 32 W/m² 0,4 °C 1,7 °C 3,2 km/h (1 Bft)
12.04.2019 08:27 1,7 °C 91 % 1016,6 hPa 0,0 mm 2,3 km/h (1 Bft) O 79 ° 0 min 0,000 mm 0,0 UV-I 33 W/m² 0,4 °C 1,7 °C 4,8 km/h (1 Bft)
12.04.2019 08:28 1,7 °C 91 % 1016,6 hPa 0,0 mm 4,7 km/h (1 Bft) O 79 ° 0 min 0,000 mm 0,0 UV-I 33 W/m² 0,4 °C 0,5 °C 6,4 km/h (2 Bft)
12.04.2019 08:29 1,7 °C 91 % 1016,7 hPa 0,0 mm 5,6 km/h (1 Bft) NO 56 ° 0 min 0,000 mm 0,0 UV-I 33 W/m² 0,4 °C 0,1 °C 9,7 km/h (2 Bft)
12.04.2019 08:30 1,7 °C 91 % 1016,6 hPa 0,0 mm 6,0 km/h (2 Bft) NO 52 ° 0 min 0,000 mm 0,0 UV-I 33 W/m² 0,4 °C -0,1 °C 8,0 km/h (2 Bft)
12.04.2019 08:31 1,7 °C 91 % 1016,7 hPa 0,0 mm 5,6 km/h (1 Bft) O-NO 69 ° 0 min 0,000 mm 0,0 UV-I 33 W/m² 0,4 °C 0,1 °C 8,0 km/h (2 Bft)
12.04.2019 08:32 1,7 °C 91 % 1016,7 hPa 0,0 mm 4,3 km/h (1 Bft) O 82 ° 0 min 0,000 mm 0,0 UV-I 33 W/m² 0,4 °C 1,7 °C 6,4 km/h (2 Bft)
12.04.2019 08:33 1,7 °C 91 % 1016,7 hPa 0,0 mm 4,8 km/h (1 Bft) NO 44 ° 0 min 0,000 mm 0,0 UV-I 33 W/m² 0,4 °C 0,4 °C 9,7 km/h (2 Bft)
12.04.2019 08:34 1,7 °C 91 % 1016,7 hPa 0,0 mm 2,4 km/h (1 Bft) NO 50 ° 0 min 0,000 mm 0,0 UV-I 33 W/m² 0,4 °C 1,7 °C 4,8 km/h (1 Bft)
12.04.2019 08:35 1,7 °C 91 % 1016,7 hPa 0,0 mm 3,2 km/h (1 Bft) O-NO 76 ° 0 min 0,000 mm 0,0 UV-I 33 W/m² 0,4 °C 1,7 °C 6,4 km/h (2 Bft)
12.04.2019 08:36 1,7 °C 91 % 1016,7 hPa 0,0 mm 3,2 km/h (1 Bft) O 90 ° 0 min 0,000 mm 0,0 UV-I 33 W/m² 0,4 °C 1,7 °C 4,8 km/h (1 Bft)
12.04.2019 08:37 1,7 °C 91 % 1016,6 hPa 0,0 mm 5,0 km/h (1 Bft) O 82 ° 0 min 0,000 mm 0,0 UV-I 33 W/m² 0,4 °C 0,3 °C 6,4 km/h (2 Bft)
12.04.2019 08:38 1,7 °C 91 % 1016,7 hPa 0,0 mm 4,0 km/h (1 Bft) NO 52 ° 0 min 0,000 mm 0,0 UV-I 33 W/m² 0,4 °C 1,7 °C 6,4 km/h (2 Bft)
12.04.2019 08:39 1,7 °C 91 % 1016,7 hPa 0,0 mm 2,8 km/h (1 Bft) O-NO 70 ° 0 min 0,000 mm 0,0 UV-I 33 W/m² 0,4 °C 1,7 °C 6,4 km/h (2 Bft)
12.04.2019 08:40 1,7 °C 91 % 1016,7 hPa 0,0 mm 0,0 km/h (0 Bft) O-NO 70 ° 0 min 0,000 mm 0,0 UV-I 33 W/m² 0,4 °C 1,7 °C 0,0 km/h (0 Bft)
12.04.2019 08:41 1,7 °C 91 % 1016,6 hPa 0,0 mm 0,0 km/h (0 Bft) O-NO 70 ° 0 min 0,000 mm 0,0 UV-I 35 W/m² 0,4 °C 1,7 °C 0,0 km/h (0 Bft)
12.04.2019 08:42 1,7 °C 91 % 1016,6 hPa 0,0 mm 0,1 km/h (0 Bft) O-NO 70 ° 0 min 0,000 mm 0,0 UV-I 35 W/m² 0,4 °C 1,7 °C 1,6 km/h (1 Bft)
12.04.2019 08:43 1,7 °C 91 % 1016,6 hPa 0,0 mm 1,1 km/h (1 Bft) O-NO 70 ° 0 min 0,000 mm 0,0 UV-I 35 W/m² 0,4 °C 1,7 °C 3,2 km/h (1 Bft)
12.04.2019 08:44 1,7 °C 91 % 1016,7 hPa 0,0 mm 0,3 km/h (0 Bft) O-NO 70 ° 0 min 0,000 mm 0,0 UV-I 35 W/m² 0,4 °C 1,7 °C 3,2 km/h (1 Bft)
12.04.2019 08:45 1,7 °C 91 % 1016,7 hPa 0,0 mm 5,1 km/h (1 Bft) O-NO 76 ° 0 min 0,000 mm 0,0 UV-I 37 W/m² 0,4 °C 0,3 °C 6,4 km/h (2 Bft)
12.04.2019 08:46 1,7 °C 91 % 1016,7 hPa 0,0 mm 2,4 km/h (1 Bft) O-NO 57 ° 0 min 0,000 mm 0,0 UV-I 39 W/m² 0,4 °C 1,7 °C 4,8 km/h (1 Bft)
12.04.2019 08:47 1,7 °C 91 % 1016,6 hPa 0,0 mm 3,8 km/h (1 Bft) NO 50 ° 0 min 0,000 mm 0,0 UV-I 44 W/m² 0,4 °C 1,7 °C 6,4 km/h (2 Bft)
12.04.2019 08:48 1,7 °C 91 % 1016,7 hPa 0,0 mm 4,5 km/h (1 Bft) O-NO 58 ° 0 min 0,000 mm 0,0 UV-I 46 W/m² 0,4 °C 1,7 °C 6,4 km/h (2 Bft)
12.04.2019 08:49 1,7 °C 91 % 1016,7 hPa 0,0 mm 2,5 km/h (1 Bft) O-NO 76 ° 0 min 0,000 mm 0,0 UV-I 46 W/m² 0,4 °C 1,7 °C 4,8 km/h (1 Bft)
12.04.2019 08:50 1,7 °C 90 % 1016,7 hPa 0,0 mm 4,3 km/h (1 Bft) O-NO 65 ° 0 min 0,000 mm 0,0 UV-I 46 W/m² 0,2 °C 1,7 °C 6,4 km/h (2 Bft)
12.04.2019 08:51 1,7 °C 90 % 1016,7 hPa 0,0 mm 2,3 km/h (1 Bft) O-NO 65 ° 0 min 0,000 mm 0,0 UV-I 44 W/m² 0,2 °C 1,7 °C 4,8 km/h (1 Bft)
12.04.2019 08:52 1,7 °C 91 % 1016,7 hPa 0,0 mm 1,1 km/h (1 Bft) N-NO 30 ° 0 min 0,000 mm 0,0 UV-I 44 W/m² 0,4 °C 1,7 °C 4,8 km/h (1 Bft)
12.04.2019 08:53 1,7 °C 91 % 1016,7 hPa 0,0 mm 3,4 km/h (1 Bft) O 80 ° 0 min 0,000 mm 0,0 UV-I 44 W/m² 0,4 °C 1,7 °C 6,4 km/h (2 Bft)
12.04.2019 08:54 1,7 °C 91 % 1016,7 hPa 0,0 mm 4,2 km/h (1 Bft) O-NO 59 ° 0 min 0,000 mm 0,0 UV-I 44 W/m² 0,4 °C 1,7 °C 8,0 km/h (2 Bft)
12.04.2019 08:55 1,7 °C 91 % 1016,7 hPa 0,0 mm 5,0 km/h (1 Bft) O-NO 67 ° 0 min 0,000 mm 0,0 UV-I 44 W/m² 0,4 °C 0,3 °C 9,7 km/h (2 Bft)
12.04.2019 08:56 1,7 °C 90 % 1016,7 hPa 0,0 mm 4,3 km/h (1 Bft) O-NO 74 ° 0 min 0,000 mm 0,0 UV-I 44 W/m² 0,2 °C 1,7 °C 6,4 km/h (2 Bft)
12.04.2019 08:57 1,7 °C 90 % 1016,7 hPa 0,0 mm 5,8 km/h (2 Bft) O-NO 76 ° 0 min 0,000 mm 0,0 UV-I 44 W/m² 0,2 °C 0,0 °C 8,0 km/h (2 Bft)
12.04.2019 08:58 1,7 °C 90 % 1016,7 hPa 0,0 mm 8,0 km/h (2 Bft) NO 56 ° 0 min 0,000 mm 0,0 UV-I 46 W/m² 0,2 °C -0,7 °C 12,9 km/h (3 Bft)
12.04.2019 08:59 1,6 °C 90 % 1016,7 hPa 0,0 mm 4,1 km/h (1 Bft) NO 55 ° 0 min 0,000 mm 0,0 UV-I 46 W/m² 0,1 °C 1,6 °C 6,4 km/h (2 Bft)
12.04.2019 09:00 1,6 °C 90 % 1016,7 hPa 0,0 mm 6,7 km/h (2 Bft) O-NO 57 ° 0 min 0,000 mm 0,0 UV-I 46 W/m² 0,1 °C -0,4 °C 9,7 km/h (2 Bft)
12.04.2019 09:01 1,6 °C 90 % 1016,7 hPa 0,0 mm 5,7 km/h (1 Bft) NO 51 ° 0 min 0,025 mm 0,0 UV-I 46 W/m² 0,1 °C -0,1 °C 8,0 km/h (2 Bft)
12.04.2019 09:02 1,6 °C 90 % 1016,7 hPa 0,0 mm 5,2 km/h (1 Bft) NO 42 ° 0 min 0,000 mm 0,0 UV-I 44 W/m² 0,1 °C 0,1 °C 8,0 km/h (2 Bft)
12.04.2019 09:03 1,6 °C 90 % 1016,7 hPa 0,0 mm 3,1 km/h (1 Bft) NO 56 ° 0 min 0,000 mm 0,0 UV-I 46 W/m² 0,1 °C 1,6 °C 4,8 km/h (1 Bft)
12.04.2019 09:04 1,6 °C 90 % 1016,7 hPa 0,0 mm 1,7 km/h (1 Bft) O-NO 57 ° 0 min 0,000 mm 0,0 UV-I 49 W/m² 0,1 °C 1,6 °C 6,4 km/h (2 Bft)
12.04.2019 09:05 1,6 °C 90 % 1016,7 hPa 0,0 mm 5,9 km/h (2 Bft) O-NO 74 ° 0 min 0,000 mm 0,0 UV-I 53 W/m² 0,1 °C -0,1 °C 8,0 km/h (2 Bft)
12.04.2019 09:06 1,6 °C 90 % 1016,7 hPa 0,0 mm 6,5 km/h (2 Bft) O-NO 63 ° 0 min 0,000 mm 0,0 UV-I 54 W/m² 0,1 °C -0,4 °C 9,7 km/h (2 Bft)
12.04.2019 09:07 1,6 °C 90 % 1016,7 hPa 0,0 mm 6,0 km/h (2 Bft) O-NO 75 ° 0 min 0,000 mm 0,0 UV-I 56 W/m² 0,1 °C -0,2 °C 11,3 km/h (2 Bft)
12.04.2019 09:08 1,6 °C 90 % 1016,6 hPa 0,0 mm 6,8 km/h (2 Bft) O-NO 72 ° 0 min 0,000 mm 0,0 UV-I 58 W/m² 0,1 °C -0,5 °C 9,7 km/h (2 Bft)
12.04.2019 09:09 1,6 °C 90 % 1016,7 hPa 0,0 mm 6,5 km/h (2 Bft) O 81 ° 0 min 0,000 mm 0,0 UV-I 58 W/m² 0,1 °C -0,4 °C 9,7 km/h (2 Bft)
12.04.2019 09:10 1,6 °C 90 % 1016,7 hPa 0,0 mm 7,3 km/h (2 Bft) O-NO 71 ° 0 min 0,000 mm 0,0 UV-I 60 W/m² 0,1 °C -0,6 °C 11,3 km/h (2 Bft)
12.04.2019 09:11 1,6 °C 90 % 1016,7 hPa 0,0 mm 5,9 km/h (2 Bft) O-NO 67 ° 0 min 0,000 mm 0,0 UV-I 60 W/m² 0,1 °C -0,1 °C 8,0 km/h (2 Bft)
12.04.2019 09:12 1,6 °C 90 % 1016,7 hPa 0,0 mm 4,8 km/h (1 Bft) O 83 ° 0 min 0,000 mm 0,0 UV-I 58 W/m² 0,1 °C 0,3 °C 8,0 km/h (2 Bft)
12.04.2019 09:13 1,6 °C 90 % 1016,7 hPa 0,0 mm 4,8 km/h (1 Bft) O-NO 66 ° 0 min 0,000 mm 0,0 UV-I 58 W/m² 0,1 °C 0,3 °C 9,7 km/h (2 Bft)
12.04.2019 09:14 1,6 °C 90 % 1016,7 hPa 0,0 mm 3,0 km/h (1 Bft) O-NO 66 ° 0 min 0,000 mm 0,0 UV-I 58 W/m² 0,1 °C 1,6 °C 6,4 km/h (2 Bft)
12.04.2019 09:15 1,6 °C 90 % 1016,7 hPa 0,0 mm 3,9 km/h (1 Bft) NO 53 ° 0 min 0,000 mm 0,0 UV-I 58 W/m² 0,1 °C 1,6 °C 6,4 km/h (2 Bft)
12.04.2019 09:16 1,6 °C 90 % 1016,7 hPa 0,0 mm 5,8 km/h (2 Bft) O-NO 64 ° 0 min 0,000 mm 0,0 UV-I 58 W/m² 0,1 °C -0,1 °C 8,0 km/h (2 Bft)
12.04.2019 09:17 1,6 °C 90 % 1016,7 hPa 0,0 mm 5,6 km/h (1 Bft) NO 55 ° 0 min 0,000 mm 0,0 UV-I 58 W/m² 0,1 °C -0,0 °C 8,0 km/h (2 Bft)
12.04.2019 09:18 1,6 °C 90 % 1016,7 hPa 0,0 mm 3,9 km/h (1 Bft) O 85 ° 0 min 0,000 mm 0,0 UV-I 58 W/m² 0,1 °C 1,6 °C 8,0 km/h (2 Bft)
12.04.2019 09:19 1,6 °C 90 % 1016,7 hPa 0,0 mm 4,2 km/h (1 Bft) O-NO 63 ° 0 min 0,000 mm 0,0 UV-I 58 W/m² 0,1 °C 1,6 °C 8,0 km/h (2 Bft)
12.04.2019 09:20 1,6 °C 90 % 1016,7 hPa 0,0 mm 4,6 km/h (1 Bft) O-NO 65 ° 0 min 0,000 mm 0,0 UV-I 58 W/m² 0,1 °C 0,4 °C 6,4 km/h (2 Bft)
12.04.2019 09:21 1,5 °C 89 % 1016,7 hPa 0,0 mm 3,0 km/h (1 Bft) NO 46 ° 0 min 0,000 mm 0,0 UV-I 60 W/m² -0,1 °C 1,5 °C 8,0 km/h (2 Bft)
12.04.2019 09:22 1,5 °C 90 % 1016,7 hPa 0,0 mm 4,7 km/h (1 Bft) O 92 ° 0 min 0,000 mm 0,0 UV-I 62 W/m² 0,0 °C 0,2 °C 6,4 km/h (2 Bft)
12.04.2019 09:23 1,6 °C 90 % 1016,7 hPa 0,0 mm 2,0 km/h (1 Bft) O 92 ° 0 min 0,000 mm 0,0 UV-I 62 W/m² 0,1 °C 1,6 °C 4,8 km/h (1 Bft)
12.04.2019 09:24 1,5 °C 90 % 1016,7 hPa 0,0 mm 3,1 km/h (1 Bft) NO 53 ° 0 min 0,000 mm 0,0 UV-I 60 W/m² 0,0 °C 1,5 °C 6,4 km/h (2 Bft)
12.04.2019 09:25 1,5 °C 90 % 1016,7 hPa 0,0 mm 3,7 km/h (1 Bft) O-NO 76 ° 0 min 0,000 mm 0,0 UV-I 60 W/m² 0,0 °C 1,5 °C 6,4 km/h (2 Bft)
12.04.2019 09:26 1,5 °C 90 % 1016,7 hPa 0,0 mm 4,7 km/h (1 Bft) NO 53 ° 0 min 0,000 mm 0,0 UV-I 62 W/m² 0,0 °C 0,2 °C 8,0 km/h (2 Bft)
12.04.2019 09:27 1,5 °C 90 % 1016,7 hPa 0,0 mm 3,5 km/h (1 Bft) O-NO 59 ° 0 min 0,000 mm 0,0 UV-I 63 W/m² 0,0 °C 1,5 °C 4,8 km/h (1 Bft)
12.04.2019 09:28 1,5 °C 90 % 1016,7 hPa 0,0 mm 3,4 km/h (1 Bft) O-NO 59 ° 0 min 0,000 mm 0,0 UV-I 67 W/m² 0,0 °C 1,5 °C 6,4 km/h (2 Bft)
12.04.2019 09:29 1,5 °C 89 % 1016,7 hPa 0,0 mm 3,5 km/h (1 Bft) N-NO 29 ° 0 min 0,000 mm 0,0 UV-I 69 W/m² -0,1 °C 1,5 °C 6,4 km/h (2 Bft)
12.04.2019 09:30 1,6 °C 90 % 1016,7 hPa 0,0 mm 7,8 km/h (2 Bft) NO 47 ° 0 min 0,000 mm 0,0 UV-I 72 W/m² 0,1 °C -0,8 °C 12,9 km/h (3 Bft)
12.04.2019 09:31 1,6 °C 89 % 1016,7 hPa 0,0 mm 5,2 km/h (1 Bft) NO 37 ° 0 min 0,000 mm 0,5 UV-I 72 W/m² -0,0 °C 0,1 °C 9,7 km/h (2 Bft)
12.04.2019 09:32 1,6 °C 89 % 1016,7 hPa 0,0 mm 5,8 km/h (2 Bft) NO 44 ° 0 min 0,000 mm 0,5 UV-I 74 W/m² -0,0 °C -0,1 °C 9,7 km/h (2 Bft)
12.04.2019 09:33 1,6 °C 89 % 1016,7 hPa 0,0 mm 4,0 km/h (1 Bft) NO 51 ° 0 min 0,000 mm 0,5 UV-I 76 W/m² -0,0 °C 1,6 °C 6,4 km/h (2 Bft)
12.04.2019 09:34 1,6 °C 89 % 1016,7 hPa 0,0 mm 3,0 km/h (1 Bft) NO 42 ° 0 min 0,000 mm 0,5 UV-I 77 W/m² -0,0 °C 1,6 °C 8,0 km/h (2 Bft)
12.04.2019 09:35 1,6 °C 89 % 1016,7 hPa 0,0 mm 5,5 km/h (1 Bft) O-NO 59 ° 0 min 0,000 mm 0,5 UV-I 77 W/m² -0,0 °C 0,0 °C 8,0 km/h (2 Bft)
12.04.2019 09:36 1,6 °C 89 % 1016,7 hPa 0,0 mm 6,3 km/h (2 Bft) O-NO 74 ° 0 min 0,000 mm 0,5 UV-I 79 W/m² -0,0 °C -0,3 °C 9,7 km/h (2 Bft)
12.04.2019 09:37 1,6 °C 89 % 1016,7 hPa 0,0 mm 3,0 km/h (1 Bft) O 88 ° 0 min 0,000 mm 0,5 UV-I 83 W/m² -0,0 °C 1,6 °C 6,4 km/h (2 Bft)
12.04.2019 09:38 1,6 °C 89 % 1016,7 hPa 0,0 mm 5,8 km/h (2 Bft) O-NO 66 ° 0 min 0,000 mm 0,5 UV-I 83 W/m² -0,0 °C -0,1 °C 8,0 km/h (2 Bft)
12.04.2019 09:39 1,6 °C 89 % 1016,7 hPa 0,0 mm 7,7 km/h (2 Bft) O 83 ° 0 min 0,000 mm 0,5 UV-I 83 W/m² -0,0 °C -0,8 °C 12,9 km/h (3 Bft)
12.04.2019 09:40 1,6 °C 89 % 1016,7 hPa 0,0 mm 4,2 km/h (1 Bft) O-NO 65 ° 0 min 0,000 mm 0,5 UV-I 79 W/m² -0,0 °C 1,6 °C 6,4 km/h (2 Bft)
12.04.2019 09:41 1,6 °C 89 % 1016,7 hPa 0,0 mm 10,5 km/h (2 Bft) O-NO 63 ° 0 min 0,000 mm 0,5 UV-I 77 W/m² -0,0 °C -1,5 °C 14,5 km/h (3 Bft)
12.04.2019 09:42 1,6 °C 89 % 1016,7 hPa 0,0 mm 7,1 km/h (2 Bft) NO 56 ° 0 min 0,000 mm 0,5 UV-I 77 W/m² -0,0 °C -0,6 °C 9,7 km/h (2 Bft)
12.04.2019 09:43 1,5 °C 89 % 1016,7 hPa 0,0 mm 6,3 km/h (2 Bft) O-NO 63 ° 0 min 0,000 mm 0,5 UV-I 76 W/m² -0,1 °C -0,4 °C 8,0 km/h (2 Bft)
12.04.2019 09:44 1,5 °C 89 % 1016,8 hPa 0,0 mm 5,9 km/h (2 Bft) O 81 ° 0 min 0,000 mm 0,5 UV-I 74 W/m² -0,1 °C -0,3 °C 9,7 km/h (2 Bft)
12.04.2019 09:45 1,5 °C 89 % 1016,8 hPa 0,0 mm 6,4 km/h (2 Bft) O-NO 57 ° 0 min 0,000 mm 0,5 UV-I 72 W/m² -0,1 °C -0,4 °C 9,7 km/h (2 Bft)
12.04.2019 09:46 1,4 °C 89 % 1016,8 hPa 0,0 mm 5,9 km/h (2 Bft) O 98 ° 0 min 0,000 mm 0,5 UV-I 72 W/m² -0,2 °C -0,4 °C 8,0 km/h (2 Bft)
12.04.2019 09:47 1,5 °C 89 % 1016,7 hPa 0,0 mm 5,6 km/h (1 Bft) O 84 ° 0 min 0,000 mm 0,5 UV-I 74 W/m² -0,1 °C -0,1 °C 8,0 km/h (2 Bft)
12.04.2019 09:48 1,5 °C 89 % 1016,7 hPa 0,0 mm 7,6 km/h (2 Bft) O-NO 59 ° 0 min 0,000 mm 0,5 UV-I 76 W/m² -0,1 °C -0,9 °C 12,9 km/h (3 Bft)
12.04.2019 09:49 1,5 °C 89 % 1016,7 hPa 0,0 mm 8,0 km/h (2 Bft) O-NO 59 ° 0 min 0,000 mm 0,5 UV-I 76 W/m² -0,1 °C -1,0 °C 11,3 km/h (2 Bft)
12.04.2019 09:50 1,5 °C 89 % 1016,7 hPa 0,0 mm 4,2 km/h (1 Bft) NO 53 ° 0 min 0,000 mm 0,5 UV-I 77 W/m² -0,1 °C 1,5 °C 8,0 km/h (2 Bft)
12.04.2019 09:51 1,5 °C 89 % 1016,7 hPa 0,0 mm 4,3 km/h (1 Bft) NO 36 ° 0 min 0,000 mm 0,5 UV-I 81 W/m² -0,1 °C 1,5 °C 6,4 km/h (2 Bft)
12.04.2019 09:52 1,5 °C 89 % 1016,7 hPa 0,0 mm 6,6 km/h (2 Bft) O-NO 65 ° 0 min 0,000 mm 0,5 UV-I 81 W/m² -0,1 °C -0,5 °C 9,7 km/h (2 Bft)
12.04.2019 09:53 1,6 °C 89 % 1016,7 hPa 0,0 mm 5,9 km/h (2 Bft) O-NO 57 ° 0 min 0,000 mm 0,5 UV-I 83 W/m² -0,0 °C -0,1 °C 8,0 km/h (2 Bft)
12.04.2019 09:54 1,5 °C 89 % 1016,7 hPa 0,0 mm 5,9 km/h (2 Bft) NO 52 ° 0 min 0,000 mm 0,5 UV-I 84 W/m² -0,1 °C -0,3 °C 9,7 km/h (2 Bft)
12.04.2019 09:55 1,5 °C 89 % 1016,7 hPa 0,0 mm 4,8 km/h (1 Bft) O-NO 76 ° 0 min 0,000 mm 0,6 UV-I 86 W/m² -0,1 °C 0,2 °C 6,4 km/h (2 Bft)
12.04.2019 09:56 1,5 °C 89 % 1016,8 hPa 0,0 mm 9,9 km/h (2 Bft) NO 46 ° 0 min 0,000 mm 0,6 UV-I 88 W/m² -0,1 °C -1,5 °C 14,5 km/h (3 Bft)
12.04.2019 09:57 1,5 °C 89 % 1016,7 hPa 0,0 mm 6,9 km/h (2 Bft) O 81 ° 0 min 0,000 mm 0,6 UV-I 93 W/m² -0,1 °C -0,6 °C 14,5 km/h (3 Bft)
12.04.2019 09:58 1,5 °C 89 % 1016,8 hPa 0,0 mm 8,1 km/h (2 Bft) NO 53 ° 0 min 0,000 mm 0,6 UV-I 95 W/m² -0,1 °C -1,0 °C 12,9 km/h (3 Bft)
12.04.2019 09:59 1,4 °C 89 % 1016,8 hPa 0,0 mm 7,0 km/h (2 Bft) O-NO 74 ° 0 min 0,000 mm 0,6 UV-I 97 W/m² -0,2 °C -0,8 °C 11,3 km/h (2 Bft)
12.04.2019 10:00 1,5 °C 89 % 1016,8 hPa 0,0 mm 5,4 km/h (1 Bft) NO 34 ° 0 min 0,000 mm 0,6 UV-I 98 W/m² -0,1 °C -0,1 °C 8,0 km/h (2 Bft)
12.04.2019 10:01 1,6 °C 89 % 1016,8 hPa 0,0 mm 4,8 km/h (1 Bft) NO 47 ° 0 min 0,026 mm 0,7 UV-I 100 W/m² -0,0 °C 0,3 °C 8,0 km/h (2 Bft)
12.04.2019 10:02 1,6 °C 89 % 1016,7 hPa 0,0 mm 6,0 km/h (2 Bft) NO 37 ° 0 min 0,000 mm 0,7 UV-I 102 W/m² -0,0 °C -0,2 °C 9,7 km/h (2 Bft)
12.04.2019 10:03 1,6 °C 89 % 1016,8 hPa 0,0 mm 2,9 km/h (1 Bft) NO 38 ° 0 min 0,000 mm 0,7 UV-I 102 W/m² -0,0 °C 1,6 °C 6,4 km/h (2 Bft)
12.04.2019 10:04 1,6 °C 89 % 1016,8 hPa 0,0 mm 5,3 km/h (1 Bft) O-NO 67 ° 0 min 0,000 mm 0,6 UV-I 98 W/m² -0,0 °C 0,1 °C 8,0 km/h (2 Bft)
12.04.2019 10:05 1,6 °C 89 % 1016,7 hPa 0,0 mm 8,5 km/h (2 Bft) O-NO 74 ° 0 min 0,000 mm 0,6 UV-I 95 W/m² -0,0 °C -1,0 °C 11,3 km/h (2 Bft)
12.04.2019 10:06 1,6 °C 89 % 1016,8 hPa 0,0 mm 5,9 km/h (2 Bft) O-NO 63 ° 0 min 0,000 mm 0,6 UV-I 95 W/m² -0,0 °C -0,1 °C 8,0 km/h (2 Bft)
12.04.2019 10:07 1,6 °C 89 % 1016,8 hPa 0,0 mm 7,5 km/h (2 Bft) O 87 ° 0 min 0,000 mm 0,6 UV-I 95 W/m² -0,0 °C -0,7 °C 11,3 km/h (2 Bft)
12.04.2019 10:08 1,6 °C 89 % 1016,8 hPa 0,0 mm 4,1 km/h (1 Bft) NO 56 ° 0 min 0,000 mm 0,6 UV-I 93 W/m² -0,0 °C 1,6 °C 8,0 km/h (2 Bft)
12.04.2019 10:09 1,6 °C 89 % 1016,8 hPa 0,0 mm 4,6 km/h (1 Bft) O-NO 67 ° 0 min 0,000 mm 0,6 UV-I 93 W/m² -0,0 °C 0,4 °C 8,0 km/h (2 Bft)
12.04.2019 10:10 1,6 °C 89 % 1016,8 hPa 0,0 mm 6,9 km/h (2 Bft) O-NO 74 ° 0 min 0,000 mm 0,6 UV-I 91 W/m² -0,0 °C -0,5 °C 9,7 km/h (2 Bft)
12.04.2019 10:11 1,6 °C 89 % 1016,8 hPa 0,0 mm 5,5 km/h (1 Bft) NO 56 ° 0 min 0,000 mm 0,6 UV-I 91 W/m² -0,0 °C 0,0 °C 9,7 km/h (2 Bft)
12.04.2019 10:12 1,6 °C 89 % 1016,8 hPa 0,0 mm 5,5 km/h (1 Bft) N-NO 22 ° 0 min 0,000 mm 0,6 UV-I 90 W/m² -0,0 °C 0,0 °C 8,0 km/h (2 Bft)
12.04.2019 10:13 1,6 °C 89 % 1016,7 hPa 0,0 mm 4,3 km/h (1 Bft) N-NO 30 ° 0 min 0,000 mm 0,6 UV-I 90 W/m² -0,0 °C 1,6 °C 6,4 km/h (2 Bft)
12.04.2019 10:14 1,6 °C 89 % 1016,8 hPa 0,0 mm 7,3 km/h (2 Bft) NO 39 ° 0 min 0,000 mm 0,6 UV-I 90 W/m² -0,0 °C -0,6 °C 9,7 km/h (2 Bft)
12.04.2019 10:15 1,6 °C 89 % 1016,9 hPa 0,0 mm 5,2 km/h (1 Bft) NO 41 ° 0 min 0,000 mm 0,6 UV-I 88 W/m² -0,0 °C 0,1 °C 8,0 km/h (2 Bft)
12.04.2019 10:16 1,6 °C 89 % 1016,9 hPa 0,0 mm 4,1 km/h (1 Bft) O-NO 57 ° 0 min 0,000 mm 0,6 UV-I 84 W/m² -0,0 °C 1,6 °C 6,4 km/h (2 Bft)
12.04.2019 10:17 1,6 °C 89 % 1016,9 hPa 0,0 mm 1,8 km/h (1 Bft) NO 51 ° 0 min 0,000 mm 0,6 UV-I 83 W/m² -0,0 °C 1,6 °C 4,8 km/h (1 Bft)
12.04.2019 10:18 1,6 °C 89 % 1016,8 hPa 0,0 mm 5,1 km/h (1 Bft) O-NO 63 ° 0 min 0,000 mm 0,5 UV-I 81 W/m² -0,0 °C 0,2 °C 6,4 km/h (2 Bft)
12.04.2019 10:19 1,6 °C 89 % 1016,9 hPa 0,0 mm 4,0 km/h (1 Bft) O-NO 71 ° 0 min 0,000 mm 0,5 UV-I 79 W/m² -0,0 °C 1,6 °C 4,8 km/h (1 Bft)
12.04.2019 10:20 1,6 °C 89 % 1016,9 hPa 0,0 mm 3,5 km/h (1 Bft) O-NO 62 ° 0 min 0,000 mm 0,5 UV-I 79 W/m² -0,0 °C 1,6 °C 4,8 km/h (1 Bft)
12.04.2019 10:21 1,6 °C 89 % 1016,9 hPa 0,0 mm 4,1 km/h (1 Bft) O-NO 69 ° 0 min 0,000 mm 0,5 UV-I 77 W/m² -0,0 °C 1,6 °C 6,4 km/h (2 Bft)
12.04.2019 10:22 1,6 °C 89 % 1016,9 hPa 0,0 mm 5,8 km/h (2 Bft) NO 53 ° 0 min 0,000 mm 0,5 UV-I 77 W/m² -0,0 °C -0,1 °C 9,7 km/h (2 Bft)
12.04.2019 10:23 1,6 °C 89 % 1016,9 hPa 0,0 mm 5,4 km/h (1 Bft) NO 56 ° 0 min 0,000 mm 0,5 UV-I 77 W/m² -0,0 °C 0,1 °C 8,0 km/h (2 Bft)
12.04.2019 10:24 1,6 °C 89 % 1016,9 hPa 0,0 mm 1,9 km/h (1 Bft) NO 56 ° 0 min 0,000 mm 0,5 UV-I 77 W/m² -0,0 °C 1,6 °C 3,2 km/h (1 Bft)
12.04.2019 10:25 1,6 °C 89 % 1016,9 hPa 0,0 mm 4,0 km/h (1 Bft) O-NO 58 ° 0 min 0,000 mm 0,5 UV-I 77 W/m² -0,0 °C 1,6 °C 6,4 km/h (2 Bft)
12.04.2019 10:26 1,6 °C 89 % 1016,9 hPa 0,0 mm 5,0 km/h (1 Bft) O-NO 59 ° 0 min 0,000 mm 0,5 UV-I 77 W/m² -0,0 °C 0,2 °C 6,4 km/h (2 Bft)
12.04.2019 10:27 1,7 °C 89 % 1016,9 hPa 0,0 mm 4,4 km/h (1 Bft) O 83 ° 0 min 0,000 mm 0,5 UV-I 76 W/m² 0,1 °C 1,7 °C 6,4 km/h (2 Bft)
12.04.2019 10:28 1,7 °C 89 % 1016,9 hPa 0,0 mm 3,8 km/h (1 Bft) O-NO 58 ° 0 min 0,000 mm 0,5 UV-I 76 W/m² 0,1 °C 1,7 °C 6,4 km/h (2 Bft)
12.04.2019 10:29 1,7 °C 89 % 1016,9 hPa 0,0 mm 3,4 km/h (1 Bft) O 81 ° 0 min 0,000 mm 0,5 UV-I 76 W/m² 0,1 °C 1,7 °C 4,8 km/h (1 Bft)
12.04.2019 10:30 1,7 °C 89 % 1016,9 hPa 0,0 mm 3,7 km/h (1 Bft) NO 53 ° 0 min 0,000 mm 0,5 UV-I 77 W/m² 0,1 °C 1,7 °C 6,4 km/h (2 Bft)
12.04.2019 10:31 1,7 °C 89 % 1016,9 hPa 0,0 mm 1,8 km/h (1 Bft) NO 53 ° 0 min 0,000 mm 0,5 UV-I 79 W/m² 0,1 °C 1,7 °C 4,8 km/h (1 Bft)
12.04.2019 10:32 1,7 °C 89 % 1016,9 hPa 0,0 mm 3,1 km/h (1 Bft) O-NO 69 ° 0 min 0,000 mm 0,6 UV-I 83 W/m² 0,1 °C 1,7 °C 4,8 km/h (1 Bft)
12.04.2019 10:33 1,7 °C 89 % 1016,9 hPa 0,0 mm 2,3 km/h (1 Bft) O-SO 121 ° 0 min 0,000 mm 0,6 UV-I 86 W/m² 0,1 °C 1,7 °C 4,8 km/h (1 Bft)
12.04.2019 10:34 1,7 °C 89 % 1017,0 hPa 0,0 mm 4,6 km/h (1 Bft) O-NO 76 ° 0 min 0,000 mm 0,6 UV-I 88 W/m² 0,1 °C 0,5 °C 6,4 km/h (2 Bft)
12.04.2019 10:35 1,7 °C 89 % 1017,0 hPa 0,0 mm 5,0 km/h (1 Bft) O-NO 65 ° 0 min 0,000 mm 0,6 UV-I 88 W/m² 0,1 °C 0,3 °C 8,0 km/h (2 Bft)
12.04.2019 10:36 1,6 °C 89 % 1017,0 hPa 0,0 mm 3,5 km/h (1 Bft) O-NO 67 ° 0 min 0,000 mm 0,6 UV-I 88 W/m² -0,0 °C 1,6 °C 4,8 km/h (1 Bft)
12.04.2019 10:37 1,7 °C 89 % 1017,0 hPa 0,0 mm 5,1 km/h (1 Bft) O-NO 71 ° 0 min 0,000 mm 0,6 UV-I 93 W/m² 0,1 °C 0,3 °C 9,7 km/h (2 Bft)
12.04.2019 10:38 1,6 °C 89 % 1017,0 hPa 0,0 mm 4,4 km/h (1 Bft) O-NO 75 ° 0 min 0,000 mm 0,7 UV-I 98 W/m² -0,0 °C 1,6 °C 6,4 km/h (2 Bft)
12.04.2019 10:39 1,6 °C 89 % 1017,0 hPa 0,0 mm 4,8 km/h (1 Bft) O 79 ° 0 min 0,000 mm 0,7 UV-I 100 W/m² -0,0 °C 0,3 °C 8,0 km/h (2 Bft)
12.04.2019 10:40 1,6 °C 89 % 1017,0 hPa 0,0 mm 3,5 km/h (1 Bft) O 79 ° 0 min 0,000 mm 0,7 UV-I 100 W/m² -0,0 °C 1,6 °C 4,8 km/h (1 Bft)
12.04.2019 10:41 1,6 °C 89 % 1017,0 hPa 0,0 mm 4,2 km/h (1 Bft) NO 56 ° 0 min 0,000 mm 0,7 UV-I 102 W/m² -0,0 °C 1,6 °C 6,4 km/h (2 Bft)
12.04.2019 10:42 1,6 °C 89 % 1017,0 hPa 0,0 mm 2,8 km/h (1 Bft) NO 34 ° 0 min 0,000 mm 0,7 UV-I 105 W/m² -0,0 °C 1,6 °C 4,8 km/h (1 Bft)
12.04.2019 10:43 1,7 °C 89 % 1017,0 hPa 0,0 mm 3,6 km/h (1 Bft) NO 44 ° 0 min 0,000 mm 0,8 UV-I 109 W/m² 0,1 °C 1,7 °C 6,4 km/h (2 Bft)
12.04.2019 10:44 1,7 °C 89 % 1017,0 hPa 0,0 mm 3,4 km/h (1 Bft) NO 44 ° 0 min 0,000 mm 0,8 UV-I 111 W/m² 0,1 °C 1,7 °C 4,8 km/h (1 Bft)
12.04.2019 10:45 1,7 °C 89 % 1017,0 hPa 0,0 mm 1,5 km/h (1 Bft) NO 48 ° 0 min 0,000 mm 0,7 UV-I 107 W/m² 0,1 °C 1,7 °C 3,2 km/h (1 Bft)
12.04.2019 10:46 1,8 °C 89 % 1017,0 hPa 0,0 mm 2,3 km/h (1 Bft) O 84 ° 0 min 0,000 mm 0,7 UV-I 105 W/m² 0,2 °C 1,8 °C 4,8 km/h (1 Bft)
12.04.2019 10:47 1,8 °C 89 % 1016,9 hPa 0,0 mm 4,7 km/h (1 Bft) N-NO 23 ° 0 min 0,000 mm 0,7 UV-I 104 W/m² 0,2 °C 0,6 °C 6,4 km/h (2 Bft)
12.04.2019 10:48 1,8 °C 89 % 1017,0 hPa 0,0 mm 1,9 km/h (1 Bft) NO 56 ° 0 min 0,000 mm 0,7 UV-I 102 W/m² 0,2 °C 1,8 °C 3,2 km/h (1 Bft)
12.04.2019 10:49 1,8 °C 89 % 1016,9 hPa 0,0 mm 3,7 km/h (1 Bft) N-NO 30 ° 0 min 0,000 mm 0,7 UV-I 104 W/m² 0,2 °C 1,8 °C 4,8 km/h (1 Bft)
12.04.2019 10:50 1,9 °C 89 % 1017,0 hPa 0,0 mm 3,3 km/h (1 Bft) O 86 ° 0 min 0,000 mm 0,7 UV-I 107 W/m² 0,3 °C 1,9 °C 6,4 km/h (2 Bft)
12.04.2019 10:51 1,8 °C 89 % 1017,0 hPa 0,0 mm 4,8 km/h (1 Bft) NO 52 ° 0 min 0,000 mm 0,7 UV-I 105 W/m² 0,2 °C 0,5 °C 8,0 km/h (2 Bft)
12.04.2019 10:52 1,8 °C 89 % 1017,1 hPa 0,0 mm 4,8 km/h (1 Bft) O-NO 73 ° 0 min 0,000 mm 0,7 UV-I 104 W/m² 0,2 °C 0,5 °C 8,0 km/h (2 Bft)
12.04.2019 10:53 1,8 °C 89 % 1017,0 hPa 0,0 mm 4,7 km/h (1 Bft) O-NO 76 ° 0 min 0,000 mm 0,7 UV-I 102 W/m² 0,2 °C 0,6 °C 8,0 km/h (2 Bft)
12.04.2019 10:54 1,8 °C 89 % 1017,1 hPa 0,0 mm 3,1 km/h (1 Bft) NO 55 ° 0 min 0,000 mm 0,7 UV-I 100 W/m² 0,2 °C 1,8 °C 4,8 km/h (1 Bft)
12.04.2019 10:55 1,8 °C 89 % 1017,0 hPa 0,0 mm 3,9 km/h (1 Bft) O 80 ° 0 min 0,000 mm 0,7 UV-I 100 W/m² 0,2 °C 1,8 °C 6,4 km/h (2 Bft)
12.04.2019 10:56 1,8 °C 89 % 1017,0 hPa 0,0 mm 0,9 km/h (0 Bft) O 80 ° 0 min 0,000 mm 0,7 UV-I 98 W/m² 0,2 °C 1,8 °C 3,2 km/h (1 Bft)
12.04.2019 10:57 1,8 °C 89 % 1017,0 hPa 0,0 mm 2,4 km/h (1 Bft) O-NO 63 ° 0 min 0,000 mm 0,7 UV-I 95 W/m² 0,2 °C 1,8 °C 4,8 km/h (1 Bft)
12.04.2019 10:58 1,9 °C 89 % 1017,0 hPa 0,0 mm 0,0 km/h (0 Bft) O-NO 63 ° 0 min 0,000 mm 0,7 UV-I 97 W/m² 0,3 °C 1,9 °C 0,0 km/h (0 Bft)
12.04.2019 10:59 1,9 °C 89 % 1017,1 hPa 0,0 mm 3,2 km/h (1 Bft) O 80 ° 0 min 0,000 mm 0,7 UV-I 97 W/m² 0,3 °C 1,9 °C 6,4 km/h (2 Bft)
12.04.2019 11:00 1,9 °C 89 % 1017,1 hPa 0,0 mm 3,1 km/h (1 Bft) NO 52 ° 0 min 0,000 mm 0,7 UV-I 98 W/m² 0,3 °C 1,9 °C 6,4 km/h (2 Bft)
12.04.2019 11:01 1,8 °C 89 % 1017,1 hPa 0,0 mm 4,4 km/h (1 Bft) O-NO 61 ° 0 min 0,025 mm 0,7 UV-I 100 W/m² 0,2 °C 1,8 °C 8,0 km/h (2 Bft)
12.04.2019 11:02 1,8 °C 89 % 1017,1 hPa 0,0 mm 7,0 km/h (2 Bft) O-NO 59 ° 0 min 0,000 mm 0,7 UV-I 105 W/m² 0,2 °C -0,3 °C 9,7 km/h (2 Bft)
12.04.2019 11:03 1,9 °C 89 % 1017,1 hPa 0,0 mm 5,8 km/h (2 Bft) NO 51 ° 0 min 0,000 mm 0,8 UV-I 109 W/m² 0,3 °C 0,2 °C 9,7 km/h (2 Bft)
12.04.2019 11:04 1,8 °C 89 % 1017,1 hPa 0,0 mm 3,6 km/h (1 Bft) O 88 ° 0 min 0,000 mm 0,8 UV-I 113 W/m² 0,2 °C 1,8 °C 4,8 km/h (1 Bft)
12.04.2019 11:05 1,8 °C 89 % 1017,1 hPa 0,0 mm 3,1 km/h (1 Bft) O 94 ° 0 min 0,000 mm 0,8 UV-I 113 W/m² 0,2 °C 1,8 °C 6,4 km/h (2 Bft)
12.04.2019 11:06 1,8 °C 89 % 1017,1 hPa 0,0 mm 6,1 km/h (2 Bft) NO 38 ° 0 min 0,000 mm 0,8 UV-I 113 W/m² 0,2 °C 0,0 °C 9,7 km/h (2 Bft)
12.04.2019 11:07 1,9 °C 89 % 1017,1 hPa 0,0 mm 5,6 km/h (1 Bft) NO 36 ° 0 min 0,000 mm 0,8 UV-I 113 W/m² 0,3 °C 0,3 °C 9,7 km/h (2 Bft)
12.04.2019 11:08 1,8 °C 89 % 1017,1 hPa 0,0 mm 3,7 km/h (1 Bft) O-NO 61 ° 0 min 0,000 mm 0,8 UV-I 118 W/m² 0,2 °C 1,8 °C 8,0 km/h (2 Bft)
12.04.2019 11:09 1,9 °C 89 % 1017,1 hPa 0,0 mm 5,2 km/h (1 Bft) O 81 ° 0 min 0,000 mm 0,9 UV-I 121 W/m² 0,3 °C 0,5 °C 8,0 km/h (2 Bft)
12.04.2019 11:10 1,9 °C 89 % 1017,1 hPa 0,0 mm 5,7 km/h (1 Bft) O 82 ° 0 min 0,000 mm 0,9 UV-I 123 W/m² 0,3 °C 0,3 °C 6,4 km/h (2 Bft)
12.04.2019 11:11 1,9 °C 89 % 1017,1 hPa 0,0 mm 3,3 km/h (1 Bft) NO 55 ° 0 min 0,000 mm 0,8 UV-I 120 W/m² 0,3 °C 1,9 °C 4,8 km/h (1 Bft)
12.04.2019 11:12 1,9 °C 89 % 1017,1 hPa 0,0 mm 3,8 km/h (1 Bft) NO 52 ° 0 min 0,000 mm 0,8 UV-I 116 W/m² 0,3 °C 1,9 °C 6,4 km/h (2 Bft)
12.04.2019 11:13 1,9 °C 89 % 1017,1 hPa 0,0 mm 3,6 km/h (1 Bft) NO 47 ° 0 min 0,000 mm 0,8 UV-I 116 W/m² 0,3 °C 1,9 °C 9,7 km/h (2 Bft)
12.04.2019 11:14 1,9 °C 89 % 1017,1 hPa 0,0 mm 4,4 km/h (1 Bft) N-NO 31 ° 0 min 0,000 mm 0,8 UV-I 114 W/m² 0,3 °C 1,9 °C 9,7 km/h (2 Bft)
12.04.2019 11:15 1,9 °C 89 % 1017,1 hPa 0,0 mm 4,2 km/h (1 Bft) N-NO 18 ° 0 min 0,000 mm 0,8 UV-I 116 W/m² 0,3 °C 1,9 °C 6,4 km/h (2 Bft)
12.04.2019 11:16 1,9 °C 88 % 1017,1 hPa 0,0 mm 3,1 km/h (1 Bft) O 101 ° 0 min 0,000 mm 0,8 UV-I 116 W/m² 0,1 °C 1,9 °C 4,8 km/h (1 Bft)
12.04.2019 11:17 1,9 °C 88 % 1017,1 hPa 0,0 mm 9,3 km/h (2 Bft) O-NO 70 ° 0 min 0,000 mm 0,8 UV-I 118 W/m² 0,1 °C -0,9 °C 14,5 km/h (3 Bft)
12.04.2019 11:18 1,9 °C 88 % 1017,1 hPa 0,0 mm 3,8 km/h (1 Bft) N-NO 31 ° 0 min 0,000 mm 0,9 UV-I 120 W/m² 0,1 °C 1,9 °C 6,4 km/h (2 Bft)
12.04.2019 11:19 2,0 °C 89 % 1017,1 hPa 0,0 mm 3,1 km/h (1 Bft) NO 40 ° 0 min 0,000 mm 0,9 UV-I 121 W/m² 0,4 °C 2,0 °C 6,4 km/h (2 Bft)
12.04.2019 11:20 2,0 °C 89 % 1017,1 hPa 0,0 mm 6,2 km/h (2 Bft) NO 53 ° 0 min 0,000 mm 0,9 UV-I 120 W/m² 0,4 °C 0,2 °C 9,7 km/h (2 Bft)
12.04.2019 11:21 2,0 °C 89 % 1017,1 hPa 0,0 mm 4,7 km/h (1 Bft) O-NO 59 ° 0 min 0,000 mm 0,8 UV-I 120 W/m² 0,4 °C 0,8 °C 6,4 km/h (2 Bft)
12.04.2019 11:22 1,9 °C 88 % 1017,1 hPa 0,0 mm 4,5 km/h (1 Bft) NO 44 ° 0 min 0,000 mm 0,8 UV-I 118 W/m² 0,1 °C 1,9 °C 8,0 km/h (2 Bft)
12.04.2019 11:23 1,9 °C 88 % 1017,2 hPa 0,0 mm 4,1 km/h (1 Bft) NO 46 ° 0 min 0,000 mm 0,8 UV-I 118 W/m² 0,1 °C 1,9 °C 6,4 km/h (2 Bft)
12.04.2019 11:24 2,0 °C 88 % 1017,2 hPa 0,0 mm 6,7 km/h (2 Bft) NO 42 ° 0 min 0,000 mm 0,8 UV-I 120 W/m² 0,2 °C 0,0 °C 8,0 km/h (2 Bft)
12.04.2019 11:25 2,0 °C 88 % 1017,1 hPa 0,0 mm 5,9 km/h (2 Bft) N 360 ° 0 min 0,000 mm 0,9 UV-I 130 W/m² 0,2 °C 0,3 °C 9,7 km/h (2 Bft)
12.04.2019 11:26 2,0 °C 88 % 1017,1 hPa 0,0 mm 4,4 km/h (1 Bft) N-NO 21 ° 0 min 0,000 mm 0,9 UV-I 134 W/m² 0,2 °C 2,0 °C 8,0 km/h (2 Bft)
12.04.2019 11:27 1,9 °C 88 % 1017,1 hPa 0,0 mm 5,8 km/h (2 Bft) NO 56 ° 0 min 0,000 mm 0,9 UV-I 134 W/m² 0,1 °C 0,2 °C 8,0 km/h (2 Bft)
12.04.2019 11:28 2,1 °C 88 % 1017,1 hPa 0,0 mm 3,8 km/h (1 Bft) NO 49 ° 0 min 0,000 mm 0,9 UV-I 132 W/m² 0,3 °C 2,1 °C 6,4 km/h (2 Bft)
12.04.2019 11:29 2,1 °C 89 % 1017,1 hPa 0,0 mm 3,2 km/h (1 Bft) N 360 ° 0 min 0,000 mm 1,0 UV-I 135 W/m² 0,5 °C 2,1 °C 4,8 km/h (1 Bft)
12.04.2019 11:30 2,1 °C 88 % 1017,1 hPa 0,0 mm 4,4 km/h (1 Bft) NO 51 ° 0 min 0,000 mm 1,0 UV-I 142 W/m² 0,3 °C 2,1 °C 4,8 km/h (1 Bft)
12.04.2019 11:31 2,2 °C 88 % 1017,1 hPa 0,0 mm 5,5 km/h (1 Bft) O-NO 61 ° 0 min 0,000 mm 1,1 UV-I 156 W/m² 0,4 °C 0,7 °C 6,4 km/h (2 Bft)
12.04.2019 11:32 2,2 °C 89 % 1017,1 hPa 0,0 mm 8,0 km/h (2 Bft) NO 53 ° 0 min 0,000 mm 1,1 UV-I 158 W/m² 0,6 °C -0,2 °C 12,9 km/h (3 Bft)
12.04.2019 11:33 2,2 °C 88 % 1017,0 hPa 0,0 mm 5,3 km/h (1 Bft) O-NO 66 ° 0 min 0,000 mm 1,2 UV-I 162 W/m² 0,4 °C 0,8 °C 8,0 km/h (2 Bft)
12.04.2019 11:34 2,2 °C 88 % 1017,0 hPa 0,0 mm 3,8 km/h (1 Bft) O-NO 59 ° 0 min 0,000 mm 1,2 UV-I 163 W/m² 0,4 °C 2,2 °C 8,0 km/h (2 Bft)
12.04.2019 11:35 2,2 °C 88 % 1017,0 hPa 0,0 mm 5,9 km/h (2 Bft) O-NO 66 ° 0 min 0,000 mm 1,1 UV-I 162 W/m² 0,4 °C 0,5 °C 8,0 km/h (2 Bft)
12.04.2019 11:36 2,2 °C 88 % 1017,0 hPa 0,0 mm 3,5 km/h (1 Bft) O-NO 63 ° 0 min 0,000 mm 1,1 UV-I 158 W/m² 0,4 °C 2,2 °C 6,4 km/h (2 Bft)
12.04.2019 11:37 2,1 °C 88 % 1017,0 hPa 0,0 mm 1,8 km/h (1 Bft) NO 34 ° 0 min 0,000 mm 1,1 UV-I 153 W/m² 0,3 °C 2,1 °C 6,4 km/h (2 Bft)
12.04.2019 11:38 2,1 °C 88 % 1017,0 hPa 0,0 mm 2,9 km/h (1 Bft) O-NO 65 ° 0 min 0,000 mm 1,1 UV-I 153 W/m² 0,3 °C 2,1 °C 6,4 km/h (2 Bft)
12.04.2019 11:39 2,1 °C 88 % 1017,0 hPa 0,0 mm 6,5 km/h (2 Bft) O-NO 60 ° 0 min 0,000 mm 1,1 UV-I 153 W/m² 0,3 °C 0,2 °C 9,7 km/h (2 Bft)
12.04.2019 11:40 2,2 °C 88 % 1017,0 hPa 0,0 mm 7,6 km/h (2 Bft) O-NO 73 ° 0 min 0,000 mm 1,1 UV-I 151 W/m² 0,4 °C -0,0 °C 12,9 km/h (3 Bft)
12.04.2019 11:41 2,1 °C 88 % 1017,0 hPa 0,0 mm 4,3 km/h (1 Bft) O-NO 74 ° 0 min 0,000 mm 1,1 UV-I 149 W/m² 0,3 °C 2,1 °C 6,4 km/h (2 Bft)
12.04.2019 11:42 2,1 °C 88 % 1017,0 hPa 0,0 mm 4,6 km/h (1 Bft) O-NO 77 ° 0 min 0,000 mm 1,1 UV-I 144 W/m² 0,3 °C 1,0 °C 6,4 km/h (2 Bft)
12.04.2019 11:43 2,1 °C 88 % 1017,0 hPa 0,0 mm 3,4 km/h (1 Bft) O-NO 64 ° 0 min 0,000 mm 1,0 UV-I 142 W/m² 0,3 °C 2,1 °C 8,0 km/h (2 Bft)
12.04.2019 11:44 2,1 °C 88 % 1017,0 hPa 0,0 mm 3,8 km/h (1 Bft) O-NO 57 ° 0 min 0,000 mm 1,0 UV-I 142 W/m² 0,3 °C 2,1 °C 6,4 km/h (2 Bft)
12.04.2019 11:45 2,1 °C 88 % 1017,0 hPa 0,0 mm 4,0 km/h (1 Bft) NO 36 ° 0 min 0,000 mm 1,0 UV-I 142 W/m² 0,3 °C 2,1 °C 6,4 km/h (2 Bft)
12.04.2019 11:46 2,1 °C 88 % 1017,0 hPa 0,0 mm 0,3 km/h (0 Bft) NO 51 ° 0 min 0,000 mm 1,0 UV-I 141 W/m² 0,3 °C 2,1 °C 3,2 km/h (1 Bft)
12.04.2019 11:47 2,1 °C 88 % 1017,0 hPa 0,0 mm 5,6 km/h (1 Bft) O-SO 107 ° 0 min 0,000 mm 1,0 UV-I 139 W/m² 0,3 °C 0,5 °C 6,4 km/h (2 Bft)
12.04.2019 11:48 2,1 °C 88 % 1017,0 hPa 0,0 mm 5,6 km/h (1 Bft) O 81 ° 0 min 0,000 mm 1,0 UV-I 141 W/m² 0,3 °C 0,5 °C 6,4 km/h (2 Bft)
12.04.2019 11:49 2,2 °C 88 % 1017,0 hPa 0,0 mm 1,8 km/h (1 Bft) O 79 ° 0 min 0,000 mm 1,0 UV-I 141 W/m² 0,4 °C 2,2 °C 3,2 km/h (1 Bft)
12.04.2019 11:50 2,2 °C 88 % 1017,0 hPa 0,0 mm 2,8 km/h (1 Bft) O-NO 71 ° 0 min 0,000 mm 1,0 UV-I 141 W/m² 0,4 °C 2,2 °C 4,8 km/h (1 Bft)
12.04.2019 11:51 2,2 °C 88 % 1017,0 hPa 0,0 mm 1,4 km/h (1 Bft) O-NO 72 ° 0 min 0,000 mm 1,1 UV-I 142 W/m² 0,4 °C 2,2 °C 4,8 km/h (1 Bft)
12.04.2019 11:52 2,2 °C 88 % 1017,0 hPa 0,0 mm 3,3 km/h (1 Bft) O-NO 74 ° 0 min 0,000 mm 1,1 UV-I 148 W/m² 0,4 °C 2,2 °C 4,8 km/h (1 Bft)
12.04.2019 11:53 2,2 °C 88 % 1017,0 hPa 0,0 mm 6,1 km/h (2 Bft) O-NO 78 ° 0 min 0,000 mm 1,1 UV-I 153 W/m² 0,4 °C 0,5 °C 8,0 km/h (2 Bft)
12.04.2019 11:54 2,3 °C 88 % 1017,0 hPa 0,0 mm 3,9 km/h (1 Bft) O-NO 77 ° 0 min 0,000 mm 1,1 UV-I 153 W/m² 0,5 °C 2,3 °C 6,4 km/h (2 Bft)
12.04.2019 11:55 2,2 °C 88 % 1017,1 hPa 0,0 mm 5,0 km/h (1 Bft) O 90 ° 0 min 0,000 mm 1,1 UV-I 153 W/m² 0,4 °C 0,9 °C 9,7 km/h (2 Bft)
12.04.2019 11:56 2,3 °C 89 % 1017,0 hPa 0,0 mm 7,5 km/h (2 Bft) O-NO 74 ° 0 min 0,000 mm 1,1 UV-I 155 W/m² 0,7 °C 0,1 °C 11,3 km/h (2 Bft)
12.04.2019 11:57 2,3 °C 88 % 1017,0 hPa 0,0 mm 8,6 km/h (2 Bft) O-NO 78 ° 0 min 0,000 mm 1,1 UV-I 156 W/m² 0,5 °C -0,2 °C 11,3 km/h (2 Bft)
12.04.2019 11:58 2,3 °C 88 % 1017,0 hPa 0,0 mm 4,1 km/h (1 Bft) NO 46 ° 0 min 0,000 mm 1,1 UV-I 158 W/m² 0,5 °C 2,3 °C 8,0 km/h (2 Bft)
12.04.2019 11:59 2,3 °C 88 % 1017,0 hPa 0,0 mm 3,6 km/h (1 Bft) O-NO 75 ° 0 min 0,000 mm 1,1 UV-I 158 W/m² 0,5 °C 2,3 °C 6,4 km/h (2 Bft)
12.04.2019 12:00 2,3 °C 88 % 1017,0 hPa 0,0 mm 5,4 km/h (1 Bft) O-NO 74 ° 0 min 0,000 mm 1,1 UV-I 155 W/m² 0,5 °C 0,9 °C 8,0 km/h (2 Bft)
12.04.2019 12:01 2,3 °C 88 % 1017,0 hPa 0,0 mm 5,1 km/h (1 Bft) O 82 ° 0 min 0,051 mm 1,1 UV-I 153 W/m² 0,5 °C 1,0 °C 6,4 km/h (2 Bft)
12.04.2019 12:02 2,3 °C 88 % 1017,0 hPa 0,0 mm 3,8 km/h (1 Bft) O 80 ° 0 min 0,000 mm 1,1 UV-I 151 W/m² 0,5 °C 2,3 °C 4,8 km/h (1 Bft)
12.04.2019 12:03 2,3 °C 88 % 1017,0 hPa 0,0 mm 2,1 km/h (1 Bft) O-NO 59 ° 0 min 0,000 mm 1,1 UV-I 155 W/m² 0,5 °C 2,3 °C 4,8 km/h (1 Bft)
12.04.2019 12:04 2,3 °C 88 % 1017,1 hPa 0,0 mm 3,6 km/h (1 Bft) NO 45 ° 0 min 0,000 mm 1,2 UV-I 162 W/m² 0,5 °C 2,3 °C 6,4 km/h (2 Bft)
12.04.2019 12:05 2,3 °C 88 % 1017,0 hPa 0,0 mm 3,0 km/h (1 Bft) NO 49 ° 0 min 0,000 mm 1,2 UV-I 165 W/m² 0,5 °C 2,3 °C 6,4 km/h (2 Bft)
12.04.2019 12:06 2,4 °C 88 % 1017,0 hPa 0,0 mm 1,0 km/h (0 Bft) NO 50 ° 0 min 0,000 mm 1,2 UV-I 169 W/m² 0,6 °C 2,4 °C 4,8 km/h (1 Bft)
12.04.2019 12:07 2,6 °C 88 % 1017,0 hPa 0,0 mm 3,9 km/h (1 Bft) N-NO 25 ° 0 min 0,000 mm 1,2 UV-I 171 W/m² 0,8 °C 2,6 °C 8,0 km/h (2 Bft)
12.04.2019 12:08 2,6 °C 88 % 1017,0 hPa 0,0 mm 7,1 km/h (2 Bft) N-NO 32 ° 0 min 0,000 mm 1,2 UV-I 172 W/m² 0,8 °C 0,6 °C 11,3 km/h (2 Bft)
12.04.2019 12:09 2,5 °C 87 % 1017,0 hPa 0,0 mm 3,9 km/h (1 Bft) NO 40 ° 0 min 0,000 mm 1,3 UV-I 174 W/m² 0,6 °C 2,5 °C 8,0 km/h (2 Bft)
12.04.2019 12:10 2,6 °C 87 % 1017,0 hPa 0,0 mm 5,3 km/h (1 Bft) NO 51 ° 0 min 0,000 mm 1,2 UV-I 172 W/m² 0,7 °C 1,2 °C 8,0 km/h (2 Bft)
12.04.2019 12:11 2,6 °C 87 % 1017,0 hPa 0,0 mm 1,7 km/h (1 Bft) NO 51 ° 0 min 0,000 mm 1,2 UV-I 171 W/m² 0,7 °C 2,6 °C 6,4 km/h (2 Bft)
12.04.2019 12:12 2,6 °C 87 % 1017,0 hPa 0,0 mm 2,1 km/h (1 Bft) O 92 ° 0 min 0,000 mm 1,3 UV-I 181 W/m² 0,7 °C 2,6 °C 4,8 km/h (1 Bft)
12.04.2019 12:13 2,6 °C 88 % 1017,0 hPa 0,0 mm 6,0 km/h (2 Bft) O 85 ° 0 min 0,000 mm 1,4 UV-I 197 W/m² 0,8 °C 1,0 °C 11,3 km/h (2 Bft)
12.04.2019 12:14 2,6 °C 88 % 1017,0 hPa 0,0 mm 7,9 km/h (2 Bft) O-NO 74 ° 0 min 0,000 mm 1,5 UV-I 206 W/m² 0,8 °C 0,3 °C 11,3 km/h (2 Bft)
12.04.2019 12:15 2,5 °C 87 % 1017,0 hPa 0,0 mm 8,8 km/h (2 Bft) O-NO 77 ° 0 min 0,000 mm 1,6 UV-I 216 W/m² 0,6 °C -0,0 °C 12,9 km/h (3 Bft)
12.04.2019 12:16 2,4 °C 87 % 1017,0 hPa 0,0 mm 5,5 km/h (1 Bft) O-NO 72 ° 0 min 0,000 mm 1,7 UV-I 230 W/m² 0,5 °C 0,9 °C 8,0 km/h (2 Bft)
12.04.2019 12:17 2,4 °C 87 % 1017,0 hPa 0,0 mm 4,6 km/h (1 Bft) NO 49 ° 0 min 0,000 mm 1,7 UV-I 236 W/m² 0,5 °C 1,3 °C 6,4 km/h (2 Bft)
12.04.2019 12:18 2,5 °C 87 % 1016,9 hPa 0,0 mm 5,6 km/h (1 Bft) O-NO 75 ° 0 min 0,000 mm 1,7 UV-I 229 W/m² 0,6 °C 1,0 °C 8,0 km/h (2 Bft)
12.04.2019 12:19 2,6 °C 87 % 1016,9 hPa 0,0 mm 6,1 km/h (2 Bft) NO 37 ° 0 min 0,000 mm 1,7 UV-I 230 W/m² 0,7 °C 0,9 °C 11,3 km/h (2 Bft)
12.04.2019 12:20 2,7 °C 87 % 1016,9 hPa 0,0 mm 4,2 km/h (1 Bft) O-NO 63 ° 0 min 0,000 mm 1,7 UV-I 232 W/m² 0,8 °C 2,7 °C 6,4 km/h (2 Bft)
12.04.2019 12:21 2,7 °C 87 % 1017,0 hPa 0,0 mm 6,1 km/h (2 Bft) O-NO 63 ° 0 min 0,000 mm 1,7 UV-I 237 W/m² 0,8 °C 1,0 °C 9,7 km/h (2 Bft)
12.04.2019 12:22 2,7 °C 87 % 1017,0 hPa 0,0 mm 5,6 km/h (1 Bft) O-NO 69 ° 0 min 0,000 mm 1,8 UV-I 243 W/m² 0,8 °C 1,2 °C 8,0 km/h (2 Bft)
12.04.2019 12:23 2,8 °C 87 % 1017,0 hPa 0,0 mm 4,6 km/h (1 Bft) NO 49 ° 0 min 0,000 mm 1,7 UV-I 237 W/m² 0,9 °C 1,8 °C 11,3 km/h (2 Bft)
12.04.2019 12:24 2,7 °C 87 % 1016,9 hPa 0,0 mm 4,7 km/h (1 Bft) NO 39 ° 0 min 0,000 mm 1,7 UV-I 237 W/m² 0,8 °C 1,6 °C 9,7 km/h (2 Bft)
12.04.2019 12:25 2,7 °C 87 % 1016,9 hPa 0,0 mm 7,6 km/h (2 Bft) NO 53 ° 0 min 0,000 mm 1,8 UV-I 241 W/m² 0,8 °C 0,6 °C 9,7 km/h (2 Bft)
12.04.2019 12:26 2,7 °C 86 % 1017,0 hPa 0,0 mm 6,8 km/h (2 Bft) N-NO 15 ° 0 min 0,000 mm 1,7 UV-I 239 W/m² 0,6 °C 0,8 °C 8,0 km/h (2 Bft)
12.04.2019 12:27 2,7 °C 86 % 1017,0 hPa 0,0 mm 5,6 km/h (1 Bft) N-NO 32 ° 0 min 0,000 mm 1,7 UV-I 237 W/m² 0,6 °C 1,2 °C 8,0 km/h (2 Bft)
12.04.2019 12:28 2,8 °C 86 % 1017,0 hPa 0,0 mm 6,0 km/h (2 Bft) O-NO 74 ° 0 min 0,000 mm 1,8 UV-I 243 W/m² 0,7 °C 1,2 °C 11,3 km/h (2 Bft)
12.04.2019 12:29 2,8 °C 87 % 1017,0 hPa 0,0 mm 8,0 km/h (2 Bft) O-SO 103 ° 0 min 0,000 mm 1,9 UV-I 283 W/m² 0,9 °C 0,6 °C 11,3 km/h (2 Bft)
12.04.2019 12:30 2,8 °C 86 % 1017,0 hPa 0,0 mm 6,4 km/h (2 Bft) O 93 ° 0 min 0,000 mm 2,1 UV-I 292 W/m² 0,7 °C 1,1 °C 11,3 km/h (2 Bft)
12.04.2019 12:31 2,9 °C 87 % 1017,0 hPa 0,0 mm 4,2 km/h (1 Bft) O 83 ° 0 min 0,000 mm 2,0 UV-I 287 W/m² 1,0 °C 2,9 °C 4,8 km/h (1 Bft)
12.04.2019 12:32 2,9 °C 87 % 1016,9 hPa 0,0 mm 5,6 km/h (1 Bft) O-NO 78 ° 0 min 0,000 mm 2,0 UV-I 283 W/m² 1,0 °C 1,5 °C 9,7 km/h (2 Bft)
12.04.2019 12:33 2,9 °C 86 % 1017,0 hPa 0,0 mm 5,5 km/h (1 Bft) O-NO 77 ° 0 min 0,000 mm 2,1 UV-I 292 W/m² 0,8 °C 1,5 °C 8,0 km/h (2 Bft)
12.04.2019 12:34 2,9 °C 86 % 1017,0 hPa 0,0 mm 4,5 km/h (1 Bft) NO 47 ° 0 min 0,000 mm 2,1 UV-I 295 W/m² 0,8 °C 2,9 °C 8,0 km/h (2 Bft)
12.04.2019 12:35 2,9 °C 87 % 1017,0 hPa 0,0 mm 6,4 km/h (2 Bft) NO 51 ° 0 min 0,000 mm 2,1 UV-I 294 W/m² 1,0 °C 1,2 °C 11,3 km/h (2 Bft)
12.04.2019 12:36 3,1 °C 87 % 1017,0 hPa 0,0 mm 2,5 km/h (1 Bft) O-NO 70 ° 0 min 0,000 mm 2,1 UV-I 292 W/m² 1,2 °C 3,1 °C 8,0 km/h (2 Bft)
12.04.2019 12:37 3,1 °C 87 % 1017,0 hPa 0,0 mm 3,1 km/h (1 Bft) O-NO 58 ° 0 min 0,000 mm 2,1 UV-I 285 W/m² 1,2 °C 3,1 °C 6,4 km/h (2 Bft)
12.04.2019 12:38 3,1 °C 87 % 1017,0 hPa 0,0 mm 1,1 km/h (1 Bft) O-NO 58 ° 0 min 0,000 mm 2,1 UV-I 279 W/m² 1,2 °C 3,1 °C 3,2 km/h (1 Bft)
12.04.2019 12:39 3,0 °C 86 % 1017,0 hPa 0,0 mm 3,3 km/h (1 Bft) O 88 ° 0 min 0,000 mm 2,1 UV-I 283 W/m² 0,9 °C 3,0 °C 6,4 km/h (2 Bft)
12.04.2019 12:40 3,0 °C 86 % 1016,9 hPa 0,0 mm 6,0 km/h (2 Bft) NO 51 ° 0 min 0,000 mm 2,1 UV-I 287 W/m² 0,9 °C 1,4 °C 9,7 km/h (2 Bft)
12.04.2019 12:41 3,0 °C 86 % 1016,9 hPa 0,0 mm 5,9 km/h (2 Bft) NO 41 ° 0 min 0,000 mm 2,2 UV-I 295 W/m² 0,9 °C 1,5 °C 11,3 km/h (2 Bft)
12.04.2019 12:42 3,1 °C 86 % 1017,0 hPa 0,0 mm 6,3 km/h (2 Bft) NO 52 ° 0 min 0,000 mm 2,3 UV-I 308 W/m² 1,0 °C 1,4 °C 11,3 km/h (2 Bft)
12.04.2019 12:43 3,2 °C 86 % 1017,0 hPa 0,0 mm 9,7 km/h (2 Bft) N-NO 30 ° 0 min 0,000 mm 2,4 UV-I 329 W/m² 1,1 °C 0,6 °C 14,5 km/h (3 Bft)
12.04.2019 12:44 3,2 °C 86 % 1016,9 hPa 0,0 mm 6,6 km/h (2 Bft) N-NO 26 ° 0 min 0,000 mm 2,5 UV-I 343 W/m² 1,1 °C 1,4 °C 11,3 km/h (2 Bft)
12.04.2019 12:45 3,2 °C 85 % 1016,9 hPa 0,0 mm 7,7 km/h (2 Bft) N-NO 32 ° 0 min 0,000 mm 2,5 UV-I 345 W/m² 0,9 °C 1,1 °C 12,9 km/h (3 Bft)
12.04.2019 12:46 3,2 °C 85 % 1016,9 hPa 0,0 mm 5,0 km/h (1 Bft) N-NO 15 ° 0 min 0,000 mm 2,4 UV-I 339 W/m² 0,9 °C 2,0 °C 6,4 km/h (2 Bft)
12.04.2019 12:47 3,2 °C 85 % 1016,9 hPa 0,0 mm 4,5 km/h (1 Bft) NO 44 ° 0 min 0,000 mm 2,4 UV-I 316 W/m² 0,9 °C 3,2 °C 8,0 km/h (2 Bft)
12.04.2019 12:48 3,2 °C 85 % 1016,9 hPa 0,0 mm 5,3 km/h (1 Bft) O 88 ° 0 min 0,000 mm 2,3 UV-I 311 W/m² 0,9 °C 1,9 °C 6,4 km/h (2 Bft)
12.04.2019 12:49 3,2 °C 84 % 1016,9 hPa 0,0 mm 5,3 km/h (1 Bft) O-NO 61 ° 0 min 0,000 mm 2,2 UV-I 306 W/m² 0,8 °C 1,9 °C 9,7 km/h (2 Bft)
12.04.2019 12:50 3,2 °C 85 % 1017,0 hPa 0,0 mm 5,5 km/h (1 Bft) O-NO 71 ° 0 min 0,000 mm 2,2 UV-I 297 W/m² 0,9 °C 1,8 °C 11,3 km/h (2 Bft)
12.04.2019 12:51 3,2 °C 85 % 1016,9 hPa 0,0 mm 3,9 km/h (1 Bft) NO 51 ° 0 min 0,000 mm 2,2 UV-I 294 W/m² 0,9 °C 3,2 °C 8,0 km/h (2 Bft)
12.04.2019 12:52 3,3 °C 85 % 1016,9 hPa 0,0 mm 6,6 km/h (2 Bft) O 86 ° 0 min 0,000 mm 2,2 UV-I 302 W/m² 1,0 °C 1,6 °C 12,9 km/h (3 Bft)
12.04.2019 12:53 3,3 °C 85 % 1016,9 hPa 0,0 mm 3,9 km/h (1 Bft) O 79 ° 0 min 0,000 mm 2,3 UV-I 323 W/m² 1,0 °C 3,3 °C 11,3 km/h (2 Bft)
12.04.2019 12:54 3,3 °C 85 % 1016,9 hPa 0,0 mm 1,7 km/h (1 Bft) NO 52 ° 0 min 0,000 mm 2,2 UV-I 309 W/m² 1,0 °C 3,3 °C 4,8 km/h (1 Bft)
12.04.2019 12:55 3,3 °C 85 % 1016,9 hPa 0,0 mm 6,8 km/h (2 Bft) O-NO 75 ° 0 min 0,000 mm 2,1 UV-I 301 W/m² 1,0 °C 1,5 °C 11,3 km/h (2 Bft)
12.04.2019 12:56 3,3 °C 85 % 1016,9 hPa 0,0 mm 7,2 km/h (2 Bft) NO 40 ° 0 min 0,000 mm 2,1 UV-I 297 W/m² 1,0 °C 1,4 °C 12,9 km/h (3 Bft)
12.04.2019 12:57 3,3 °C 85 % 1016,9 hPa 0,0 mm 1,3 km/h (1 Bft) O 95 ° 0 min 0,000 mm 2,1 UV-I 292 W/m² 1,0 °C 3,3 °C 8,0 km/h (2 Bft)
12.04.2019 12:58 3,3 °C 85 % 1016,9 hPa 0,0 mm 2,9 km/h (1 Bft) O-NO 76 ° 0 min 0,000 mm 2,1 UV-I 288 W/m² 1,0 °C 3,3 °C 4,8 km/h (1 Bft)
12.04.2019 12:59 3,3 °C 84 % 1016,9 hPa 0,0 mm 6,7 km/h (2 Bft) NO 51 ° 0 min 0,000 mm 2,1 UV-I 287 W/m² 0,9 °C 1,5 °C 11,3 km/h (2 Bft)
12.04.2019 13:00 3,4 °C 85 % 1017,0 hPa 0,0 mm 5,8 km/h (2 Bft) O-NO 65 ° 0 min 0,000 mm 2,1 UV-I 287 W/m² 1,1 °C 2,0 °C 8,0 km/h (2 Bft)
12.04.2019 13:01 3,4 °C 85 % 1016,9 hPa 0,0 mm 5,9 km/h (2 Bft) O-NO 57 ° 0 min 0,102 mm 2,2 UV-I 297 W/m² 1,1 °C 1,9 °C 8,0 km/h (2 Bft)
12.04.2019 13:02 3,5 °C 84 % 1016,9 hPa 0,0 mm 4,1 km/h (1 Bft) NO 51 ° 0 min 0,000 mm 2,3 UV-I 313 W/m² 1,1 °C 3,5 °C 8,0 km/h (2 Bft)
12.04.2019 13:03 3,5 °C 84 % 1016,9 hPa 0,0 mm 3,6 km/h (1 Bft) O-NO 68 ° 0 min 0,000 mm 2,4 UV-I 327 W/m² 1,1 °C 3,5 °C 11,3 km/h (2 Bft)
12.04.2019 13:04 3,6 °C 85 % 1016,9 hPa 0,0 mm 5,7 km/h (1 Bft) O 80 ° 0 min 0,000 mm 2,4 UV-I 345 W/m² 1,3 °C 2,2 °C 9,7 km/h (2 Bft)
12.04.2019 13:05 3,6 °C 85 % 1016,9 hPa 0,0 mm 4,3 km/h (1 Bft) NO 52 ° 0 min 0,000 mm 2,5 UV-I 343 W/m² 1,3 °C 3,6 °C 6,4 km/h (2 Bft)
12.04.2019 13:06 3,6 °C 84 % 1016,9 hPa 0,0 mm 6,4 km/h (2 Bft) NO 50 ° 0 min 0,000 mm 2,5 UV-I 346 W/m² 1,2 °C 2,0 °C 9,7 km/h (2 Bft)
12.04.2019 13:07 3,5 °C 83 % 1016,9 hPa 0,0 mm 6,4 km/h (2 Bft) NO 51 ° 0 min 0,000 mm 2,5 UV-I 343 W/m² 0,9 °C 1,9 °C 9,7 km/h (2 Bft)
12.04.2019 13:08 3,5 °C 83 % 1016,9 hPa 0,0 mm 6,6 km/h (2 Bft) NO 53 ° 0 min 0,000 mm 2,4 UV-I 325 W/m² 0,9 °C 1,8 °C 9,7 km/h (2 Bft)
12.04.2019 13:09 3,5 °C 83 % 1016,8 hPa 0,0 mm 6,0 km/h (2 Bft) O 80 ° 0 min 0,000 mm 2,2 UV-I 304 W/m² 0,9 °C 2,0 °C 9,7 km/h (2 Bft)
12.04.2019 13:10 3,6 °C 84 % 1016,8 hPa 0,0 mm 3,0 km/h (1 Bft) NO 42 ° 0 min 0,000 mm 2,2 UV-I 288 W/m² 1,2 °C 3,6 °C 11,3 km/h (2 Bft)
12.04.2019 13:11 3,5 °C 83 % 1016,8 hPa 0,0 mm 4,7 km/h (1 Bft) O-NO 75 ° 0 min 0,000 mm 2,2 UV-I 288 W/m² 0,9 °C 2,5 °C 12,9 km/h (3 Bft)
12.04.2019 13:12 3,6 °C 84 % 1016,8 hPa 0,0 mm 6,4 km/h (2 Bft) O-NO 71 ° 0 min 0,000 mm 2,2 UV-I 290 W/m² 1,2 °C 2,0 °C 12,9 km/h (3 Bft)
12.04.2019 13:13 3,5 °C 84 % 1016,9 hPa 0,0 mm 4,0 km/h (1 Bft) O 90 ° 0 min 0,000 mm 2,2 UV-I 290 W/m² 1,1 °C 3,5 °C 9,7 km/h (2 Bft)
12.04.2019 13:14 3,5 °C 84 % 1016,8 hPa 0,0 mm 1,9 km/h (1 Bft) N-NO 24 ° 0 min 0,000 mm 2,1 UV-I 278 W/m² 1,1 °C 3,5 °C 4,8 km/h (1 Bft)
12.04.2019 13:15 3,7 °C 85 % 1016,8 hPa 0,0 mm 6,0 km/h (2 Bft) O 80 ° 0 min 0,000 mm 2,0 UV-I 264 W/m² 1,4 °C 2,2 °C 8,0 km/h (2 Bft)
12.04.2019 13:16 3,7 °C 84 % 1016,8 hPa 0,0 mm 5,1 km/h (1 Bft) NO 36 ° 0 min 0,000 mm 2,0 UV-I 267 W/m² 1,3 °C 2,6 °C 11,3 km/h (2 Bft)
12.04.2019 13:17 3,8 °C 84 % 1016,8 hPa 0,0 mm 5,0 km/h (1 Bft) O-NO 62 ° 0 min 0,000 mm 2,3 UV-I 297 W/m² 1,4 °C 2,7 °C 6,4 km/h (2 Bft)
12.04.2019 13:18 3,8 °C 84 % 1016,9 hPa 0,0 mm 5,0 km/h (1 Bft) O 84 ° 0 min 0,000 mm 2,3 UV-I 308 W/m² 1,4 °C 2,7 °C 8,0 km/h (2 Bft)
12.04.2019 13:19 3,9 °C 84 % 1016,8 hPa 0,0 mm 7,9 km/h (2 Bft) NO 40 ° 0 min 0,000 mm 2,2 UV-I 308 W/m² 1,4 °C 1,9 °C 16,1 km/h (3 Bft)
12.04.2019 13:20 3,9 °C 82 % 1016,9 hPa 0,0 mm 5,0 km/h (1 Bft) N-NO 28 ° 0 min 0,000 mm 2,2 UV-I 306 W/m² 1,1 °C 2,8 °C 8,0 km/h (2 Bft)
12.04.2019 13:21 3,9 °C 83 % 1016,8 hPa 0,0 mm 6,9 km/h (2 Bft) O-NO 58 ° 0 min 0,000 mm 2,2 UV-I 308 W/m² 1,3 °C 2,2 °C 9,7 km/h (2 Bft)
12.04.2019 13:22 3,9 °C 82 % 1016,8 hPa 0,0 mm 5,8 km/h (2 Bft) NO 38 ° 0 min 0,000 mm 2,2 UV-I 304 W/m² 1,1 °C 2,5 °C 8,0 km/h (2 Bft)
12.04.2019 13:23 3,8 °C 82 % 1016,8 hPa 0,0 mm 4,9 km/h (1 Bft) NO 35 ° 0 min 0,000 mm 2,1 UV-I 304 W/m² 1,0 °C 2,8 °C 8,0 km/h (2 Bft)
12.04.2019 13:24 3,8 °C 82 % 1016,9 hPa 0,0 mm 1,5 km/h (1 Bft) NO 35 ° 0 min 0,000 mm 2,2 UV-I 318 W/m² 1,0 °C 3,8 °C 6,4 km/h (2 Bft)
12.04.2019 13:25 3,8 °C 82 % 1016,9 hPa 0,0 mm 3,8 km/h (1 Bft) O-NO 67 ° 0 min 0,000 mm 2,1 UV-I 311 W/m² 1,0 °C 3,8 °C 6,4 km/h (2 Bft)
12.04.2019 13:26 3,8 °C 82 % 1016,8 hPa 0,0 mm 4,4 km/h (1 Bft) O 90 ° 0 min 0,000 mm 2,1 UV-I 308 W/m² 1,0 °C 3,8 °C 8,0 km/h (2 Bft)
12.04.2019 13:27 3,8 °C 83 % 1016,8 hPa 0,0 mm 7,8 km/h (2 Bft) O 85 ° 0 min 0,000 mm 2,1 UV-I 308 W/m² 1,2 °C 1,8 °C 11,3 km/h (2 Bft)
12.04.2019 13:28 3,9 °C 83 % 1016,8 hPa 0,0 mm 8,3 km/h (2 Bft) O 80 ° 0 min 0,000 mm 2,1 UV-I 278 W/m² 1,3 °C 1,8 °C 12,9 km/h (3 Bft)
12.04.2019 13:29 3,8 °C 83 % 1016,8 hPa 0,0 mm 9,8 km/h (2 Bft) O-NO 62 ° 0 min 0,000 mm 1,9 UV-I 267 W/m² 1,2 °C 1,3 °C 14,5 km/h (3 Bft)
12.04.2019 13:30 3,8 °C 82 % 1016,8 hPa 0,0 mm 9,1 km/h (2 Bft) O-NO 74 ° 0 min 0,000 mm 1,9 UV-I 264 W/m² 1,0 °C 1,4 °C 14,5 km/h (3 Bft)
12.04.2019 13:31 3,8 °C 81 % 1016,9 hPa 0,0 mm 4,6 km/h (1 Bft) O-NO 64 ° 0 min 0,000 mm 1,9 UV-I 262 W/m² 0,8 °C 2,9 °C 6,4 km/h (2 Bft)
12.04.2019 13:32 3,8 °C 82 % 1016,8 hPa 0,0 mm 4,1 km/h (1 Bft) O 88 ° 0 min 0,000 mm 2,0 UV-I 269 W/m² 1,0 °C 3,8 °C 8,0 km/h (2 Bft)
12.04.2019 13:33 3,7 °C 81 % 1016,9 hPa 0,0 mm 3,4 km/h (1 Bft) O-NO 67 ° 0 min 0,000 mm 2,0 UV-I 271 W/m² 0,7 °C 3,7 °C 6,4 km/h (2 Bft)
12.04.2019 13:34 3,7 °C 82 % 1016,9 hPa 0,0 mm 4,6 km/h (1 Bft) O-NO 67 ° 0 min 0,000 mm 2,0 UV-I 260 W/m² 0,9 °C 2,8 °C 6,4 km/h (2 Bft)
12.04.2019 13:35 3,7 °C 82 % 1016,9 hPa 0,0 mm 6,5 km/h (2 Bft) NO 55 ° 0 min 0,000 mm 2,0 UV-I 260 W/m² 0,9 °C 2,1 °C 9,7 km/h (2 Bft)
12.04.2019 13:36 3,7 °C 82 % 1016,9 hPa 0,0 mm 4,5 km/h (1 Bft) NO 46 ° 0 min 0,000 mm 2,0 UV-I 267 W/m² 0,9 °C 3,7 °C 12,9 km/h (3 Bft)
12.04.2019 13:37 3,8 °C 83 % 1016,9 hPa 0,0 mm 5,8 km/h (2 Bft) O 85 ° 0 min 0,000 mm 2,2 UV-I 287 W/m² 1,2 °C 2,4 °C 9,7 km/h (2 Bft)
12.04.2019 13:38 3,9 °C 82 % 1016,9 hPa 0,0 mm 5,0 km/h (1 Bft) O 94 ° 0 min 0,000 mm 2,3 UV-I 309 W/m² 1,1 °C 2,8 °C 9,7 km/h (2 Bft)
12.04.2019 13:39 4,0 °C 83 % 1016,9 hPa 0,0 mm 6,2 km/h (2 Bft) O-NO 69 ° 0 min 0,000 mm 2,4 UV-I 322 W/m² 1,4 °C 2,5 °C 12,9 km/h (3 Bft)
12.04.2019 13:40 4,0 °C 82 % 1016,9 hPa 0,0 mm 5,3 km/h (1 Bft) O-NO 60 ° 0 min 0,000 mm 2,5 UV-I 345 W/m² 1,2 °C 2,8 °C 8,0 km/h (2 Bft)
12.04.2019 13:41 4,1 °C 81 % 1016,9 hPa 0,0 mm 4,0 km/h (1 Bft) NO 55 ° 0 min 0,000 mm 2,5 UV-I 343 W/m² 1,1 °C 4,1 °C 8,0 km/h (2 Bft)
12.04.2019 13:42 4,1 °C 82 % 1016,9 hPa 0,0 mm 5,0 km/h (1 Bft) NO 52 ° 0 min 0,000 mm 2,5 UV-I 343 W/m² 1,3 °C 3,1 °C 9,7 km/h (2 Bft)
12.04.2019 13:43 4,1 °C 81 % 1016,9 hPa 0,0 mm 5,4 km/h (1 Bft) NO 39 ° 0 min 0,000 mm 2,4 UV-I 332 W/m² 1,1 °C 2,9 °C 12,9 km/h (3 Bft)
12.04.2019 13:44 4,2 °C 82 % 1016,9 hPa 0,0 mm 7,2 km/h (2 Bft) NO 41 ° 0 min 0,000 mm 2,4 UV-I 327 W/m² 1,4 °C 2,4 °C 14,5 km/h (3 Bft)
12.04.2019 13:45 4,2 °C 81 % 1016,9 hPa 0,0 mm 7,1 km/h (2 Bft) O-NO 57 ° 0 min 0,000 mm 2,3 UV-I 323 W/m² 1,2 °C 2,5 °C 12,9 km/h (3 Bft)
12.04.2019 13:46 4,2 °C 80 % 1016,8 hPa 0,0 mm 9,1 km/h (2 Bft) NO 44 ° 0 min 0,000 mm 2,3 UV-I 323 W/m² 1,1 °C 1,9 °C 12,9 km/h (3 Bft)
12.04.2019 13:47 4,3 °C 80 % 1016,9 hPa 0,0 mm 4,3 km/h (1 Bft) NO 44 ° 0 min 0,000 mm 2,3 UV-I 320 W/m² 1,2 °C 4,3 °C 6,4 km/h (2 Bft)
12.04.2019 13:48 4,3 °C 80 % 1016,9 hPa 0,0 mm 5,2 km/h (1 Bft) N-NO 28 ° 0 min 0,000 mm 2,2 UV-I 316 W/m² 1,2 °C 3,2 °C 8,0 km/h (2 Bft)
12.04.2019 13:49 4,3 °C 81 % 1016,9 hPa 0,0 mm 7,8 km/h (2 Bft) O-NO 69 ° 0 min 0,000 mm 2,3 UV-I 318 W/m² 1,3 °C 2,4 °C 12,9 km/h (3 Bft)
12.04.2019 13:50 4,3 °C 81 % 1016,8 hPa 0,0 mm 5,8 km/h (2 Bft) NO 47 ° 0 min 0,000 mm 2,4 UV-I 332 W/m² 1,3 °C 3,0 °C 9,7 km/h (2 Bft)
12.04.2019 13:51 4,3 °C 81 % 1016,8 hPa 0,0 mm 8,0 km/h (2 Bft) O-NO 59 ° 0 min 0,000 mm 2,5 UV-I 388 W/m² 1,3 °C 2,3 °C 12,9 km/h (3 Bft)
12.04.2019 13:52 4,3 °C 80 % 1016,9 hPa 0,0 mm 6,2 km/h (2 Bft) O-NO 67 ° 0 min 0,000 mm 2,8 UV-I 424 W/m² 1,2 °C 2,9 °C 12,9 km/h (3 Bft)
12.04.2019 13:53 4,3 °C 81 % 1016,8 hPa 0,0 mm 6,2 km/h (2 Bft) O 95 ° 0 min 0,000 mm 2,7 UV-I 390 W/m² 1,3 °C 2,9 °C 9,7 km/h (2 Bft)
12.04.2019 13:54 4,3 °C 81 % 1016,9 hPa 0,0 mm 6,0 km/h (2 Bft) O-SO 121 ° 0 min 0,000 mm 2,6 UV-I 378 W/m² 1,3 °C 2,9 °C 9,7 km/h (2 Bft)
12.04.2019 13:55 4,3 °C 81 % 1016,9 hPa 0,0 mm 6,4 km/h (2 Bft) NO 49 ° 0 min 0,000 mm 2,5 UV-I 362 W/m² 1,3 °C 2,8 °C 8,0 km/h (2 Bft)
12.04.2019 13:56 4,3 °C 81 % 1016,9 hPa 0,0 mm 6,1 km/h (2 Bft) O 98 ° 0 min 0,000 mm 2,4 UV-I 350 W/m² 1,3 °C 2,9 °C 8,0 km/h (2 Bft)
12.04.2019 13:57 4,3 °C 81 % 1016,9 hPa 0,0 mm 3,8 km/h (1 Bft) O-NO 77 ° 0 min 0,000 mm 2,3 UV-I 311 W/m² 1,3 °C 4,3 °C 9,7 km/h (2 Bft)
12.04.2019 13:58 4,4 °C 81 % 1016,9 hPa 0,0 mm 4,2 km/h (1 Bft) O 94 ° 0 min 0,000 mm 1,9 UV-I 281 W/m² 1,4 °C 4,4 °C 4,8 km/h (1 Bft)
12.04.2019 13:59 4,5 °C 81 % 1016,9 hPa 0,0 mm 6,4 km/h (2 Bft) O 87 ° 0 min 0,000 mm 1,8 UV-I 260 W/m² 1,5 °C 3,0 °C 11,3 km/h (2 Bft)
12.04.2019 14:00 4,4 °C 81 % 1016,9 hPa 0,0 mm 7,2 km/h (2 Bft) O-NO 78 ° 0 min 0,000 mm 1,7 UV-I 246 W/m² 1,4 °C 2,7 °C 12,9 km/h (3 Bft)
12.04.2019 14:01 4,4 °C 80 % 1017,0 hPa 0,0 mm 8,3 km/h (2 Bft) NO 45 ° 0 min 0,127 mm 1,8 UV-I 244 W/m² 1,3 °C 2,4 °C 12,9 km/h (3 Bft)
12.04.2019 14:02 4,4 °C 81 % 1016,9 hPa 0,0 mm 5,0 km/h (1 Bft) NO 54 ° 0 min 0,000 mm 1,8 UV-I 253 W/m² 1,4 °C 3,4 °C 8,0 km/h (2 Bft)
12.04.2019 14:03 4,4 °C 81 % 1016,9 hPa 0,0 mm 4,7 km/h (1 Bft) O 80 ° 0 min 0,000 mm 2,0 UV-I 295 W/m² 1,4 °C 3,5 °C 8,0 km/h (2 Bft)
12.04.2019 14:04 4,5 °C 80 % 1017,0 hPa 0,0 mm 4,0 km/h (1 Bft) O-NO 76 ° 0 min 0,000 mm 2,2 UV-I 315 W/m² 1,4 °C 4,5 °C 8,0 km/h (2 Bft)
12.04.2019 14:05 4,5 °C 80 % 1016,9 hPa 0,0 mm 6,7 km/h (2 Bft) O-NO 78 ° 0 min 0,000 mm 2,4 UV-I 329 W/m² 1,4 °C 2,9 °C 11,3 km/h (2 Bft)
12.04.2019 14:06 4,6 °C 81 % 1016,9 hPa 0,0 mm 3,5 km/h (1 Bft) NO 34 ° 0 min 0,000 mm 2,5 UV-I 345 W/m² 1,6 °C 4,6 °C 6,4 km/h (2 Bft)
12.04.2019 14:07 4,6 °C 80 % 1016,9 hPa 0,0 mm 6,1 km/h (2 Bft) O 88 ° 0 min 0,000 mm 2,6 UV-I 364 W/m² 1,5 °C 3,2 °C 9,7 km/h (2 Bft)
12.04.2019 14:08 4,6 °C 79 % 1016,9 hPa 0,0 mm 3,6 km/h (1 Bft) O-NO 69 ° 0 min 0,000 mm 2,7 UV-I 385 W/m² 1,3 °C 4,6 °C 4,8 km/h (1 Bft)
12.04.2019 14:09 4,6 °C 79 % 1016,9 hPa 0,0 mm 7,5 km/h (2 Bft) NO 47 ° 0 min 0,000 mm 2,8 UV-I 418 W/m² 1,3 °C 2,8 °C 12,9 km/h (3 Bft)
12.04.2019 14:10 4,6 °C 79 % 1016,9 hPa 0,0 mm 3,6 km/h (1 Bft) NO 44 ° 0 min 0,000 mm 3,0 UV-I 434 W/m² 1,3 °C 4,6 °C 4,8 km/h (1 Bft)
12.04.2019 14:11 4,6 °C 79 % 1016,9 hPa 0,0 mm 5,4 km/h (1 Bft) SO 139 ° 0 min 0,000 mm 3,0 UV-I 436 W/m² 1,3 °C 3,5 °C 12,9 km/h (3 Bft)
12.04.2019 14:12 4,6 °C 78 % 1016,9 hPa 0,0 mm 7,4 km/h (2 Bft) NO 55 ° 0 min 0,000 mm 3,0 UV-I 434 W/m² 1,1 °C 2,8 °C 12,9 km/h (3 Bft)
12.04.2019 14:13 4,7 °C 79 % 1016,9 hPa 0,0 mm 5,0 km/h (1 Bft) O-NO 58 ° 0 min 0,000 mm 2,9 UV-I 434 W/m² 1,4 °C 3,7 °C 8,0 km/h (2 Bft)
12.04.2019 14:14 4,7 °C 79 % 1016,9 hPa 0,0 mm 8,8 km/h (2 Bft) O-NO 77 ° 0 min 0,000 mm 2,9 UV-I 429 W/m² 1,4 °C 2,6 °C 16,1 km/h (3 Bft)
12.04.2019 14:15 4,8 °C 79 % 1016,9 hPa 0,0 mm 8,2 km/h (2 Bft) NO 52 ° 0 min 0,000 mm 2,8 UV-I 410 W/m² 1,5 °C 2,8 °C 14,5 km/h (3 Bft)
12.04.2019 14:16 4,8 °C 78 % 1016,9 hPa 0,0 mm 8,7 km/h (2 Bft) NO 34 ° 0 min 0,000 mm 2,7 UV-I 396 W/m² 1,3 °C 2,7 °C 14,5 km/h (3 Bft)
12.04.2019 14:17 4,9 °C 79 % 1016,9 hPa 0,0 mm 7,1 km/h (2 Bft) NO 38 ° 0 min 0,000 mm 2,6 UV-I 380 W/m² 1,6 °C 3,3 °C 11,3 km/h (2 Bft)
12.04.2019 14:18 4,9 °C 78 % 1016,9 hPa 0,0 mm 8,4 km/h (2 Bft) NO 53 ° 0 min 0,000 mm 2,6 UV-I 378 W/m² 1,4 °C 2,9 °C 11,3 km/h (2 Bft)
12.04.2019 14:19 5,0 °C 78 % 1016,9 hPa 0,0 mm 3,0 km/h (1 Bft) O-NO 74 ° 0 min 0,000 mm 2,6 UV-I 383 W/m² 1,5 °C 5,0 °C 8,0 km/h (2 Bft)
12.04.2019 14:20 5,0 °C 78 % 1016,9 hPa 0,0 mm 7,7 km/h (2 Bft) O 85 ° 0 min 0,000 mm 2,6 UV-I 380 W/m² 1,5 °C 3,2 °C 9,7 km/h (2 Bft)
12.04.2019 14:21 5,1 °C 78 % 1016,9 hPa 0,0 mm 5,6 km/h (1 Bft) O 89 ° 0 min 0,000 mm 2,5 UV-I 362 W/m² 1,6 °C 4,0 °C 9,7 km/h (2 Bft)
12.04.2019 14:22 5,1 °C 78 % 1016,9 hPa 0,0 mm 7,4 km/h (2 Bft) O 81 ° 0 min 0,000 mm 2,4 UV-I 352 W/m² 1,6 °C 3,4 °C 11,3 km/h (2 Bft)
12.04.2019 14:23 5,1 °C 79 % 1016,9 hPa 0,0 mm 10,1 km/h (2 Bft) O-NO 74 ° 0 min 0,000 mm 2,4 UV-I 345 W/m² 1,8 °C 2,8 °C 14,5 km/h (3 Bft)
12.04.2019 14:24 5,1 °C 77 % 1016,9 hPa 0,0 mm 9,1 km/h (2 Bft) O-NO 59 ° 0 min 0,000 mm 2,3 UV-I 334 W/m² 1,4 °C 3,0 °C 16,1 km/h (3 Bft)
12.04.2019 14:25 5,1 °C 78 % 1016,9 hPa 0,0 mm 11,8 km/h (2 Bft) O-NO 61 ° 0 min 0,000 mm 2,2 UV-I 323 W/m² 1,6 °C 2,4 °C 16,1 km/h (3 Bft)
12.04.2019 14:26 5,1 °C 77 % 1017,0 hPa 0,0 mm 9,0 km/h (2 Bft) O-NO 57 ° 0 min 0,000 mm 2,2 UV-I 309 W/m² 1,4 °C 3,0 °C 14,5 km/h (3 Bft)
12.04.2019 14:27 5,0 °C 77 % 1016,9 hPa 0,0 mm 5,7 km/h (1 Bft) O-SO 112 ° 0 min 0,000 mm 1,9 UV-I 276 W/m² 1,3 °C 3,8 °C 8,0 km/h (2 Bft)
12.04.2019 14:28 4,9 °C 77 % 1017,0 hPa 0,0 mm 6,3 km/h (2 Bft) O-SO 104 ° 0 min 0,000 mm 1,8 UV-I 262 W/m² 1,2 °C 3,5 °C 12,9 km/h (3 Bft)
12.04.2019 14:29 4,9 °C 78 % 1016,9 hPa 0,0 mm 7,0 km/h (2 Bft) O-NO 76 ° 0 min 0,000 mm 1,7 UV-I 251 W/m² 1,4 °C 3,3 °C 12,9 km/h (3 Bft)
12.04.2019 14:30 4,9 °C 78 % 1017,0 hPa 0,0 mm 4,8 km/h (1 Bft) NO 42 ° 0 min 0,000 mm 1,7 UV-I 243 W/m² 1,4 °C 4,0 °C 6,4 km/h (2 Bft)
12.04.2019 14:31 4,9 °C 78 % 1016,9 hPa 0,0 mm 7,8 km/h (2 Bft) N-NO 26 ° 0 min 0,000 mm 1,6 UV-I 237 W/m² 1,4 °C 3,1 °C 12,9 km/h (3 Bft)
12.04.2019 14:32 5,0 °C 78 % 1016,9 hPa 0,0 mm 7,0 km/h (2 Bft) NO 56 ° 0 min 0,000 mm 1,6 UV-I 223 W/m² 1,5 °C 3,4 °C 9,7 km/h (2 Bft)
12.04.2019 14:33 5,1 °C 79 % 1017,0 hPa 0,0 mm 6,4 km/h (2 Bft) NO 48 ° 0 min 0,000 mm 1,5 UV-I 214 W/m² 1,8 °C 3,7 °C 8,0 km/h (2 Bft)
12.04.2019 14:34 5,1 °C 79 % 1017,0 hPa 0,0 mm 5,3 km/h (1 Bft) O-NO 74 ° 0 min 0,000 mm 1,4 UV-I 204 W/m² 1,8 °C 4,1 °C 9,7 km/h (2 Bft)
12.04.2019 14:35 5,1 °C 79 % 1017,0 hPa 0,0 mm 9,5 km/h (2 Bft) N-NO 28 ° 0 min 0,000 mm 1,4 UV-I 193 W/m² 1,8 °C 2,9 °C 14,5 km/h (3 Bft)
12.04.2019 14:36 5,1 °C 77 % 1017,0 hPa 0,0 mm 6,2 km/h (2 Bft) O-NO 78 ° 0 min 0,000 mm 1,3 UV-I 185 W/m² 1,4 °C 3,8 °C 14,5 km/h (3 Bft)
12.04.2019 14:37 5,0 °C 78 % 1017,0 hPa 0,0 mm 5,4 km/h (1 Bft) O-NO 59 ° 0 min 0,000 mm 1,3 UV-I 181 W/m² 1,5 °C 3,9 °C 6,4 km/h (2 Bft)
12.04.2019 14:38 4,9 °C 77 % 1017,0 hPa 0,0 mm 5,4 km/h (1 Bft) NO 41 ° 0 min 0,000 mm 1,3 UV-I 174 W/m² 1,2 °C 3,8 °C 9,7 km/h (2 Bft)
12.04.2019 14:39 4,9 °C 77 % 1017,0 hPa 0,0 mm 6,0 km/h (2 Bft) NO 51 ° 0 min 0,000 mm 1,2 UV-I 172 W/m² 1,2 °C 3,6 °C 11,3 km/h (2 Bft)
12.04.2019 14:40 4,9 °C 78 % 1017,0 hPa 0,0 mm 5,9 km/h (2 Bft) NO 46 ° 0 min 0,000 mm 1,2 UV-I 171 W/m² 1,4 °C 3,6 °C 8,0 km/h (2 Bft)
12.04.2019 14:41 4,9 °C 78 % 1017,0 hPa 0,0 mm 6,3 km/h (2 Bft) O 80 ° 0 min 0,000 mm 1,2 UV-I 169 W/m² 1,4 °C 3,5 °C 9,7 km/h (2 Bft)
12.04.2019 14:42 4,8 °C 78 % 1017,0 hPa 0,0 mm 6,3 km/h (2 Bft) O-NO 74 ° 0 min 0,000 mm 1,2 UV-I 171 W/m² 1,3 °C 3,4 °C 8,0 km/h (2 Bft)
12.04.2019 14:43 4,8 °C 77 % 1017,0 hPa 0,0 mm 5,6 km/h (1 Bft) O-SO 111 ° 0 min 0,000 mm 1,2 UV-I 172 W/m² 1,1 °C 3,6 °C 8,0 km/h (2 Bft)
12.04.2019 14:44 4,7 °C 78 % 1017,0 hPa 0,0 mm 2,8 km/h (1 Bft) N-NO 30 ° 0 min 0,000 mm 1,2 UV-I 172 W/m² 1,2 °C 4,7 °C 6,4 km/h (2 Bft)
12.04.2019 14:45 4,7 °C 78 % 1017,0 hPa 0,0 mm 2,1 km/h (1 Bft) NO 38 ° 0 min 0,000 mm 1,2 UV-I 174 W/m² 1,2 °C 4,7 °C 4,8 km/h (1 Bft)
12.04.2019 14:46 4,7 °C 78 % 1017,0 hPa 0,0 mm 2,0 km/h (1 Bft) NO 38 ° 0 min 0,000 mm 1,3 UV-I 178 W/m² 1,2 °C 4,7 °C 4,8 km/h (1 Bft)
12.04.2019 14:47 4,8 °C 79 % 1017,0 hPa 0,0 mm 4,0 km/h (1 Bft) N 9 ° 0 min 0,000 mm 1,3 UV-I 186 W/m² 1,5 °C 4,8 °C 6,4 km/h (2 Bft)
12.04.2019 14:48 4,9 °C 79 % 1017,0 hPa 0,0 mm 4,9 km/h (1 Bft) N 5 ° 0 min 0,000 mm 1,4 UV-I 195 W/m² 1,6 °C 4,0 °C 9,7 km/h (2 Bft)
12.04.2019 14:49 4,9 °C 78 % 1017,0 hPa 0,0 mm 4,7 km/h (1 Bft) O-NO 61 ° 0 min 0,000 mm 1,5 UV-I 204 W/m² 1,4 °C 4,1 °C 6,4 km/h (2 Bft)
12.04.2019 14:50 4,9 °C 78 % 1017,0 hPa 0,0 mm 1,9 km/h (1 Bft) N 5 ° 0 min 0,000 mm 1,5 UV-I 213 W/m² 1,4 °C 4,9 °C 4,8 km/h (1 Bft)
12.04.2019 14:51 4,9 °C 78 % 1017,0 hPa 0,0 mm 5,7 km/h (1 Bft) O 92 ° 0 min 0,000 mm 1,5 UV-I 211 W/m² 1,4 °C 3,7 °C 9,7 km/h (2 Bft)
12.04.2019 14:52 4,9 °C 77 % 1017,0 hPa 0,0 mm 6,2 km/h (2 Bft) O-NO 65 ° 0 min 0,000 mm 1,4 UV-I 206 W/m² 1,2 °C 3,5 °C 9,7 km/h (2 Bft)
12.04.2019 14:53 4,9 °C 78 % 1017,0 hPa 0,0 mm 7,0 km/h (2 Bft) O 80 ° 0 min 0,000 mm 1,4 UV-I 206 W/m² 1,4 °C 3,3 °C 11,3 km/h (2 Bft)
12.04.2019 14:54 5,0 °C 78 % 1017,0 hPa 0,0 mm 5,2 km/h (1 Bft) NO 54 ° 0 min 0,000 mm 1,3 UV-I 186 W/m² 1,5 °C 4,0 °C 8,0 km/h (2 Bft)
12.04.2019 14:55 5,0 °C 78 % 1017,0 hPa 0,0 mm 4,7 km/h (1 Bft) N 360 ° 0 min 0,000 mm 1,2 UV-I 176 W/m² 1,5 °C 4,2 °C 6,4 km/h (2 Bft)
12.04.2019 14:56 5,0 °C 77 % 1017,0 hPa 0,0 mm 3,2 km/h (1 Bft) NO 43 ° 0 min 0,000 mm 1,2 UV-I 176 W/m² 1,3 °C 5,0 °C 4,8 km/h (1 Bft)
12.04.2019 14:57 5,1 °C 78 % 1017,0 hPa 0,0 mm 0,3 km/h (0 Bft) NO 46 ° 0 min 0,000 mm 1,2 UV-I 179 W/m² 1,6 °C 5,1 °C 1,6 km/h (1 Bft)
12.04.2019 14:58 5,1 °C 78 % 1017,0 hPa 0,0 mm 2,7 km/h (1 Bft) O 99 ° 0 min 0,000 mm 1,3 UV-I 183 W/m² 1,6 °C 5,1 °C 4,8 km/h (1 Bft)
12.04.2019 14:59 5,1 °C 78 % 1017,0 hPa 0,0 mm 3,5 km/h (1 Bft) O-NO 76 ° 0 min 0,000 mm 1,3 UV-I 186 W/m² 1,6 °C 5,1 °C 4,8 km/h (1 Bft)
12.04.2019 15:00 5,1 °C 78 % 1017,0 hPa 0,0 mm 3,3 km/h (1 Bft) NO 42 ° 0 min 0,000 mm 1,4 UV-I 192 W/m² 1,6 °C 5,1 °C 6,4 km/h (2 Bft)
12.04.2019 15:01 5,1 °C 78 % 1017,0 hPa 0,0 mm 4,6 km/h (1 Bft) O-NO 63 ° 0 min 0,127 mm 1,4 UV-I 197 W/m² 1,6 °C 4,4 °C 8,0 km/h (2 Bft)
12.04.2019 15:02 5,2 °C 78 % 1017,0 hPa 0,0 mm 6,6 km/h (2 Bft) NO 40 ° 0 min 0,000 mm 1,4 UV-I 207 W/m² 1,7 °C 3,8 °C 8,0 km/h (2 Bft)
12.04.2019 15:03 5,2 °C 78 % 1017,0 hPa 0,0 mm 3,5 km/h (1 Bft) N 5 ° 0 min 0,000 mm 1,5 UV-I 209 W/m² 1,7 °C 5,2 °C 6,4 km/h (2 Bft)
12.04.2019 15:04 5,2 °C 78 % 1017,0 hPa 0,0 mm 4,8 km/h (1 Bft) N 11 ° 0 min 0,000 mm 1,4 UV-I 207 W/m² 1,7 °C 4,4 °C 8,0 km/h (2 Bft)
12.04.2019 15:05 5,2 °C 78 % 1017,0 hPa 0,0 mm 4,8 km/h (1 Bft) O-NO 63 ° 0 min 0,000 mm 1,4 UV-I 204 W/m² 1,7 °C 4,4 °C 6,4 km/h (2 Bft)
12.04.2019 15:06 5,2 °C 78 % 1017,0 hPa 0,0 mm 6,0 km/h (2 Bft) NO 39 ° 0 min 0,000 mm 1,4 UV-I 200 W/m² 1,7 °C 4,0 °C 9,7 km/h (2 Bft)
12.04.2019 15:07 5,2 °C 76 % 1017,0 hPa 0,0 mm 5,6 km/h (1 Bft) O-NO 58 ° 0 min 0,000 mm 1,4 UV-I 199 W/m² 1,3 °C 4,1 °C 8,0 km/h (2 Bft)
12.04.2019 15:08 5,2 °C 77 % 1017,0 hPa 0,0 mm 5,2 km/h (1 Bft) O 93 ° 0 min 0,000 mm 1,4 UV-I 202 W/m² 1,5 °C 4,2 °C 9,7 km/h (2 Bft)
12.04.2019 15:09 5,2 °C 78 % 1017,0 hPa 0,0 mm 2,7 km/h (1 Bft) NO 37 ° 0 min 0,000 mm 1,5 UV-I 211 W/m² 1,7 °C 5,2 °C 4,8 km/h (1 Bft)
12.04.2019 15:10 5,2 °C 77 % 1017,0 hPa 0,0 mm 6,1 km/h (2 Bft) O-SO 111 ° 0 min 0,000 mm 1,6 UV-I 221 W/m² 1,5 °C 3,9 °C 11,3 km/h (2 Bft)
12.04.2019 15:11 5,2 °C 77 % 1016,9 hPa 0,0 mm 4,2 km/h (1 Bft) O-NO 71 ° 0 min 0,000 mm 1,6 UV-I 230 W/m² 1,5 °C 5,2 °C 6,4 km/h (2 Bft)
12.04.2019 15:12 5,2 °C 76 % 1016,9 hPa 0,0 mm 5,1 km/h (1 Bft) O 90 ° 0 min 0,000 mm 1,7 UV-I 236 W/m² 1,3 °C 4,3 °C 6,4 km/h (2 Bft)
12.04.2019 15:13 5,2 °C 77 % 1016,9 hPa 0,0 mm 9,5 km/h (2 Bft) O-NO 78 ° 0 min 0,000 mm 1,7 UV-I 243 W/m² 1,5 °C 3,0 °C 12,9 km/h (3 Bft)
12.04.2019 15:14 5,2 °C 76 % 1016,9 hPa 0,0 mm 9,9 km/h (2 Bft) O 79 ° 0 min 0,000 mm 1,8 UV-I 246 W/m² 1,3 °C 2,9 °C 12,9 km/h (3 Bft)
12.04.2019 15:15 5,2 °C 76 % 1016,9 hPa 0,0 mm 7,2 km/h (2 Bft) O-NO 73 ° 0 min 0,000 mm 1,8 UV-I 250 W/m² 1,3 °C 3,6 °C 11,3 km/h (2 Bft)
12.04.2019 15:16 5,2 °C 77 % 1016,9 hPa 0,0 mm 9,7 km/h (2 Bft) O-NO 59 ° 0 min 0,000 mm 1,8 UV-I 250 W/m² 1,5 °C 3,0 °C 16,1 km/h (3 Bft)
12.04.2019 15:17 5,2 °C 77 % 1016,9 hPa 0,0 mm 4,2 km/h (1 Bft) O-NO 65 ° 0 min 0,000 mm 1,7 UV-I 248 W/m² 1,5 °C 5,2 °C 6,4 km/h (2 Bft)
12.04.2019 15:18 5,2 °C 76 % 1016,9 hPa 0,0 mm 7,6 km/h (2 Bft) NO 56 ° 0 min 0,000 mm 1,7 UV-I 243 W/m² 1,3 °C 3,5 °C 11,3 km/h (2 Bft)
12.04.2019 15:19 5,2 °C 76 % 1016,9 hPa 0,0 mm 8,2 km/h (2 Bft) NO 42 ° 0 min 0,000 mm 1,6 UV-I 230 W/m² 1,3 °C 3,3 °C 9,7 km/h (2 Bft)
12.04.2019 15:20 5,2 °C 76 % 1016,9 hPa 0,0 mm 6,8 km/h (2 Bft) O-NO 74 ° 0 min 0,000 mm 1,4 UV-I 202 W/m² 1,3 °C 3,7 °C 11,3 km/h (2 Bft)
12.04.2019 15:21 5,3 °C 76 % 1016,9 hPa 0,0 mm 9,3 km/h (2 Bft) O 93 ° 0 min 0,000 mm 1,4 UV-I 195 W/m² 1,4 °C 3,2 °C 12,9 km/h (3 Bft)
12.04.2019 15:22 5,2 °C 76 % 1016,9 hPa 0,0 mm 6,9 km/h (2 Bft) O-NO 74 ° 0 min 0,000 mm 1,4 UV-I 192 W/m² 1,3 °C 3,7 °C 11,3 km/h (2 Bft)
12.04.2019 15:23 5,2 °C 76 % 1016,9 hPa 0,0 mm 3,8 km/h (1 Bft) O 83 ° 0 min 0,000 mm 1,4 UV-I 195 W/m² 1,3 °C 5,2 °C 11,3 km/h (2 Bft)
12.04.2019 15:24 5,2 °C 76 % 1016,9 hPa 0,0 mm 5,1 km/h (1 Bft) N-NO 25 ° 0 min 0,000 mm 1,4 UV-I 200 W/m² 1,3 °C 4,3 °C 8,0 km/h (2 Bft)
12.04.2019 15:25 5,2 °C 75 % 1016,9 hPa 0,0 mm 2,8 km/h (1 Bft) N-NO 27 ° 0 min 0,000 mm 1,5 UV-I 216 W/m² 1,1 °C 5,2 °C 4,8 km/h (1 Bft)
12.04.2019 15:26 5,2 °C 76 % 1016,9 hPa 0,0 mm 6,5 km/h (2 Bft) O 89 ° 0 min 0,000 mm 1,6 UV-I 227 W/m² 1,3 °C 3,8 °C 8,0 km/h (2 Bft)
12.04.2019 15:27 5,3 °C 75 % 1016,9 hPa 0,0 mm 5,7 km/h (1 Bft) O-NO 69 ° 0 min 0,000 mm 1,7 UV-I 237 W/m² 1,2 °C 4,2 °C 9,7 km/h (2 Bft)
12.04.2019 15:28 5,2 °C 75 % 1016,9 hPa 0,0 mm 3,9 km/h (1 Bft) O-NO 65 ° 0 min 0,000 mm 1,7 UV-I 244 W/m² 1,1 °C 5,2 °C 9,7 km/h (2 Bft)
12.04.2019 15:29 5,2 °C 75 % 1016,9 hPa 0,0 mm 5,9 km/h (2 Bft) O 86 ° 0 min 0,000 mm 1,7 UV-I 248 W/m² 1,1 °C 4,0 °C 6,4 km/h (2 Bft)
12.04.2019 15:30 5,2 °C 76 % 1016,9 hPa 0,0 mm 3,3 km/h (1 Bft) O 88 ° 0 min 0,000 mm 1,7 UV-I 246 W/m² 1,3 °C 5,2 °C 6,4 km/h (2 Bft)
12.04.2019 15:31 5,2 °C 76 % 1016,9 hPa 0,0 mm 4,6 km/h (1 Bft) N-NO 32 ° 0 min 0,000 mm 1,7 UV-I 241 W/m² 1,3 °C 4,5 °C 14,5 km/h (3 Bft)
12.04.2019 15:32 5,3 °C 75 % 1016,9 hPa 0,0 mm 5,2 km/h (1 Bft) NO 44 ° 0 min 0,000 mm 1,7 UV-I 237 W/m² 1,2 °C 4,3 °C 9,7 km/h (2 Bft)
12.04.2019 15:33 5,3 °C 75 % 1016,9 hPa 0,0 mm 7,3 km/h (2 Bft) N-NO 22 ° 0 min 0,000 mm 1,7 UV-I 234 W/m² 1,2 °C 3,7 °C 9,7 km/h (2 Bft)
12.04.2019 15:34 5,4 °C 76 % 1016,9 hPa 0,0 mm 8,5 km/h (2 Bft) O 82 ° 0 min 0,000 mm 1,6 UV-I 232 W/m² 1,5 °C 3,5 °C 12,9 km/h (3 Bft)
12.04.2019 15:35 5,4 °C 75 % 1016,9 hPa 0,0 mm 1,9 km/h (1 Bft) O 101 ° 0 min 0,000 mm 1,6 UV-I 230 W/m² 1,3 °C 5,4 °C 6,4 km/h (2 Bft)
12.04.2019 15:36 5,4 °C 74 % 1016,8 hPa 0,0 mm 3,3 km/h (1 Bft) NO 40 ° 0 min 0,000 mm 1,6 UV-I 225 W/m² 1,1 °C 5,4 °C 6,4 km/h (2 Bft)
12.04.2019 15:37 5,5 °C 75 % 1016,8 hPa 0,0 mm 5,6 km/h (1 Bft) O-SO 109 ° 0 min 0,000 mm 1,5 UV-I 209 W/m² 1,4 °C 4,4 °C 8,0 km/h (2 Bft)
12.04.2019 15:38 5,6 °C 76 % 1016,9 hPa 0,0 mm 5,4 km/h (1 Bft) NO 52 ° 0 min 0,000 mm 1,4 UV-I 200 W/m² 1,7 °C 4,6 °C 9,7 km/h (2 Bft)
12.04.2019 15:39 5,6 °C 75 % 1016,8 hPa 0,0 mm 2,7 km/h (1 Bft) N-NO 28 ° 0 min 0,000 mm 1,3 UV-I 192 W/m² 1,5 °C 5,6 °C 6,4 km/h (2 Bft)
12.04.2019 15:40 5,5 °C 74 % 1016,8 hPa 0,0 mm 3,8 km/h (1 Bft) O 84 ° 0 min 0,000 mm 1,3 UV-I 183 W/m² 1,2 °C 5,5 °C 6,4 km/h (2 Bft)
12.04.2019 15:41 5,5 °C 74 % 1016,8 hPa 0,0 mm 2,4 km/h (1 Bft) O-NO 66 ° 0 min 0,000 mm 1,2 UV-I 176 W/m² 1,2 °C 5,5 °C 4,8 km/h (1 Bft)
12.04.2019 15:42 5,5 °C 74 % 1016,8 hPa 0,0 mm 4,7 km/h (1 Bft) O-NO 69 ° 0 min 0,000 mm 1,2 UV-I 169 W/m² 1,2 °C 4,8 °C 6,4 km/h (2 Bft)
12.04.2019 15:43 5,4 °C 75 % 1016,8 hPa 0,0 mm 4,7 km/h (1 Bft) N-NO 33 ° 0 min 0,000 mm 1,1 UV-I 155 W/m² 1,3 °C 4,7 °C 6,4 km/h (2 Bft)
12.04.2019 15:44 5,4 °C 74 % 1016,8 hPa 0,0 mm 2,9 km/h (1 Bft) N 9 ° 0 min 0,000 mm 1,1 UV-I 149 W/m² 1,1 °C 5,4 °C 4,8 km/h (1 Bft)
12.04.2019 15:45 5,4 °C 74 % 1016,8 hPa 0,0 mm 4,4 km/h (1 Bft) NO 53 ° 0 min 0,000 mm 1,0 UV-I 146 W/m² 1,1 °C 5,4 °C 8,0 km/h (2 Bft)
12.04.2019 15:46 5,4 °C 75 % 1016,8 hPa 0,0 mm 3,6 km/h (1 Bft) N 355 ° 0 min 0,000 mm 1,0 UV-I 144 W/m² 1,3 °C 5,4 °C 4,8 km/h (1 Bft)
12.04.2019 15:47 5,5 °C 75 % 1016,8 hPa 0,0 mm 5,9 km/h (2 Bft) NO 42 ° 0 min 0,000 mm 1,0 UV-I 144 W/m² 1,4 °C 4,3 °C 9,7 km/h (2 Bft)
12.04.2019 15:48 5,5 °C 74 % 1016,8 hPa 0,0 mm 7,2 km/h (2 Bft) O-NO 60 ° 0 min 0,000 mm 1,0 UV-I 146 W/m² 1,2 °C 3,9 °C 11,3 km/h (2 Bft)
12.04.2019 15:49 5,4 °C 74 % 1016,8 hPa 0,0 mm 5,2 km/h (1 Bft) O-NO 57 ° 0 min 0,000 mm 1,0 UV-I 148 W/m² 1,1 °C 4,5 °C 8,0 km/h (2 Bft)
12.04.2019 15:50 5,4 °C 74 % 1016,8 hPa 0,0 mm 6,9 km/h (2 Bft) O-NO 67 ° 0 min 0,000 mm 1,1 UV-I 149 W/m² 1,1 °C 3,9 °C 12,9 km/h (3 Bft)
12.04.2019 15:51 5,4 °C 74 % 1016,8 hPa 0,0 mm 7,2 km/h (2 Bft) O-NO 78 ° 0 min 0,000 mm 1,1 UV-I 151 W/m² 1,1 °C 3,8 °C 11,3 km/h (2 Bft)
12.04.2019 15:52 5,4 °C 74 % 1016,9 hPa 0,0 mm 6,1 km/h (2 Bft) O-NO 63 ° 0 min 0,000 mm 1,1 UV-I 153 W/m² 1,1 °C 4,2 °C 8,0 km/h (2 Bft)
12.04.2019 15:53 5,3 °C 74 % 1016,9 hPa 0,0 mm 5,2 km/h (1 Bft) O-NO 73 ° 0 min 0,000 mm 1,1 UV-I 156 W/m² 1,0 °C 4,3 °C 9,7 km/h (2 Bft)
12.04.2019 15:54 5,3 °C 74 % 1016,9 hPa 0,0 mm 5,8 km/h (2 Bft) O-NO 63 ° 0 min 0,000 mm 1,2 UV-I 163 W/m² 1,0 °C 4,1 °C 9,7 km/h (2 Bft)
12.04.2019 15:55 5,4 °C 74 % 1016,9 hPa 0,0 mm 4,5 km/h (1 Bft) O-NO 59 ° 0 min 0,000 mm 1,2 UV-I 167 W/m² 1,1 °C 5,4 °C 6,4 km/h (2 Bft)
12.04.2019 15:56 5,4 °C 74 % 1016,9 hPa 0,0 mm 7,0 km/h (2 Bft) O-NO 61 ° 0 min 0,000 mm 1,2 UV-I 171 W/m² 1,1 °C 3,9 °C 11,3 km/h (2 Bft)
12.04.2019 15:57 5,4 °C 74 % 1016,9 hPa 0,0 mm 3,6 km/h (1 Bft) O-NO 78 ° 0 min 0,000 mm 1,3 UV-I 172 W/m² 1,1 °C 5,4 °C 8,0 km/h (2 Bft)
12.04.2019 15:58 5,3 °C 73 % 1016,9 hPa 0,0 mm 2,2 km/h (1 Bft) O-NO 59 ° 0 min 0,000 mm 1,3 UV-I 174 W/m² 0,9 °C 5,3 °C 6,4 km/h (2 Bft)
12.04.2019 15:59 5,3 °C 74 % 1016,9 hPa 0,0 mm 5,2 km/h (1 Bft) O-NO 62 ° 0 min 0,000 mm 1,2 UV-I 174 W/m² 1,0 °C 4,3 °C 8,0 km/h (2 Bft)
12.04.2019 16:00 5,3 °C 74 % 1016,9 hPa 0,0 mm 1,2 km/h (1 Bft) O 98 ° 0 min 0,000 mm 1,2 UV-I 172 W/m² 1,0 °C 5,3 °C 3,2 km/h (1 Bft)
12.04.2019 16:01 5,4 °C 74 % 1016,9 hPa 0,0 mm 2,5 km/h (1 Bft) O-NO 63 ° 0 min 0,101 mm 1,2 UV-I 172 W/m² 1,1 °C 5,4 °C 4,8 km/h (1 Bft)
12.04.2019 16:02 5,4 °C 74 % 1016,9 hPa 0,0 mm 8,8 km/h (2 Bft) O-NO 73 ° 0 min 0,000 mm 1,2 UV-I 172 W/m² 1,1 °C 3,4 °C 12,9 km/h (3 Bft)
12.04.2019 16:03 5,5 °C 76 % 1016,8 hPa 0,0 mm 5,7 km/h (1 Bft) NO 53 ° 0 min 0,000 mm 1,2 UV-I 172 W/m² 1,6 °C 4,4 °C 9,7 km/h (2 Bft)
12.04.2019 16:04 5,4 °C 73 % 1016,8 hPa 0,0 mm 2,1 km/h (1 Bft) NO 47 ° 0 min 0,000 mm 1,2 UV-I 172 W/m² 1,0 °C 5,4 °C 4,8 km/h (1 Bft)
12.04.2019 16:05 5,4 °C 74 % 1016,8 hPa 0,0 mm 0,1 km/h (0 Bft) NO 47 ° 0 min 0,000 mm 1,2 UV-I 171 W/m² 1,1 °C 5,4 °C 1,6 km/h (1 Bft)
12.04.2019 16:06 5,5 °C 73 % 1016,8 hPa 0,0 mm 1,5 km/h (1 Bft) NO 46 ° 0 min 0,000 mm 1,2 UV-I 169 W/m² 1,1 °C 5,5 °C 3,2 km/h (1 Bft)
12.04.2019 16:07 5,6 °C 74 % 1016,8 hPa 0,0 mm 3,6 km/h (1 Bft) N-NO 29 ° 0 min 0,000 mm 1,1 UV-I 165 W/m² 1,3 °C 5,6 °C 4,8 km/h (1 Bft)
12.04.2019 16:08 5,6 °C 75 % 1016,8 hPa 0,0 mm 0,5 km/h (0 Bft) N-NO 31 ° 0 min 0,000 mm 1,1 UV-I 165 W/m² 1,5 °C 5,6 °C 1,6 km/h (1 Bft)
12.04.2019 16:09 5,6 °C 74 % 1016,8 hPa 0,0 mm 2,7 km/h (1 Bft) O-NO 69 ° 0 min 0,000 mm 1,1 UV-I 163 W/m² 1,3 °C 5,6 °C 6,4 km/h (2 Bft)
12.04.2019 16:10 5,7 °C 74 % 1016,8 hPa 0,0 mm 5,0 km/h (1 Bft) NO 51 ° 0 min 0,000 mm 1,1 UV-I 160 W/m² 1,4 °C 4,9 °C 9,7 km/h (2 Bft)
12.04.2019 16:11 5,7 °C 74 % 1016,8 hPa 0,0 mm 8,0 km/h (2 Bft) NO 35 ° 0 min 0,000 mm 1,1 UV-I 151 W/m² 1,4 °C 4,0 °C 11,3 km/h (2 Bft)
12.04.2019 16:12 5,7 °C 74 % 1016,8 hPa 0,0 mm 4,6 km/h (1 Bft) NO 53 ° 0 min 0,000 mm 1,0 UV-I 134 W/m² 1,4 °C 5,0 °C 6,4 km/h (2 Bft)
12.04.2019 16:13 5,6 °C 74 % 1016,8 hPa 0,0 mm 3,6 km/h (1 Bft) O-NO 64 ° 0 min 0,000 mm 0,9 UV-I 125 W/m² 1,3 °C 5,6 °C 6,4 km/h (2 Bft)
12.04.2019 16:14 5,7 °C 74 % 1016,8 hPa 0,0 mm 5,2 km/h (1 Bft) O-NO 72 ° 0 min 0,000 mm 0,8 UV-I 116 W/m² 1,4 °C 4,8 °C 9,7 km/h (2 Bft)
12.04.2019 16:15 5,7 °C 75 % 1016,8 hPa 0,0 mm 3,9 km/h (1 Bft) N 9 ° 0 min 0,000 mm 0,8 UV-I 107 W/m² 1,6 °C 5,7 °C 8,0 km/h (2 Bft)
12.04.2019 16:16 5,6 °C 75 % 1016,8 hPa 0,0 mm 6,2 km/h (2 Bft) N 10 ° 0 min 0,000 mm 0,7 UV-I 100 W/m² 1,5 °C 4,3 °C 12,9 km/h (3 Bft)
12.04.2019 16:17 5,7 °C 74 % 1016,8 hPa 0,0 mm 3,3 km/h (1 Bft) N 10 ° 0 min 0,000 mm 0,7 UV-I 90 W/m² 1,4 °C 5,7 °C 6,4 km/h (2 Bft)
12.04.2019 16:18 5,6 °C 74 % 1016,8 hPa 0,0 mm 4,2 km/h (1 Bft) N-NO 30 ° 0 min 0,000 mm 0,6 UV-I 84 W/m² 1,3 °C 5,6 °C 6,4 km/h (2 Bft)
12.04.2019 16:19 5,6 °C 74 % 1016,8 hPa 0,0 mm 5,1 km/h (1 Bft) O-NO 69 ° 0 min 0,000 mm 0,6 UV-I 81 W/m² 1,3 °C 4,7 °C 8,0 km/h (2 Bft)
12.04.2019 16:20 5,6 °C 74 % 1016,8 hPa 0,0 mm 6,6 km/h (2 Bft) O-NO 57 ° 0 min 0,000 mm 0,6 UV-I 79 W/m² 1,3 °C 4,2 °C 9,7 km/h (2 Bft)
12.04.2019 16:21 5,6 °C 73 % 1016,7 hPa 0,0 mm 5,1 km/h (1 Bft) O-NO 61 ° 0 min 0,000 mm 0,5 UV-I 77 W/m² 1,2 °C 4,7 °C 8,0 km/h (2 Bft)
12.04.2019 16:22 5,6 °C 74 % 1016,8 hPa 0,0 mm 4,3 km/h (1 Bft) N-NO 18 ° 0 min 0,000 mm 0,5 UV-I 77 W/m² 1,3 °C 5,6 °C 6,4 km/h (2 Bft)
12.04.2019 16:23 5,5 °C 74 % 1016,8 hPa 0,0 mm 1,9 km/h (1 Bft) NO 36 ° 0 min 0,000 mm 0,5 UV-I 77 W/m² 1,2 °C 5,5 °C 4,8 km/h (1 Bft)
12.04.2019 16:24 5,4 °C 73 % 1016,8 hPa 0,0 mm 1,7 km/h (1 Bft) NO 42 ° 0 min 0,000 mm 0,5 UV-I 74 W/m² 1,0 °C 5,4 °C 4,8 km/h (1 Bft)
12.04.2019 16:25 5,4 °C 73 % 1016,8 hPa 0,0 mm 4,8 km/h (1 Bft) N-NO 16 ° 0 min 0,000 mm 0,5 UV-I 74 W/m² 1,0 °C 4,6 °C 8,0 km/h (2 Bft)
12.04.2019 16:26 5,4 °C 74 % 1016,8 hPa 0,0 mm 7,2 km/h (2 Bft) NO 56 ° 0 min 0,000 mm 0,5 UV-I 74 W/m² 1,1 °C 3,8 °C 9,7 km/h (2 Bft)
12.04.2019 16:27 5,4 °C 73 % 1016,9 hPa 0,0 mm 5,5 km/h (1 Bft) O 92 ° 0 min 0,000 mm 0,5 UV-I 72 W/m² 1,0 °C 4,4 °C 9,7 km/h (2 Bft)
12.04.2019 16:28 5,4 °C 74 % 1016,9 hPa 0,0 mm 1,4 km/h (1 Bft) NO 46 ° 0 min 0,000 mm 0,5 UV-I 70 W/m² 1,1 °C 5,4 °C 8,0 km/h (2 Bft)
12.04.2019 16:29 5,4 °C 74 % 1016,8 hPa 0,0 mm 5,6 km/h (1 Bft) NO 53 ° 0 min 0,000 mm 0,5 UV-I 69 W/m² 1,1 °C 4,3 °C 8,0 km/h (2 Bft)
12.04.2019 16:30 5,4 °C 73 % 1016,8 hPa 0,0 mm 5,2 km/h (1 Bft) O-NO 62 ° 0 min 0,000 mm 0,5 UV-I 69 W/m² 1,0 °C 4,5 °C 8,0 km/h (2 Bft)
12.04.2019 16:31 5,3 °C 73 % 1016,8 hPa 0,0 mm 7,2 km/h (2 Bft) NO 36 ° 0 min 0,000 mm 0,5 UV-I 69 W/m² 0,9 °C 3,7 °C 9,7 km/h (2 Bft)
12.04.2019 16:32 5,3 °C 73 % 1016,9 hPa 0,0 mm 3,8 km/h (1 Bft) NO 35 ° 0 min 0,000 mm 0,5 UV-I 69 W/m² 0,9 °C 5,3 °C 8,0 km/h (2 Bft)
12.04.2019 16:33 5,3 °C 73 % 1016,9 hPa 0,0 mm 4,1 km/h (1 Bft) NO 36 ° 0 min 0,000 mm 0,5 UV-I 69 W/m² 0,9 °C 5,3 °C 6,4 km/h (2 Bft)
12.04.2019 16:34 5,4 °C 73 % 1016,9 hPa 0,0 mm 4,9 km/h (1 Bft) O 92 ° 0 min 0,000 mm 0,5 UV-I 70 W/m² 1,0 °C 4,6 °C 8,0 km/h (2 Bft)
12.04.2019 16:35 5,3 °C 73 % 1016,9 hPa 0,0 mm 4,8 km/h (1 Bft) O 82 ° 0 min 0,000 mm 0,5 UV-I 70 W/m² 0,9 °C 4,5 °C 8,0 km/h (2 Bft)
12.04.2019 16:36 5,4 °C 73 % 1016,9 hPa 0,0 mm 5,8 km/h (2 Bft) O-NO 74 ° 0 min 0,000 mm 0,5 UV-I 70 W/m² 1,0 °C 4,2 °C 11,3 km/h (2 Bft)
12.04.2019 16:37 5,3 °C 73 % 1016,9 hPa 0,0 mm 5,2 km/h (1 Bft) NO 53 ° 0 min 0,000 mm 0,5 UV-I 72 W/m² 0,9 °C 4,3 °C 6,4 km/h (2 Bft)
12.04.2019 16:38 5,3 °C 73 % 1016,9 hPa 0,0 mm 6,8 km/h (2 Bft) O 84 ° 0 min 0,000 mm 0,5 UV-I 72 W/m² 0,9 °C 3,8 °C 9,7 km/h (2 Bft)
12.04.2019 16:39 5,3 °C 73 % 1016,9 hPa 0,0 mm 4,8 km/h (1 Bft) O-NO 68 ° 0 min 0,000 mm 0,5 UV-I 72 W/m² 0,9 °C 4,5 °C 9,7 km/h (2 Bft)
12.04.2019 16:40 5,3 °C 73 % 1016,9 hPa 0,0 mm 3,8 km/h (1 Bft) NO 50 ° 0 min 0,000 mm 0,5 UV-I 72 W/m² 0,9 °C 5,3 °C 6,4 km/h (2 Bft)
12.04.2019 16:41 5,3 °C 73 % 1016,9 hPa 0,0 mm 4,0 km/h (1 Bft) NO 55 ° 0 min 0,000 mm 0,5 UV-I 74 W/m² 0,9 °C 5,3 °C 6,4 km/h (2 Bft)
12.04.2019 16:42 5,3 °C 73 % 1017,0 hPa 0,0 mm 2,4 km/h (1 Bft) O 81 ° 0 min 0,000 mm 0,5 UV-I 74 W/m² 0,9 °C 5,3 °C 4,8 km/h (1 Bft)
12.04.2019 16:43 5,3 °C 73 % 1016,9 hPa 0,0 mm 6,1 km/h (2 Bft) NO 43 ° 0 min 0,000 mm 0,5 UV-I 74 W/m² 0,9 °C 4,0 °C 11,3 km/h (2 Bft)
12.04.2019 16:44 5,3 °C 73 % 1016,9 hPa 0,0 mm 4,3 km/h (1 Bft) O 92 ° 0 min 0,000 mm 0,5 UV-I 74 W/m² 0,9 °C 5,3 °C 6,4 km/h (2 Bft)
12.04.2019 16:45 5,3 °C 73 % 1016,9 hPa 0,0 mm 5,6 km/h (1 Bft) O 80 ° 0 min 0,000 mm 0,5 UV-I 72 W/m² 0,9 °C 4,2 °C 11,3 km/h (2 Bft)
12.04.2019 16:46 5,3 °C 73 % 1016,9 hPa 0,0 mm 4,7 km/h (1 Bft) NO 43 ° 0 min 0,000 mm 0,5 UV-I 70 W/m² 0,9 °C 4,5 °C 6,4 km/h (2 Bft)
12.04.2019 16:47 5,3 °C 73 % 1016,9 hPa 0,0 mm 4,8 km/h (1 Bft) NO 55 ° 0 min 0,000 mm 0,5 UV-I 69 W/m² 0,9 °C 4,5 °C 6,4 km/h (2 Bft)
12.04.2019 16:48 5,2 °C 73 % 1017,0 hPa 0,0 mm 2,4 km/h (1 Bft) O-NO 61 ° 0 min 0,000 mm 0,5 UV-I 69 W/m² 0,8 °C 5,2 °C 4,8 km/h (1 Bft)
12.04.2019 16:49 5,2 °C 73 % 1016,9 hPa 0,0 mm 4,1 km/h (1 Bft) N-NO 30 ° 0 min 0,000 mm 0,5 UV-I 69 W/m² 0,8 °C 5,2 °C 6,4 km/h (2 Bft)
12.04.2019 16:50 5,2 °C 73 % 1016,9 hPa 0,0 mm 2,3 km/h (1 Bft) O-NO 65 ° 0 min 0,000 mm 0,5 UV-I 69 W/m² 0,8 °C 5,2 °C 6,4 km/h (2 Bft)
12.04.2019 16:51 5,3 °C 73 % 1016,9 hPa 0,0 mm 5,6 km/h (1 Bft) O-NO 71 ° 0 min 0,000 mm 0,5 UV-I 69 W/m² 0,9 °C 4,2 °C 12,9 km/h (3 Bft)
12.04.2019 16:52 5,3 °C 73 % 1016,9 hPa 0,0 mm 6,5 km/h (2 Bft) O-NO 64 ° 0 min 0,000 mm 0,5 UV-I 69 W/m² 0,9 °C 3,9 °C 8,0 km/h (2 Bft)
12.04.2019 16:53 5,2 °C 73 % 1016,9 hPa 0,0 mm 4,2 km/h (1 Bft) O-NO 64 ° 0 min 0,000 mm 0,5 UV-I 69 W/m² 0,8 °C 5,2 °C 6,4 km/h (2 Bft)
12.04.2019 16:54 5,3 °C 74 % 1016,9 hPa 0,0 mm 0,8 km/h (0 Bft) O-NO 64 ° 0 min 0,000 mm 0,5 UV-I 69 W/m² 1,0 °C 5,3 °C 3,2 km/h (1 Bft)
12.04.2019 16:55 5,3 °C 74 % 1016,9 hPa 0,0 mm 0,5 km/h (0 Bft) O-NO 64 ° 0 min 0,000 mm 0,5 UV-I 69 W/m² 1,0 °C 5,3 °C 1,6 km/h (1 Bft)
12.04.2019 16:56 5,3 °C 75 % 1016,9 hPa 0,0 mm 4,8 km/h (1 Bft) N-NO 30 ° 0 min 0,000 mm 0,5 UV-I 67 W/m² 1,2 °C 4,5 °C 8,0 km/h (2 Bft)
12.04.2019 16:57 5,3 °C 74 % 1016,9 hPa 0,0 mm 4,1 km/h (1 Bft) N-NO 29 ° 0 min 0,000 mm 0,0 UV-I 67 W/m² 1,0 °C 5,3 °C 8,0 km/h (2 Bft)
12.04.2019 16:58 5,3 °C 75 % 1016,9 hPa 0,0 mm 1,2 km/h (1 Bft) N-NO 22 ° 0 min 0,000 mm 0,0 UV-I 65 W/m² 1,2 °C 5,3 °C 4,8 km/h (1 Bft)
12.04.2019 16:59 5,3 °C 74 % 1016,9 hPa 0,0 mm 2,5 km/h (1 Bft) N-NO 17 ° 0 min 0,000 mm 0,0 UV-I 62 W/m² 1,0 °C 5,3 °C 4,8 km/h (1 Bft)
12.04.2019 17:00 5,3 °C 74 % 1016,9 hPa 0,0 mm 4,0 km/h (1 Bft) N 10 ° 0 min 0,000 mm 0,0 UV-I 62 W/m² 1,0 °C 5,3 °C 6,4 km/h (2 Bft)
12.04.2019 17:01 5,3 °C 73 % 1016,9 hPa 0,0 mm 3,3 km/h (1 Bft) N-NW 348 ° 0 min 0,051 mm 0,0 UV-I 60 W/m² 0,9 °C 5,3 °C 4,8 km/h (1 Bft)
12.04.2019 17:02 5,3 °C 74 % 1016,9 hPa 0,0 mm 1,3 km/h (1 Bft) N 355 ° 0 min 0,000 mm 0,0 UV-I 58 W/m² 1,0 °C 5,3 °C 3,2 km/h (1 Bft)
12.04.2019 17:03 5,3 °C 74 % 1016,9 hPa 0,0 mm 1,3 km/h (1 Bft) O 91 ° 0 min 0,000 mm 0,0 UV-I 56 W/m² 1,0 °C 5,3 °C 3,2 km/h (1 Bft)
12.04.2019 17:04 5,3 °C 74 % 1016,9 hPa 0,0 mm 2,2 km/h (1 Bft) O 79 ° 0 min 0,000 mm 0,0 UV-I 54 W/m² 1,0 °C 5,3 °C 4,8 km/h (1 Bft)
12.04.2019 17:05 5,3 °C 74 % 1017,0 hPa 0,0 mm 1,2 km/h (1 Bft) O 79 ° 0 min 0,000 mm 0,0 UV-I 54 W/m² 1,0 °C 5,3 °C 1,6 km/h (1 Bft)
12.04.2019 17:06 5,3 °C 74 % 1016,9 hPa 0,0 mm 4,9 km/h (1 Bft) N 11 ° 0 min 0,000 mm 0,0 UV-I 54 W/m² 1,0 °C 4,5 °C 8,0 km/h (2 Bft)
12.04.2019 17:07 5,3 °C 74 % 1017,0 hPa 0,0 mm 3,6 km/h (1 Bft) N 11 ° 0 min 0,000 mm 0,0 UV-I 54 W/m² 1,0 °C 5,3 °C 6,4 km/h (2 Bft)
12.04.2019 17:08 5,3 °C 74 % 1017,0 hPa 0,0 mm 5,8 km/h (2 Bft) N 10 ° 0 min 0,000 mm 0,0 UV-I 54 W/m² 1,0 °C 4,1 °C 8,0 km/h (2 Bft)
12.04.2019 17:09 5,3 °C 74 % 1016,9 hPa 0,0 mm 1,6 km/h (1 Bft) NO 40 ° 0 min 0,000 mm 0,0 UV-I 54 W/m² 1,0 °C 5,3 °C 3,2 km/h (1 Bft)
12.04.2019 17:10 5,3 °C 75 % 1017,0 hPa 0,0 mm 4,0 km/h (1 Bft) O-NO 63 ° 0 min 0,000 mm 0,0 UV-I 54 W/m² 1,2 °C 5,3 °C 8,0 km/h (2 Bft)
12.04.2019 17:11 5,3 °C 74 % 1017,0 hPa 0,0 mm 3,6 km/h (1 Bft) O-NO 65 ° 0 min 0,000 mm 0,0 UV-I 54 W/m² 1,0 °C 5,3 °C 9,7 km/h (2 Bft)
12.04.2019 17:12 5,2 °C 73 % 1017,0 hPa 0,0 mm 3,8 km/h (1 Bft) NO 46 ° 0 min 0,000 mm 0,0 UV-I 56 W/m² 0,8 °C 5,2 °C 4,8 km/h (1 Bft)
12.04.2019 17:13 5,2 °C 73 % 1017,0 hPa 0,0 mm 6,0 km/h (2 Bft) NO 53 ° 0 min 0,000 mm 0,0 UV-I 56 W/m² 0,8 °C 4,0 °C 9,7 km/h (2 Bft)
12.04.2019 17:14 5,2 °C 73 % 1017,0 hPa 0,0 mm 5,7 km/h (1 Bft) N-NO 13 ° 0 min 0,000 mm 0,0 UV-I 56 W/m² 0,8 °C 4,1 °C 8,0 km/h (2 Bft)
12.04.2019 17:15 5,2 °C 73 % 1017,0 hPa 0,0 mm 4,2 km/h (1 Bft) NO 37 ° 0 min 0,000 mm 0,0 UV-I 56 W/m² 0,8 °C 5,2 °C 8,0 km/h (2 Bft)
12.04.2019 17:16 5,2 °C 73 % 1017,0 hPa 0,0 mm 5,9 km/h (2 Bft) NO 51 ° 0 min 0,000 mm 0,0 UV-I 54 W/m² 0,8 °C 4,0 °C 8,0 km/h (2 Bft)
12.04.2019 17:17 5,2 °C 73 % 1017,0 hPa 0,0 mm 4,8 km/h (1 Bft) O-NO 73 ° 0 min 0,000 mm 0,0 UV-I 54 W/m² 0,8 °C 4,4 °C 8,0 km/h (2 Bft)
12.04.2019 17:18 5,2 °C 73 % 1017,0 hPa 0,0 mm 4,6 km/h (1 Bft) NO 42 ° 0 min 0,000 mm 0,0 UV-I 54 W/m² 0,8 °C 4,5 °C 6,4 km/h (2 Bft)
12.04.2019 17:19 5,2 °C 73 % 1017,0 hPa 0,0 mm 7,2 km/h (2 Bft) NO 45 ° 0 min 0,000 mm 0,0 UV-I 54 W/m² 0,8 °C 3,6 °C 9,7 km/h (2 Bft)
12.04.2019 17:20 5,2 °C 73 % 1017,0 hPa 0,0 mm 4,2 km/h (1 Bft) O-NO 66 ° 0 min 0,000 mm 0,0 UV-I 53 W/m² 0,8 °C 5,2 °C 6,4 km/h (2 Bft)
12.04.2019 17:21 5,2 °C 74 % 1017,0 hPa 0,0 mm 2,8 km/h (1 Bft) O-NO 64 ° 0 min 0,000 mm 0,0 UV-I 53 W/m² 1,0 °C 5,2 °C 3,2 km/h (1 Bft)
12.04.2019 17:22 5,2 °C 74 % 1017,0 hPa 0,0 mm 2,1 km/h (1 Bft) O-NO 64 ° 0 min 0,000 mm 0,0 UV-I 53 W/m² 1,0 °C 5,2 °C 3,2 km/h (1 Bft)
12.04.2019 17:23 5,2 °C 73 % 1017,0 hPa 0,0 mm 1,7 km/h (1 Bft) O-NO 63 ° 0 min 0,000 mm 0,0 UV-I 51 W/m² 0,8 °C 5,2 °C 3,2 km/h (1 Bft)
12.04.2019 17:24 5,2 °C 73 % 1017,0 hPa 0,0 mm 3,9 km/h (1 Bft) O-NO 63 ° 0 min 0,000 mm 0,0 UV-I 51 W/m² 0,8 °C 5,2 °C 8,0 km/h (2 Bft)
12.04.2019 17:25 5,1 °C 73 % 1017,0 hPa 0,0 mm 4,0 km/h (1 Bft) O-NO 60 ° 0 min 0,000 mm 0,0 UV-I 51 W/m² 0,7 °C 5,1 °C 8,0 km/h (2 Bft)
12.04.2019 17:26 5,2 °C 73 % 1017,0 hPa 0,0 mm 3,7 km/h (1 Bft) N-NO 17 ° 0 min 0,000 mm 0,0 UV-I 53 W/m² 0,8 °C 5,2 °C 6,4 km/h (2 Bft)
12.04.2019 17:27 5,1 °C 73 % 1017,1 hPa 0,0 mm 5,7 km/h (1 Bft) N-NO 17 ° 0 min 0,000 mm 0,0 UV-I 53 W/m² 0,7 °C 3,9 °C 8,0 km/h (2 Bft)
12.04.2019 17:28 5,1 °C 72 % 1017,1 hPa 0,0 mm 2,5 km/h (1 Bft) O 82 ° 0 min 0,000 mm 0,0 UV-I 53 W/m² 0,5 °C 5,1 °C 4,8 km/h (1 Bft)
12.04.2019 17:29 5,1 °C 73 % 1017,1 hPa 0,0 mm 4,5 km/h (1 Bft) N-NO 28 ° 0 min 0,000 mm 0,0 UV-I 54 W/m² 0,7 °C 5,1 °C 8,0 km/h (2 Bft)
12.04.2019 17:30 5,1 °C 72 % 1017,1 hPa 0,0 mm 5,0 km/h (1 Bft) NO 36 ° 0 min 0,000 mm 0,0 UV-I 54 W/m² 0,5 °C 4,2 °C 8,0 km/h (2 Bft)
12.04.2019 17:31 5,1 °C 72 % 1017,0 hPa 0,0 mm 7,1 km/h (2 Bft) N-NO 21 ° 0 min 0,000 mm 0,0 UV-I 56 W/m² 0,5 °C 3,5 °C 11,3 km/h (2 Bft)
12.04.2019 17:32 5,1 °C 73 % 1017,1 hPa 0,0 mm 3,7 km/h (1 Bft) N-NO 21 ° 0 min 0,000 mm 0,0 UV-I 56 W/m² 0,7 °C 5,1 °C 4,8 km/h (1 Bft)
12.04.2019 17:33 5,1 °C 73 % 1017,1 hPa 0,0 mm 3,0 km/h (1 Bft) N-NO 15 ° 0 min 0,000 mm 0,0 UV-I 56 W/m² 0,7 °C 5,1 °C 4,8 km/h (1 Bft)
12.04.2019 17:34 5,1 °C 73 % 1017,1 hPa 0,0 mm 1,5 km/h (1 Bft) N-NO 24 ° 0 min 0,000 mm 0,0 UV-I 56 W/m² 0,7 °C 5,1 °C 3,2 km/h (1 Bft)
12.04.2019 17:35 5,2 °C 74 % 1017,1 hPa 0,0 mm 3,0 km/h (1 Bft) N-NO 14 ° 0 min 0,000 mm 0,0 UV-I 54 W/m² 1,0 °C 5,2 °C 6,4 km/h (2 Bft)
12.04.2019 17:36 5,2 °C 74 % 1017,1 hPa 0,0 mm 2,8 km/h (1 Bft) NO 55 ° 0 min 0,000 mm 0,0 UV-I 53 W/m² 1,0 °C 5,2 °C 4,8 km/h (1 Bft)
12.04.2019 17:37 5,2 °C 74 % 1017,1 hPa 0,0 mm 2,3 km/h (1 Bft) O-NO 69 ° 0 min 0,000 mm 0,0 UV-I 51 W/m² 1,0 °C 5,2 °C 4,8 km/h (1 Bft)
12.04.2019 17:38 5,1 °C 73 % 1017,1 hPa 0,0 mm 3,4 km/h (1 Bft) O-NO 65 ° 0 min 0,000 mm 0,0 UV-I 49 W/m² 0,7 °C 5,1 °C 4,8 km/h (1 Bft)
12.04.2019 17:39 5,2 °C 73 % 1017,1 hPa 0,0 mm 0,5 km/h (0 Bft) O-NO 65 ° 0 min 0,000 mm 0,0 UV-I 49 W/m² 0,8 °C 5,2 °C 1,6 km/h (1 Bft)
12.04.2019 17:40 5,2 °C 73 % 1017,2 hPa 0,0 mm 0,5 km/h (0 Bft) NO 51 ° 0 min 0,000 mm 0,0 UV-I 47 W/m² 0,8 °C 5,2 °C 3,2 km/h (1 Bft)
12.04.2019 17:41 5,1 °C 73 % 1017,1 hPa 0,0 mm 2,1 km/h (1 Bft) N 355 ° 0 min 0,000 mm 0,0 UV-I 47 W/m² 0,7 °C 5,1 °C 6,4 km/h (2 Bft)
12.04.2019 17:42 5,2 °C 73 % 1017,2 hPa 0,0 mm 3,4 km/h (1 Bft) NO 56 ° 0 min 0,000 mm 0,0 UV-I 47 W/m² 0,8 °C 5,2 °C 8,0 km/h (2 Bft)
12.04.2019 17:43 5,2 °C 73 % 1017,2 hPa 0,0 mm 4,8 km/h (1 Bft) NO 53 ° 0 min 0,000 mm 0,0 UV-I 47 W/m² 0,8 °C 4,4 °C 8,0 km/h (2 Bft)
12.04.2019 17:44 5,1 °C 72 % 1017,1 hPa 0,0 mm 4,2 km/h (1 Bft) O-NO 68 ° 0 min 0,000 mm 0,0 UV-I 47 W/m² 0,5 °C 5,1 °C 8,0 km/h (2 Bft)
12.04.2019 17:45 5,1 °C 72 % 1017,2 hPa 0,0 mm 4,1 km/h (1 Bft) N-NO 24 ° 0 min 0,000 mm 0,0 UV-I 47 W/m² 0,5 °C 5,1 °C 6,4 km/h (2 Bft)
12.04.2019 17:46 5,1 °C 72 % 1017,1 hPa 0,0 mm 5,9 km/h (2 Bft) O-NO 62 ° 0 min 0,000 mm 0,0 UV-I 49 W/m² 0,5 °C 3,9 °C 9,7 km/h (2 Bft)
12.04.2019 17:47 5,0 °C 73 % 1017,2 hPa 0,0 mm 5,0 km/h (1 Bft) N-NO 30 ° 0 min 0,000 mm 0,0 UV-I 53 W/m² 0,6 °C 4,1 °C 8,0 km/h (2 Bft)
12.04.2019 17:48 5,0 °C 73 % 1017,1 hPa 0,0 mm 4,8 km/h (1 Bft) O-NO 74 ° 0 min 0,000 mm 0,0 UV-I 56 W/m² 0,6 °C 4,2 °C 9,7 km/h (2 Bft)
12.04.2019 17:49 5,0 °C 72 % 1017,2 hPa 0,0 mm 3,8 km/h (1 Bft) O 101 ° 0 min 0,000 mm 0,0 UV-I 60 W/m² 0,4 °C 5,0 °C 4,8 km/h (1 Bft)
12.04.2019 17:50 5,0 °C 73 % 1017,1 hPa 0,0 mm 7,6 km/h (2 Bft) O 89 ° 0 min 0,000 mm 0,0 UV-I 65 W/m² 0,6 °C 3,2 °C 11,3 km/h (2 Bft)
12.04.2019 17:51 4,9 °C 72 % 1017,1 hPa 0,0 mm 5,5 km/h (1 Bft) O 82 ° 0 min 0,000 mm 0,0 UV-I 70 W/m² 0,3 °C 3,8 °C 9,7 km/h (2 Bft)
12.04.2019 17:52 4,9 °C 73 % 1017,1 hPa 0,0 mm 4,8 km/h (1 Bft) NO 48 ° 0 min 0,000 mm 0,5 UV-I 79 W/m² 0,5 °C 4,0 °C 8,0 km/h (2 Bft)
12.04.2019 17:53 4,9 °C 73 % 1017,1 hPa 0,0 mm 2,0 km/h (1 Bft) NO 49 ° 0 min 0,000 mm 0,5 UV-I 83 W/m² 0,5 °C 4,9 °C 4,8 km/h (1 Bft)
12.04.2019 17:54 5,0 °C 74 % 1017,1 hPa 0,0 mm 1,9 km/h (1 Bft) NO 51 ° 0 min 0,000 mm 0,5 UV-I 84 W/m² 0,8 °C 5,0 °C 4,8 km/h (1 Bft)
12.04.2019 17:55 5,0 °C 74 % 1017,1 hPa 0,0 mm 2,7 km/h (1 Bft) NO 51 ° 0 min 0,000 mm 0,5 UV-I 84 W/m² 0,8 °C 5,0 °C 4,8 km/h (1 Bft)
12.04.2019 17:56 5,1 °C 73 % 1017,1 hPa 0,0 mm 2,9 km/h (1 Bft) NO 49 ° 0 min 0,000 mm 0,5 UV-I 84 W/m² 0,7 °C 5,1 °C 8,0 km/h (2 Bft)
12.04.2019 17:57 5,0 °C 73 % 1017,2 hPa 0,0 mm 2,5 km/h (1 Bft) N-NO 25 ° 0 min 0,000 mm 0,5 UV-I 84 W/m² 0,6 °C 5,0 °C 8,0 km/h (2 Bft)
12.04.2019 17:58 5,0 °C 73 % 1017,1 hPa 0,0 mm 1,7 km/h (1 Bft) N-NO 28 ° 0 min 0,000 mm 0,5 UV-I 84 W/m² 0,6 °C 5,0 °C 4,8 km/h (1 Bft)
12.04.2019 17:59 5,1 °C 73 % 1017,1 hPa 0,0 mm 2,7 km/h (1 Bft) O 97 ° 0 min 0,000 mm 0,5 UV-I 83 W/m² 0,7 °C 5,1 °C 4,8 km/h (1 Bft)
12.04.2019 18:00 5,1 °C 73 % 1017,1 hPa 0,0 mm 5,3 km/h (1 Bft) N-NW 345 ° 0 min 0,000 mm 0,5 UV-I 83 W/m² 0,7 °C 4,1 °C 8,0 km/h (2 Bft)
12.04.2019 18:01 5,1 °C 74 % 1017,2 hPa 0,0 mm 5,4 km/h (1 Bft) N 9 ° 0 min 0,025 mm 0,5 UV-I 81 W/m² 0,9 °C 4,0 °C 8,0 km/h (2 Bft)
12.04.2019 18:02 5,1 °C 74 % 1017,2 hPa 0,0 mm 3,6 km/h (1 Bft) NO 42 ° 0 min 0,000 mm 0,5 UV-I 79 W/m² 0,9 °C 5,1 °C 6,4 km/h (2 Bft)
12.04.2019 18:03 5,1 °C 73 % 1017,2 hPa 0,0 mm 2,4 km/h (1 Bft) NO 42 ° 0 min 0,000 mm 0,5 UV-I 76 W/m² 0,7 °C 5,1 °C 4,8 km/h (1 Bft)
12.04.2019 18:04 5,1 °C 72 % 1017,3 hPa 0,0 mm 3,5 km/h (1 Bft) NO 42 ° 0 min 0,000 mm 0,0 UV-I 74 W/m² 0,5 °C 5,1 °C 4,8 km/h (1 Bft)
12.04.2019 18:05 5,1 °C 73 % 1017,3 hPa 0,0 mm 1,4 km/h (1 Bft) NO 42 ° 0 min 0,000 mm 0,0 UV-I 72 W/m² 0,7 °C 5,1 °C 3,2 km/h (1 Bft)
12.04.2019 18:06 5,1 °C 73 % 1017,3 hPa 0,0 mm 2,7 km/h (1 Bft) NO 42 ° 0 min 0,000 mm 0,0 UV-I 70 W/m² 0,7 °C 5,1 °C 4,8 km/h (1 Bft)
12.04.2019 18:07 5,1 °C 73 % 1017,3 hPa 0,0 mm 4,9 km/h (1 Bft) N 360 ° 0 min 0,000 mm 0,0 UV-I 69 W/m² 0,7 °C 4,2 °C 8,0 km/h (2 Bft)
12.04.2019 18:08 5,1 °C 73 % 1017,3 hPa 0,0 mm 4,9 km/h (1 Bft) N-NO 14 ° 0 min 0,000 mm 0,0 UV-I 65 W/m² 0,7 °C 4,2 °C 6,4 km/h (2 Bft)
12.04.2019 18:09 5,1 °C 73 % 1017,3 hPa 0,0 mm 2,9 km/h (1 Bft) N-NO 17 ° 0 min 0,000 mm 0,0 UV-I 56 W/m² 0,7 °C 5,1 °C 4,8 km/h (1 Bft)
12.04.2019 18:10 5,1 °C 73 % 1017,3 hPa 0,0 mm 3,8 km/h (1 Bft) N 360 ° 0 min 0,000 mm 0,0 UV-I 53 W/m² 0,7 °C 5,1 °C 6,4 km/h (2 Bft)
12.04.2019 18:11 5,1 °C 72 % 1017,3 hPa 0,0 mm 1,7 km/h (1 Bft) O-NO 64 ° 0 min 0,000 mm 0,0 UV-I 51 W/m² 0,5 °C 5,1 °C 4,8 km/h (1 Bft)
12.04.2019 18:12 5,1 °C 73 % 1017,3 hPa 0,0 mm 1,2 km/h (1 Bft) O-NO 63 ° 0 min 0,000 mm 0,0 UV-I 49 W/m² 0,7 °C 5,1 °C 3,2 km/h (1 Bft)
12.04.2019 18:13 5,1 °C 72 % 1017,4 hPa 0,0 mm 5,0 km/h (1 Bft) NO 42 ° 0 min 0,000 mm 0,0 UV-I 47 W/m² 0,5 °C 4,2 °C 8,0 km/h (2 Bft)
12.04.2019 18:14 5,1 °C 72 % 1017,4 hPa 0,0 mm 3,4 km/h (1 Bft) NO 45 ° 0 min 0,000 mm 0,0 UV-I 46 W/m² 0,5 °C 5,1 °C 6,4 km/h (2 Bft)
12.04.2019 18:15 5,1 °C 72 % 1017,3 hPa 0,0 mm 2,0 km/h (1 Bft) NO 45 ° 0 min 0,000 mm 0,0 UV-I 44 W/m² 0,5 °C 5,1 °C 3,2 km/h (1 Bft)
12.04.2019 18:16 5,0 °C 73 % 1017,4 hPa 0,0 mm 4,2 km/h (1 Bft) NO 44 ° 0 min 0,000 mm 0,0 UV-I 44 W/m² 0,6 °C 5,0 °C 6,4 km/h (2 Bft)
12.04.2019 18:17 5,0 °C 72 % 1017,4 hPa 0,0 mm 4,6 km/h (1 Bft) N 360 ° 0 min 0,000 mm 0,0 UV-I 44 W/m² 0,4 °C 4,2 °C 6,4 km/h (2 Bft)
12.04.2019 18:18 5,0 °C 73 % 1017,4 hPa 0,0 mm 1,9 km/h (1 Bft) N 360 ° 0 min 0,000 mm 0,0 UV-I 46 W/m² 0,6 °C 5,0 °C 3,2 km/h (1 Bft)
12.04.2019 18:19 5,0 °C 73 % 1017,3 hPa 0,0 mm 2,4 km/h (1 Bft) N 360 ° 0 min 0,000 mm 0,0 UV-I 46 W/m² 0,6 °C 5,0 °C 3,2 km/h (1 Bft)
12.04.2019 18:20 5,0 °C 72 % 1017,3 hPa 0,0 mm 0,6 km/h (0 Bft) N 360 ° 0 min 0,000 mm 0,0 UV-I 47 W/m² 0,4 °C 5,0 °C 1,6 km/h (1 Bft)
12.04.2019 18:21 5,0 °C 72 % 1017,4 hPa 0,0 mm 2,9 km/h (1 Bft) NO 44 ° 0 min 0,000 mm 0,0 UV-I 47 W/m² 0,4 °C 5,0 °C 4,8 km/h (1 Bft)
12.04.2019 18:22 5,0 °C 72 % 1017,3 hPa 0,0 mm 5,9 km/h (2 Bft) NO 41 ° 0 min 0,000 mm 0,0 UV-I 47 W/m² 0,4 °C 3,8 °C 8,0 km/h (2 Bft)
12.04.2019 18:23 5,0 °C 72 % 1017,3 hPa 0,0 mm 4,0 km/h (1 Bft) O 87 ° 0 min 0,000 mm 0,0 UV-I 49 W/m² 0,4 °C 5,0 °C 6,4 km/h (2 Bft)
12.04.2019 18:24 5,0 °C 72 % 1017,4 hPa 0,0 mm 5,2 km/h (1 Bft) O-NO 68 ° 0 min 0,000 mm 0,0 UV-I 49 W/m² 0,4 °C 4,0 °C 8,0 km/h (2 Bft)
12.04.2019 18:25 4,9 °C 72 % 1017,4 hPa 0,0 mm 0,9 km/h (0 Bft) O-NO 68 ° 0 min 0,000 mm 0,0 UV-I 49 W/m² 0,3 °C 4,9 °C 4,8 km/h (1 Bft)
12.04.2019 18:26 4,9 °C 72 % 1017,3 hPa 0,0 mm 3,6 km/h (1 Bft) O-NO 72 ° 0 min 0,000 mm 0,0 UV-I 49 W/m² 0,3 °C 4,9 °C 6,4 km/h (2 Bft)
12.04.2019 18:27 4,9 °C 73 % 1017,4 hPa 0,0 mm 3,6 km/h (1 Bft) NO 55 ° 0 min 0,000 mm 0,0 UV-I 47 W/m² 0,5 °C 4,9 °C 6,4 km/h (2 Bft)
12.04.2019 18:28 4,9 °C 73 % 1017,4 hPa 0,0 mm 1,9 km/h (1 Bft) NO 55 ° 0 min 0,000 mm 0,0 UV-I 47 W/m² 0,5 °C 4,9 °C 3,2 km/h (1 Bft)
12.04.2019 18:29 4,9 °C 72 % 1017,3 hPa 0,0 mm 4,2 km/h (1 Bft) O 80 ° 0 min 0,000 mm 0,0 UV-I 49 W/m² 0,3 °C 4,9 °C 11,3 km/h (2 Bft)
12.04.2019 18:30 4,9 °C 73 % 1017,3 hPa 0,0 mm 5,4 km/h (1 Bft) O-NO 59 ° 0 min 0,000 mm 0,0 UV-I 49 W/m² 0,5 °C 3,8 °C 8,0 km/h (2 Bft)
12.04.2019 18:31 4,9 °C 73 % 1017,4 hPa 0,0 mm 2,4 km/h (1 Bft) O-NO 59 ° 0 min 0,000 mm 0,0 UV-I 49 W/m² 0,5 °C 4,9 °C 4,8 km/h (1 Bft)
12.04.2019 18:32 4,9 °C 72 % 1017,3 hPa 0,0 mm 3,1 km/h (1 Bft) O 101 ° 0 min 0,000 mm 0,0 UV-I 47 W/m² 0,3 °C 4,9 °C 6,4 km/h (2 Bft)
12.04.2019 18:33 4,9 °C 73 % 1017,3 hPa 0,0 mm 5,3 km/h (1 Bft) N-NO 23 ° 0 min 0,000 mm 0,0 UV-I 46 W/m² 0,5 °C 3,9 °C 9,7 km/h (2 Bft)
12.04.2019 18:34 4,9 °C 73 % 1017,4 hPa 0,0 mm 4,3 km/h (1 Bft) N-NO 29 ° 0 min 0,000 mm 0,0 UV-I 44 W/m² 0,5 °C 4,9 °C 8,0 km/h (2 Bft)
12.04.2019 18:35 4,8 °C 72 % 1017,4 hPa 0,0 mm 1,3 km/h (1 Bft) N-NO 29 ° 0 min 0,000 mm 0,0 UV-I 42 W/m² 0,2 °C 4,8 °C 3,2 km/h (1 Bft)
12.04.2019 18:36 4,9 °C 73 % 1017,3 hPa 0,0 mm 1,1 km/h (1 Bft) N-NO 28 ° 0 min 0,000 mm 0,0 UV-I 40 W/m² 0,5 °C 4,9 °C 3,2 km/h (1 Bft)
12.04.2019 18:37 4,9 °C 72 % 1017,4 hPa 0,0 mm 3,9 km/h (1 Bft) O 99 ° 0 min 0,000 mm 0,0 UV-I 39 W/m² 0,3 °C 4,9 °C 9,7 km/h (2 Bft)
12.04.2019 18:38 4,9 °C 72 % 1017,4 hPa 0,0 mm 3,8 km/h (1 Bft) O-NO 63 ° 0 min 0,000 mm 0,0 UV-I 37 W/m² 0,3 °C 4,9 °C 6,4 km/h (2 Bft)
12.04.2019 18:39 4,9 °C 72 % 1017,4 hPa 0,0 mm 2,3 km/h (1 Bft) NO 53 ° 0 min 0,000 mm 0,0 UV-I 37 W/m² 0,3 °C 4,9 °C 4,8 km/h (1 Bft)
12.04.2019 18:40 4,8 °C 73 % 1017,4 hPa 0,0 mm 5,1 km/h (1 Bft) NO 49 ° 0 min 0,000 mm 0,0 UV-I 35 W/m² 0,4 °C 3,8 °C 6,4 km/h (2 Bft)
12.04.2019 18:41 4,8 °C 72 % 1017,4 hPa 0,0 mm 3,4 km/h (1 Bft) N 355 ° 0 min 0,000 mm 0,0 UV-I 35 W/m² 0,2 °C 4,8 °C 4,8 km/h (1 Bft)
12.04.2019 18:42 4,9 °C 72 % 1017,4 hPa 0,0 mm 4,0 km/h (1 Bft) N-NO 28 ° 0 min 0,000 mm 0,0 UV-I 33 W/m² 0,3 °C 4,9 °C 6,4 km/h (2 Bft)
12.04.2019 18:43 4,9 °C 72 % 1017,4 hPa 0,0 mm 3,0 km/h (1 Bft) N-NO 28 ° 0 min 0,000 mm 0,0 UV-I 33 W/m² 0,3 °C 4,9 °C 4,8 km/h (1 Bft)
12.04.2019 18:44 4,8 °C 72 % 1017,4 hPa 0,0 mm 1,7 km/h (1 Bft) N-NO 28 ° 0 min 0,000 mm 0,0 UV-I 33 W/m² 0,2 °C 4,8 °C 4,8 km/h (1 Bft)
12.04.2019 18:45 4,8 °C 72 % 1017,4 hPa 0,0 mm 1,9 km/h (1 Bft) N-NO 28 ° 0 min 0,000 mm 0,0 UV-I 33 W/m² 0,2 °C 4,8 °C 4,8 km/h (1 Bft)
12.04.2019 18:46 4,9 °C 72 % 1017,4 hPa 0,0 mm 0,1 km/h (0 Bft) N-NO 28 ° 0 min 0,000 mm 0,0 UV-I 33 W/m² 0,3 °C 4,9 °C 1,6 km/h (1 Bft)
12.04.2019 18:47 4,9 °C 73 % 1017,4 hPa 0,0 mm 2,3 km/h (1 Bft) N-NO 28 ° 0 min 0,000 mm 0,0 UV-I 33 W/m² 0,5 °C 4,9 °C 4,8 km/h (1 Bft)
12.04.2019 18:48 4,8 °C 72 % 1017,4 hPa 0,0 mm 2,6 km/h (1 Bft) N-NO 28 ° 0 min 0,000 mm 0,0 UV-I 32 W/m² 0,2 °C 4,8 °C 4,8 km/h (1 Bft)
12.04.2019 18:49 4,8 °C 72 % 1017,4 hPa 0,0 mm 2,8 km/h (1 Bft) N-NO 29 ° 0 min 0,000 mm 0,0 UV-I 32 W/m² 0,2 °C 4,8 °C 3,2 km/h (1 Bft)
12.04.2019 18:50 4,8 °C 72 % 1017,4 hPa 0,0 mm 2,2 km/h (1 Bft) NO 51 ° 0 min 0,000 mm 0,0 UV-I 32 W/m² 0,2 °C 4,8 °C 4,8 km/h (1 Bft)
12.04.2019 18:51 4,8 °C 73 % 1017,4 hPa 0,0 mm 2,8 km/h (1 Bft) O-NO 57 ° 0 min 0,000 mm 0,0 UV-I 30 W/m² 0,4 °C 4,8 °C 4,8 km/h (1 Bft)
12.04.2019 18:52 4,8 °C 73 % 1017,4 hPa 0,0 mm 0,5 km/h (0 Bft) O-NO 57 ° 0 min 0,000 mm 0,0 UV-I 30 W/m² 0,4 °C 4,8 °C 3,2 km/h (1 Bft)
12.04.2019 18:53 4,8 °C 73 % 1017,4 hPa 0,0 mm 2,2 km/h (1 Bft) O-NO 57 ° 0 min 0,000 mm 0,0 UV-I 30 W/m² 0,4 °C 4,8 °C 4,8 km/h (1 Bft)
12.04.2019 18:54 4,8 °C 72 % 1017,4 hPa 0,0 mm 3,3 km/h (1 Bft) NO 44 ° 0 min 0,000 mm 0,0 UV-I 28 W/m² 0,2 °C 4,8 °C 4,8 km/h (1 Bft)
12.04.2019 18:55 4,8 °C 73 % 1017,4 hPa 0,0 mm 1,7 km/h (1 Bft) NO 44 ° 0 min 0,000 mm 0,0 UV-I 28 W/m² 0,4 °C 4,8 °C 3,2 km/h (1 Bft)
12.04.2019 18:56 4,8 °C 73 % 1017,4 hPa 0,0 mm 2,3 km/h (1 Bft) O 83 ° 0 min 0,000 mm 0,0 UV-I 26 W/m² 0,4 °C 4,8 °C 4,8 km/h (1 Bft)
12.04.2019 18:57 4,8 °C 74 % 1017,4 hPa 0,0 mm 2,9 km/h (1 Bft) O 82 ° 0 min 0,000 mm 0,0 UV-I 26 W/m² 0,6 °C 4,8 °C 4,8 km/h (1 Bft)
12.04.2019 18:58 4,8 °C 75 % 1017,4 hPa 0,0 mm 4,0 km/h (1 Bft) O-SO 104 ° 0 min 0,000 mm 0,0 UV-I 28 W/m² 0,8 °C 4,8 °C 8,0 km/h (2 Bft)
12.04.2019 18:59 4,8 °C 73 % 1017,4 hPa 0,0 mm 6,4 km/h (2 Bft) O 82 ° 0 min 0,000 mm 0,0 UV-I 28 W/m² 0,4 °C 3,4 °C 8,0 km/h (2 Bft)
12.04.2019 19:00 4,8 °C 73 % 1017,4 hPa 0,0 mm 5,0 km/h (1 Bft) O 80 ° 0 min 0,000 mm 0,0 UV-I 28 W/m² 0,4 °C 3,9 °C 6,4 km/h (2 Bft)
12.04.2019 19:01 4,7 °C 74 % 1017,4 hPa 0,0 mm 4,9 km/h (1 Bft) O 95 ° 0 min 0,026 mm 0,0 UV-I 28 W/m² 0,5 °C 3,8 °C 9,7 km/h (2 Bft)
12.04.2019 19:02 4,7 °C 74 % 1017,4 hPa 0,0 mm 3,0 km/h (1 Bft) NO 39 ° 0 min 0,000 mm 0,0 UV-I 26 W/m² 0,5 °C 4,7 °C 4,8 km/h (1 Bft)
12.04.2019 19:03 4,7 °C 73 % 1017,4 hPa 0,0 mm 5,7 km/h (1 Bft) O-NO 72 ° 0 min 0,000 mm 0,0 UV-I 26 W/m² 0,3 °C 3,5 °C 8,0 km/h (2 Bft)
12.04.2019 19:04 4,7 °C 73 % 1017,4 hPa 0,0 mm 4,9 km/h (1 Bft) O-NO 69 ° 0 min 0,000 mm 0,0 UV-I 25 W/m² 0,3 °C 3,8 °C 6,4 km/h (2 Bft)
12.04.2019 19:05 4,7 °C 73 % 1017,4 hPa 0,0 mm 2,7 km/h (1 Bft) O-NO 57 ° 0 min 0,000 mm 0,0 UV-I 26 W/m² 0,3 °C 4,7 °C 4,8 km/h (1 Bft)
12.04.2019 19:06 4,7 °C 73 % 1017,4 hPa 0,0 mm 3,7 km/h (1 Bft) NO 53 ° 0 min 0,000 mm 0,0 UV-I 25 W/m² 0,3 °C 4,7 °C 6,4 km/h (2 Bft)
12.04.2019 19:07 4,7 °C 73 % 1017,4 hPa 0,0 mm 2,4 km/h (1 Bft) O-NO 67 ° 0 min 0,000 mm 0,0 UV-I 25 W/m² 0,3 °C 4,7 °C 4,8 km/h (1 Bft)
12.04.2019 19:08 4,7 °C 74 % 1017,4 hPa 0,0 mm 1,3 km/h (1 Bft) O-NO 67 ° 0 min 0,000 mm 0,0 UV-I 23 W/m² 0,5 °C 4,7 °C 3,2 km/h (1 Bft)
12.04.2019 19:09 4,7 °C 74 % 1017,4 hPa 0,0 mm 0,9 km/h (0 Bft) O-NO 67 ° 0 min 0,000 mm 0,0 UV-I 23 W/m² 0,5 °C 4,7 °C 1,6 km/h (1 Bft)
12.04.2019 19:10 4,7 °C 75 % 1017,4 hPa 0,0 mm 1,2 km/h (1 Bft) O-NO 74 ° 0 min 0,000 mm 0,0 UV-I 21 W/m² 0,7 °C 4,7 °C 3,2 km/h (1 Bft)
12.04.2019 19:11 4,6 °C 75 % 1017,5 hPa 0,0 mm 3,4 km/h (1 Bft) O-NO 74 ° 0 min 0,000 mm 0,0 UV-I 21 W/m² 0,6 °C 4,6 °C 4,8 km/h (1 Bft)
12.04.2019 19:12 4,6 °C 75 % 1017,4 hPa 0,0 mm 1,4 km/h (1 Bft) O 80 ° 0 min 0,000 mm 0,0 UV-I 21 W/m² 0,6 °C 4,6 °C 3,2 km/h (1 Bft)
12.04.2019 19:13 4,6 °C 75 % 1017,4 hPa 0,0 mm 0,0 km/h (0 Bft) O 80 ° 0 min 0,000 mm 0,0 UV-I 19 W/m² 0,6 °C 4,6 °C 0,0 km/h (0 Bft)
12.04.2019 19:14 4,6 °C 75 % 1017,5 hPa 0,0 mm 1,7 km/h (1 Bft) O 80 ° 0 min 0,000 mm 0,0 UV-I 18 W/m² 0,6 °C 4,6 °C 3,2 km/h (1 Bft)
12.04.2019 19:15 4,6 °C 75 % 1017,5 hPa 0,0 mm 3,4 km/h (1 Bft) O-NO 73 ° 0 min 0,000 mm 0,0 UV-I 16 W/m² 0,6 °C 4,6 °C 4,8 km/h (1 Bft)
12.04.2019 19:16 4,6 °C 74 % 1017,5 hPa 0,0 mm 2,1 km/h (1 Bft) O-NO 67 ° 0 min 0,000 mm 0,0 UV-I 14 W/m² 0,4 °C 4,6 °C 4,8 km/h (1 Bft)
12.04.2019 19:17 4,6 °C 73 % 1017,5 hPa 0,0 mm 2,6 km/h (1 Bft) NO 36 ° 0 min 0,000 mm 0,0 UV-I 14 W/m² 0,2 °C 4,6 °C 4,8 km/h (1 Bft)
12.04.2019 19:18 4,6 °C 74 % 1017,5 hPa 0,0 mm 0,0 km/h (0 Bft) NO 36 ° 0 min 0,000 mm 0,0 UV-I 12 W/m² 0,4 °C 4,6 °C 0,0 km/h (0 Bft)
12.04.2019 19:19 4,6 °C 74 % 1017,5 hPa 0,0 mm 0,0 km/h (0 Bft) NO 36 ° 0 min 0,000 mm 0,0 UV-I 11 W/m² 0,4 °C 4,6 °C 0,0 km/h (0 Bft)
12.04.2019 19:20 4,6 °C 75 % 1017,5 hPa 0,0 mm 0,0 km/h (0 Bft) NO 36 ° 0 min 0,000 mm 0,0 UV-I 11 W/m² 0,6 °C 4,6 °C 0,0 km/h (0 Bft)
12.04.2019 19:21 4,6 °C 75 % 1017,5 hPa 0,0 mm 0,0 km/h (0 Bft) NO 36 ° 0 min 0,000 mm 0,0 UV-I 11 W/m² 0,6 °C 4,6 °C 0,0 km/h (0 Bft)
12.04.2019 19:22 4,6 °C 74 % 1017,6 hPa 0,0 mm 2,0 km/h (1 Bft) NO 36 ° 0 min 0,000 mm 0,0 UV-I 11 W/m² 0,4 °C 4,6 °C 3,2 km/h (1 Bft)
12.04.2019 19:23 4,6 °C 75 % 1017,5 hPa 0,0 mm 3,0 km/h (1 Bft) NO 36 ° 0 min 0,000 mm 0,0 UV-I 11 W/m² 0,6 °C 4,6 °C 4,8 km/h (1 Bft)
12.04.2019 19:24 4,6 °C 74 % 1017,5 hPa 0,0 mm 1,2 km/h (1 Bft) NO 36 ° 0 min 0,000 mm 0,0 UV-I 11 W/m² 0,4 °C 4,6 °C 3,2 km/h (1 Bft)
12.04.2019 19:25 4,6 °C 74 % 1017,5 hPa 0,0 mm 0,0 km/h (0 Bft) NO 36 ° 0 min 0,000 mm 0,0 UV-I 11 W/m² 0,4 °C 4,6 °C 0,0 km/h (0 Bft)
12.04.2019 19:26 4,6 °C 75 % 1017,5 hPa 0,0 mm 1,4 km/h (1 Bft) NO 36 ° 0 min 0,000 mm 0,0 UV-I 11 W/m² 0,6 °C 4,6 °C 3,2 km/h (1 Bft)
12.04.2019 19:27 4,6 °C 74 % 1017,5 hPa 0,0 mm 1,5 km/h (1 Bft) NO 36 ° 0 min 0,000 mm 0,0 UV-I 11 W/m² 0,4 °C 4,6 °C 3,2 km/h (1 Bft)
12.04.2019 19:28 4,6 °C 74 % 1017,5 hPa 0,0 mm 5,0 km/h (1 Bft) N 5 ° 0 min 0,000 mm 0,0 UV-I 11 W/m² 0,4 °C 3,6 °C 6,4 km/h (2 Bft)
12.04.2019 19:29 4,6 °C 74 % 1017,5 hPa 0,0 mm 3,1 km/h (1 Bft) N 9 ° 0 min 0,000 mm 0,0 UV-I 11 W/m² 0,4 °C 4,6 °C 6,4 km/h (2 Bft)
12.04.2019 19:30 4,6 °C 73 % 1017,6 hPa 0,0 mm 0,0 km/h (0 Bft) N 9 ° 0 min 0,000 mm 0,0 UV-I 9 W/m² 0,2 °C 4,6 °C 0,0 km/h (0 Bft)
12.04.2019 19:31 4,5 °C 73 % 1017,6 hPa 0,0 mm 0,3 km/h (0 Bft) N 9 ° 0 min 0,000 mm 0,0 UV-I 9 W/m² 0,1 °C 4,5 °C 1,6 km/h (1 Bft)
12.04.2019 19:32 4,6 °C 73 % 1017,6 hPa 0,0 mm 0,2 km/h (0 Bft) N 9 ° 0 min 0,000 mm 0,0 UV-I 9 W/m² 0,2 °C 4,6 °C 1,6 km/h (1 Bft)
12.04.2019 19:33 4,5 °C 74 % 1017,6 hPa 0,0 mm 0,0 km/h (0 Bft) N 9 ° 0 min 0,000 mm 0,0 UV-I 7 W/m² 0,3 °C 4,5 °C 0,0 km/h (0 Bft)
12.04.2019 19:34 4,5 °C 74 % 1017,6 hPa 0,0 mm 0,0 km/h (0 Bft) N 9 ° 0 min 0,000 mm 0,0 UV-I 7 W/m² 0,3 °C 4,5 °C 0,0 km/h (0 Bft)
12.04.2019 19:35 4,5 °C 74 % 1017,6 hPa 0,0 mm 0,3 km/h (0 Bft) N 9 ° 0 min 0,000 mm 0,0 UV-I 7 W/m² 0,3 °C 4,5 °C 1,6 km/h (1 Bft)
12.04.2019 19:36 4,5 °C 74 % 1017,6 hPa 0,0 mm 0,0 km/h (0 Bft) N 9 ° 0 min 0,000 mm 0,0 UV-I 5 W/m² 0,3 °C 4,5 °C 0,0 km/h (0 Bft)
12.04.2019 19:37 4,4 °C 74 % 1017,6 hPa 0,0 mm 2,1 km/h (1 Bft) N 9 ° 0 min 0,000 mm 0,0 UV-I 5 W/m² 0,2 °C 4,4 °C 3,2 km/h (1 Bft)
12.04.2019 19:38 4,4 °C 75 % 1017,6 hPa 0,0 mm 0,1 km/h (0 Bft) N 9 ° 0 min 0,000 mm 0,0 UV-I 5 W/m² 0,4 °C 4,4 °C 1,6 km/h (1 Bft)
12.04.2019 19:39 4,4 °C 76 % 1017,6 hPa 0,0 mm 0,1 km/h (0 Bft) N 9 ° 0 min 0,000 mm 0,0 UV-I 0 W/m² 0,5 °C 4,4 °C 1,6 km/h (1 Bft)
12.04.2019 19:40 4,4 °C 75 % 1017,6 hPa 0,0 mm 2,0 km/h (1 Bft) N 9 ° 0 min 0,000 mm 0,0 UV-I 0 W/m² 0,4 °C 4,4 °C 3,2 km/h (1 Bft)
12.04.2019 19:41 4,3 °C 76 % 1017,6 hPa 0,0 mm 0,6 km/h (0 Bft) N 9 ° 0 min 0,000 mm 0,0 UV-I 5 W/m² 0,5 °C 4,3 °C 1,6 km/h (1 Bft)
12.04.2019 19:42 4,3 °C 76 % 1017,6 hPa 0,0 mm 0,4 km/h (0 Bft) N 9 ° 0 min 0,000 mm 0,0 UV-I 5 W/m² 0,5 °C 4,3 °C 1,6 km/h (1 Bft)
12.04.2019 19:43 4,3 °C 76 % 1017,7 hPa 0,0 mm 1,0 km/h (0 Bft) N-NO 13 ° 0 min 0,000 mm 0,0 UV-I 0 W/m² 0,5 °C 4,3 °C 3,2 km/h (1 Bft)
12.04.2019 19:44 4,3 °C 75 % 1017,6 hPa 0,0 mm 2,2 km/h (1 Bft) N 11 ° 0 min 0,000 mm 0,0 UV-I 0 W/m² 0,3 °C 4,3 °C 3,2 km/h (1 Bft)
12.04.2019 19:45 4,3 °C 75 % 1017,6 hPa 0,0 mm 0,2 km/h (0 Bft) N-NO 13 ° 0 min 0,000 mm 0,0 UV-I 0 W/m² 0,3 °C 4,3 °C 1,6 km/h (1 Bft)
12.04.2019 19:46 4,3 °C 75 % 1017,7 hPa 0,0 mm 0,6 km/h (0 Bft) N-NO 13 ° 0 min 0,000 mm 0,0 UV-I 0 W/m² 0,3 °C 4,3 °C 3,2 km/h (1 Bft)
12.04.2019 19:47 4,3 °C 75 % 1017,7 hPa 0,0 mm 0,0 km/h (0 Bft) N-NO 13 ° 0 min 0,000 mm 0,0 UV-I 0 W/m² 0,3 °C 4,3 °C 0,0 km/h (0 Bft)
12.04.2019 19:48 4,3 °C 75 % 1017,7 hPa 0,0 mm 0,0 km/h (0 Bft) N-NO 13 ° 0 min 0,000 mm 0,0 UV-I 0 W/m² 0,3 °C 4,3 °C 0,0 km/h (0 Bft)
12.04.2019 19:49 4,3 °C 75 % 1017,7 hPa 0,0 mm 1,2 km/h (1 Bft) N-NO 13 ° 0 min 0,000 mm 0,0 UV-I 0 W/m² 0,3 °C 4,3 °C 3,2 km/h (1 Bft)
12.04.2019 19:50 4,2 °C 76 % 1017,7 hPa 0,0 mm 0,3 km/h (0 Bft) N-NO 13 ° 0 min 0,000 mm 0,0 UV-I 0 W/m² 0,4 °C 4,2 °C 1,6 km/h (1 Bft)
12.04.2019 19:51 4,2 °C 76 % 1017,7 hPa 0,0 mm 0,7 km/h (0 Bft) N-NO 13 ° 0 min 0,000 mm 0,0 UV-I 0 W/m² 0,4 °C 4,2 °C 3,2 km/h (1 Bft)
12.04.2019 19:52 4,2 °C 75 % 1017,7 hPa 0,0 mm 0,5 km/h (0 Bft) N-NO 13 ° 0 min 0,000 mm 0,0 UV-I 0 W/m² 0,2 °C 4,2 °C 3,2 km/h (1 Bft)
12.04.2019 19:53 4,2 °C 76 % 1017,7 hPa 0,0 mm 1,5 km/h (1 Bft) O-NO 60 ° 0 min 0,000 mm 0,0 UV-I 0 W/m² 0,4 °C 4,2 °C 4,8 km/h (1 Bft)
12.04.2019 19:54 4,2 °C 77 % 1017,7 hPa 0,0 mm 0,0 km/h (0 Bft) O-NO 60 ° 0 min 0,000 mm 0,0 UV-I 0 W/m² 0,5 °C 4,2 °C 0,0 km/h (0 Bft)
12.04.2019 19:55 4,2 °C 76 % 1017,7 hPa 0,0 mm 0,0 km/h (0 Bft) O-NO 60 ° 0 min 0,000 mm 0,0 UV-I 0 W/m² 0,4 °C 4,2 °C 0,0 km/h (0 Bft)
12.04.2019 19:56 4,1 °C 76 % 1017,7 hPa 0,0 mm 0,0 km/h (0 Bft) O-NO 60 ° 0 min 0,000 mm 0,0 UV-I 0 W/m² 0,3 °C 4,1 °C 0,0 km/h (0 Bft)
12.04.2019 19:57 4,2 °C 75 % 1017,7 hPa 0,0 mm 2,0 km/h (1 Bft) O-NO 60 ° 0 min 0,000 mm 0,0 UV-I 0 W/m² 0,2 °C 4,2 °C 3,2 km/h (1 Bft)
12.04.2019 19:58 4,1 °C 76 % 1017,7 hPa 0,0 mm 3,5 km/h (1 Bft) O 86 ° 0 min 0,000 mm 0,0 UV-I 0 W/m² 0,3 °C 4,1 °C 4,8 km/h (1 Bft)
12.04.2019 19:59 4,1 °C 77 % 1017,7 hPa 0,0 mm 1,6 km/h (1 Bft) O 90 ° 0 min 0,000 mm 0,0 UV-I 0 W/m² 0,4 °C 4,1 °C 3,2 km/h (1 Bft)
12.04.2019 20:00 4,1 °C 76 % 1017,6 hPa 0,0 mm 0,1 km/h (0 Bft) O 90 ° 0 min 0,000 mm 0,0 UV-I 0 W/m² 0,3 °C 4,1 °C 1,6 km/h (1 Bft)
12.04.2019 20:01 4,0 °C 77 % 1017,7 hPa 0,0 mm 1,5 km/h (1 Bft) O 90 ° 0 min 0,000 mm 0,0 UV-I 0 W/m² 0,3 °C 4,0 °C 3,2 km/h (1 Bft)
12.04.2019 20:02 4,0 °C 77 % 1017,6 hPa 0,0 mm 1,5 km/h (1 Bft) O 90 ° 0 min 0,000 mm 0,0 UV-I 0 W/m² 0,3 °C 4,0 °C 1,6 km/h (1 Bft)
12.04.2019 20:03 4,0 °C 78 % 1017,7 hPa 0,0 mm 1,4 km/h (1 Bft) O 90 ° 0 min 0,000 mm 0,0 UV-I 0 W/m² 0,5 °C 4,0 °C 3,2 km/h (1 Bft)
12.04.2019 20:04 3,9 °C 78 % 1017,7 hPa 0,0 mm 1,7 km/h (1 Bft) O 87 ° 0 min 0,000 mm 0,0 UV-I 0 W/m² 0,4 °C 3,9 °C 4,8 km/h (1 Bft)
12.04.2019 20:05 3,9 °C 79 % 1017,7 hPa 0,0 mm 0,0 km/h (0 Bft) O 87 ° 0 min 0,000 mm 0,0 UV-I 0 W/m² 0,6 °C 3,9 °C 0,0 km/h (0 Bft)
12.04.2019 20:06 3,8 °C 78 % 1017,7 hPa 0,0 mm 0,9 km/h (0 Bft) O 98 ° 0 min 0,000 mm 0,0 UV-I 0 W/m² 0,3 °C 3,8 °C 3,2 km/h (1 Bft)
12.04.2019 20:07 3,8 °C 78 % 1017,7 hPa 0,0 mm 0,4 km/h (0 Bft) O 98 ° 0 min 0,000 mm 0,0 UV-I 0 W/m² 0,3 °C 3,8 °C 1,6 km/h (1 Bft)
12.04.2019 20:08 3,8 °C 79 % 1017,7 hPa 0,0 mm 0,0 km/h (0 Bft) O 98 ° 0 min 0,000 mm 0,0 UV-I 0 W/m² 0,5 °C 3,8 °C 0,0 km/h (0 Bft)
12.04.2019 20:09 3,8 °C 78 % 1017,7 hPa 0,0 mm 0,2 km/h (0 Bft) O-SO 116 ° 0 min 0,000 mm 0,0 UV-I 0 W/m² 0,3 °C 3,8 °C 1,6 km/h (1 Bft)
12.04.2019 20:10 3,8 °C 77 % 1017,7 hPa 0,0 mm 0,1 km/h (0 Bft) O-SO 115 ° 0 min 0,000 mm 0,0 UV-I 0 W/m² 0,1 °C 3,8 °C 1,6 km/h (1 Bft)
12.04.2019 20:11 3,8 °C 77 % 1017,7 hPa 0,0 mm 0,0 km/h (0 Bft) O-SO 115 ° 0 min 0,000 mm 0,0 UV-I 0 W/m² 0,1 °C 3,8 °C 0,0 km/h (0 Bft)
12.04.2019 20:12 3,8 °C 76 % 1017,7 hPa 0,0 mm 0,0 km/h (0 Bft) O-SO 115 ° 0 min 0,000 mm 0,0 UV-I 0 W/m² -0,0 °C 3,8 °C 0,0 km/h (0 Bft)
12.04.2019 20:13 3,8 °C 77 % 1017,8 hPa 0,0 mm 0,0 km/h (0 Bft) O-SO 115 ° 0 min 0,000 mm 0,0 UV-I 0 W/m² 0,1 °C 3,8 °C 0,0 km/h (0 Bft)
12.04.2019 20:14 3,8 °C 76 % 1017,8 hPa 0,0 mm 0,0 km/h (0 Bft) O-SO 116 ° 0 min 0,000 mm 0,0 UV-I 0 W/m² -0,0 °C 3,8 °C 0,0 km/h (0 Bft)
12.04.2019 20:15 3,8 °C 76 % 1017,8 hPa 0,0 mm 0,0 km/h (0 Bft) O-SO 115 ° 0 min 0,000 mm 0,0 UV-I 0 W/m² -0,0 °C 3,8 °C 0,0 km/h (0 Bft)
12.04.2019 20:16 3,8 °C 77 % 1017,8 hPa 0,0 mm 0,0 km/h (0 Bft) O-SO 115 ° 0 min 0,000 mm 0,0 UV-I 0 W/m² 0,1 °C 3,8 °C 0,0 km/h (0 Bft)
12.04.2019 20:17 3,8 °C 79 % 1017,8 hPa 0,0 mm 0,0 km/h (0 Bft) O-SO 115 ° 0 min 0,000 mm 0,0 UV-I 0 W/m² 0,5 °C 3,8 °C 0,0 km/h (0 Bft)
12.04.2019 20:18 3,7 °C 79 % 1017,8 hPa 0,0 mm 0,0 km/h (0 Bft) O-SO 115 ° 0 min 0,000 mm 0,0 UV-I 0 W/m² 0,4 °C 3,7 °C 0,0 km/h (0 Bft)
12.04.2019 20:19 3,7 °C 78 % 1017,9 hPa 0,0 mm 0,0 km/h (0 Bft) O-SO 115 ° 0 min 0,000 mm 0,0 UV-I 0 W/m² 0,2 °C 3,7 °C 0,0 km/h (0 Bft)
12.04.2019 20:20 3,7 °C 78 % 1017,9 hPa 0,0 mm 0,0 km/h (0 Bft) O-SO 115 ° 0 min 0,000 mm 0,0 UV-I 0 W/m² 0,2 °C 3,7 °C 0,0 km/h (0 Bft)
12.04.2019 20:21 3,7 °C 78 % 1017,8 hPa 0,0 mm 0,0 km/h (0 Bft) O-SO 115 ° 0 min 0,000 mm 0,0 UV-I 0 W/m² 0,2 °C 3,7 °C 0,0 km/h (0 Bft)
12.04.2019 20:22 3,7 °C 78 % 1017,9 hPa 0,0 mm 0,0 km/h (0 Bft) O-SO 115 ° 0 min 0,000 mm 0,0 UV-I 0 W/m² 0,2 °C 3,7 °C 0,0 km/h (0 Bft)
12.04.2019 20:23 3,6 °C 78 % 1017,9 hPa 0,0 mm 1,5 km/h (1 Bft) O-NO 69 ° 0 min 0,000 mm 0,0 UV-I 0 W/m² 0,1 °C 3,6 °C 4,8 km/h (1 Bft)
12.04.2019 20:24 3,6 °C 77 % 1017,9 hPa 0,0 mm 0,5 km/h (0 Bft) O-NO 69 ° 0 min 0,000 mm 0,0 UV-I 0 W/m² -0,0 °C 3,6 °C 1,6 km/h (1 Bft)
12.04.2019 20:25 3,6 °C 78 % 1017,8 hPa 0,0 mm 0,0 km/h (0 Bft) O-NO 69 ° 0 min 0,000 mm 0,0 UV-I 0 W/m² 0,1 °C 3,6 °C 0,0 km/h (0 Bft)
12.04.2019 20:26 3,6 °C 77 % 1017,8 hPa 0,0 mm 0,0 km/h (0 Bft) O-NO 69 ° 0 min 0,000 mm 0,0 UV-I 0 W/m² -0,0 °C 3,6 °C 0,0 km/h (0 Bft)
12.04.2019 20:27 3,6 °C 78 % 1017,9 hPa 0,0 mm 0,0 km/h (0 Bft) O-NO 69 ° 0 min 0,000 mm 0,0 UV-I 0 W/m² 0,1 °C 3,6 °C 0,0 km/h (0 Bft)
12.04.2019 20:28 3,6 °C 79 % 1017,8 hPa 0,0 mm 0,0 km/h (0 Bft) O-NO 69 ° 0 min 0,000 mm 0,0 UV-I 0 W/m² 0,3 °C 3,6 °C 0,0 km/h (0 Bft)
12.04.2019 20:29 3,6 °C 79 % 1017,9 hPa 0,0 mm 0,0 km/h (0 Bft) O-NO 69 ° 0 min 0,000 mm 0,0 UV-I 0 W/m² 0,3 °C 3,6 °C 0,0 km/h (0 Bft)
12.04.2019 20:30 3,5 °C 79 % 1017,9 hPa 0,0 mm 0,0 km/h (0 Bft) O-NO 69 ° 0 min 0,000 mm 0,0 UV-I 0 W/m² 0,2 °C 3,5 °C 0,0 km/h (0 Bft)
12.04.2019 20:31 3,5 °C 79 % 1017,9 hPa 0,0 mm 0,0 km/h (0 Bft) O-NO 69 ° 0 min 0,000 mm 0,0 UV-I 0 W/m² 0,2 °C 3,5 °C 0,0 km/h (0 Bft)
12.04.2019 20:32 3,5 °C 78 % 1017,9 hPa 0,0 mm 0,0 km/h (0 Bft) O-NO 69 ° 0 min 0,000 mm 0,0 UV-I 0 W/m² 0,0 °C 3,5 °C 0,0 km/h (0 Bft)
12.04.2019 20:33 3,5 °C 77 % 1017,9 hPa 0,0 mm 0,0 km/h (0 Bft) O-NO 69 ° 0 min 0,000 mm 0,0 UV-I 0 W/m² -0,1 °C 3,5 °C 0,0 km/h (0 Bft)
12.04.2019 20:34 3,6 °C 77 % 1018,0 hPa 0,0 mm 0,0 km/h (0 Bft) O-NO 69 ° 0 min 0,000 mm 0,0 UV-I 0 W/m² -0,0 °C 3,6 °C 0,0 km/h (0 Bft)
12.04.2019 20:35 3,6 °C 77 % 1018,0 hPa 0,0 mm 0,0 km/h (0 Bft) O-NO 69 ° 0 min 0,000 mm 0,0 UV-I 0 W/m² -0,0 °C 3,6 °C 0,0 km/h (0 Bft)
12.04.2019 20:36 3,6 °C 78 % 1018,0 hPa 0,0 mm 0,0 km/h (0 Bft) O-NO 69 ° 0 min 0,000 mm 0,0 UV-I 0 W/m² 0,1 °C 3,6 °C 0,0 km/h (0 Bft)
12.04.2019 20:37 3,6 °C 78 % 1018,0 hPa 0,0 mm 0,0 km/h (0 Bft) O-NO 69 ° 0 min 0,000 mm 0,0 UV-I 0 W/m² 0,1 °C 3,6 °C 0,0 km/h (0 Bft)
12.04.2019 20:38 3,5 °C 78 % 1018,0 hPa 0,0 mm 0,0 km/h (0 Bft) O-NO 69 ° 0 min 0,000 mm 0,0 UV-I 0 W/m² 0,0 °C 3,5 °C 0,0 km/h (0 Bft)
12.04.2019 20:39 3,5 °C 78 % 1018,2 hPa 0,0 mm 0,0 km/h (0 Bft) O-NO 69 ° 0 min 0,000 mm 0,0 UV-I 0 W/m² 0,0 °C 3,5 °C 0,0 km/h (0 Bft)
12.04.2019 20:40 3,6 °C 78 % 1018,2 hPa 0,0 mm 0,0 km/h (0 Bft) O-NO 69 ° 0 min 0,000 mm 0,0 UV-I 0 W/m² 0,1 °C 3,6 °C 0,0 km/h (0 Bft)
12.04.2019 20:41 3,6 °C 78 % 1018,2 hPa 0,0 mm 0,0 km/h (0 Bft) O-NO 69 ° 0 min 0,000 mm 0,0 UV-I 0 W/m² 0,1 °C 3,6 °C 0,0 km/h (0 Bft)
12.04.2019 20:42 3,5 °C 78 % 1018,2 hPa 0,0 mm 0,0 km/h (0 Bft) O-NO 69 ° 0 min 0,000 mm 0,0 UV-I 0 W/m² 0,0 °C 3,5 °C 0,0 km/h (0 Bft)
12.04.2019 20:43 3,5 °C 78 % 1018,2 hPa 0,0 mm 0,0 km/h (0 Bft) O-NO 69 ° 0 min 0,000 mm 0,0 UV-I 0 W/m² 0,0 °C 3,5 °C 0,0 km/h (0 Bft)
12.04.2019 20:44 3,5 °C 78 % 1018,2 hPa 0,0 mm 0,0 km/h (0 Bft) O-NO 69 ° 0 min 0,000 mm 0,0 UV-I 0 W/m² 0,0 °C 3,5 °C 0,0 km/h (0 Bft)
12.04.2019 20:45 3,4 °C 79 % 1018,2 hPa 0,0 mm 0,6 km/h (0 Bft) O-NO 69 ° 0 min 0,000 mm 0,0 UV-I 0 W/m² 0,1 °C 3,4 °C 1,6 km/h (1 Bft)
12.04.2019 20:46 3,4 °C 79 % 1018,2 hPa 0,0 mm 0,0 km/h (0 Bft) O-NO 69 ° 0 min 0,000 mm 0,0 UV-I 0 W/m² 0,1 °C 3,4 °C 0,0 km/h (0 Bft)
12.04.2019 20:47 3,4 °C 79 % 1018,3 hPa 0,0 mm 0,0 km/h (0 Bft) O-NO 69 ° 0 min 0,000 mm 0,0 UV-I 0 W/m² 0,1 °C 3,4 °C 0,0 km/h (0 Bft)
12.04.2019 20:48 3,4 °C 80 % 1018,3 hPa 0,0 mm 0,0 km/h (0 Bft) O-NO 69 ° 0 min 0,000 mm 0,0 UV-I 0 W/m² 0,3 °C 3,4 °C 0,0 km/h (0 Bft)
12.04.2019 20:49 3,4 °C 80 % 1018,3 hPa 0,0 mm 0,0 km/h (0 Bft) O-NO 69 ° 0 min 0,000 mm 0,0 UV-I 0 W/m² 0,3 °C 3,4 °C 0,0 km/h (0 Bft)
12.04.2019 20:50 3,4 °C 79 % 1018,2 hPa 0,0 mm 0,0 km/h (0 Bft) O-NO 69 ° 0 min 0,000 mm 0,0 UV-I 0 W/m² 0,1 °C 3,4 °C 0,0 km/h (0 Bft)
12.04.2019 20:51 3,3 °C 80 % 1018,3 hPa 0,0 mm 0,0 km/h (0 Bft) O-NO 69 ° 0 min 0,000 mm 0,0 UV-I 0 W/m² 0,2 °C 3,3 °C 0,0 km/h (0 Bft)
12.04.2019 20:52 3,3 °C 80 % 1018,3 hPa 0,0 mm 0,0 km/h (0 Bft) O-NO 69 ° 0 min 0,000 mm 0,0 UV-I 0 W/m² 0,2 °C 3,3 °C 0,0 km/h (0 Bft)
12.04.2019 20:53 3,3 °C 81 % 1018,2 hPa 0,0 mm 0,0 km/h (0 Bft) O-NO 69 ° 0 min 0,000 mm 0,0 UV-I 0 W/m² 0,4 °C 3,3 °C 0,0 km/h (0 Bft)
12.04.2019 20:54 3,3 °C 81 % 1018,3 hPa 0,0 mm 0,0 km/h (0 Bft) O-NO 69 ° 0 min 0,000 mm 0,0 UV-I 0 W/m² 0,4 °C 3,3 °C 0,0 km/h (0 Bft)
12.04.2019 20:55 3,3 °C 81 % 1018,3 hPa 0,0 mm 0,0 km/h (0 Bft) O-NO 69 ° 0 min 0,000 mm 0,0 UV-I 0 W/m² 0,4 °C 3,3 °C 0,0 km/h (0 Bft)
12.04.2019 20:56 3,3 °C 81 % 1018,3 hPa 0,0 mm 0,0 km/h (0 Bft) O-NO 69 ° 0 min 0,000 mm 0,0 UV-I 0 W/m² 0,4 °C 3,3 °C 0,0 km/h (0 Bft)
12.04.2019 20:57 3,3 °C 81 % 1018,3 hPa 0,0 mm 0,0 km/h (0 Bft) O-NO 69 ° 0 min 0,000 mm 0,0 UV-I 0 W/m² 0,4 °C 3,3 °C 0,0 km/h (0 Bft)
12.04.2019 20:58 3,3 °C 81 % 1018,3 hPa 0,0 mm 0,0 km/h (0 Bft) O-NO 69 ° 0 min 0,000 mm 0,0 UV-I 0 W/m² 0,4 °C 3,3 °C 0,0 km/h (0 Bft)
12.04.2019 20:59 3,3 °C 81 % 1018,3 hPa 0,0 mm 0,0 km/h (0 Bft) O-NO 69 ° 0 min 0,000 mm 0,0 UV-I 0 W/m² 0,4 °C 3,3 °C 0,0 km/h (0 Bft)
12.04.2019 21:00 3,3 °C 81 % 1018,3 hPa 0,0 mm 0,0 km/h (0 Bft) O 88 ° 0 min 0,000 mm 0,0 UV-I 0 W/m² 0,4 °C 3,3 °C 0,0 km/h (0 Bft)
12.04.2019 21:01 3,3 °C 81 % 1018,3 hPa 0,0 mm 0,0 km/h (0 Bft) O 88 ° 0 min 0,000 mm 0,0 UV-I 0 W/m² 0,4 °C 3,3 °C 0,0 km/h (0 Bft)
12.04.2019 21:02 3,3 °C 81 % 1018,3 hPa 0,0 mm 0,0 km/h (0 Bft) O 88 ° 0 min 0,000 mm 0,0 UV-I 0 W/m² 0,4 °C 3,3 °C 0,0 km/h (0 Bft)
12.04.2019 21:03 3,3 °C 81 % 1018,3 hPa 0,0 mm 0,0 km/h (0 Bft) O 88 ° 0 min 0,000 mm 0,0 UV-I 0 W/m² 0,4 °C 3,3 °C 0,0 km/h (0 Bft)
12.04.2019 21:04 3,3 °C 81 % 1018,3 hPa 0,0 mm 0,0 km/h (0 Bft) O 88 ° 0 min 0,000 mm 0,0 UV-I 0 W/m² 0,4 °C 3,3 °C 0,0 km/h (0 Bft)
12.04.2019 21:05 3,2 °C 81 % 1018,3 hPa 0,0 mm 0,0 km/h (0 Bft) O 88 ° 0 min 0,000 mm 0,0 UV-I 0 W/m² 0,3 °C 3,2 °C 0,0 km/h (0 Bft)
12.04.2019 21:06 3,3 °C 81 % 1018,3 hPa 0,0 mm 0,0 km/h (0 Bft) O 88 ° 0 min 0,000 mm 0,0 UV-I 0 W/m² 0,4 °C 3,3 °C 0,0 km/h (0 Bft)
12.04.2019 21:07 3,2 °C 81 % 1018,3 hPa 0,0 mm 0,0 km/h (0 Bft) O 88 ° 0 min 0,000 mm 0,0 UV-I 0 W/m² 0,3 °C 3,2 °C 0,0 km/h (0 Bft)
12.04.2019 21:08 3,2 °C 81 % 1018,3 hPa 0,0 mm 0,0 km/h (0 Bft) O 88 ° 0 min 0,000 mm 0,0 UV-I 0 W/m² 0,3 °C 3,2 °C 0,0 km/h (0 Bft)
12.04.2019 21:09 3,3 °C 81 % 1018,3 hPa 0,0 mm 0,0 km/h (0 Bft) O 88 ° 0 min 0,000 mm 0,0 UV-I 0 W/m² 0,4 °C 3,3 °C 0,0 km/h (0 Bft)
12.04.2019 21:10 3,3 °C 81 % 1018,3 hPa 0,0 mm 0,0 km/h (0 Bft) O 88 ° 0 min 0,000 mm 0,0 UV-I 0 W/m² 0,4 °C 3,3 °C 0,0 km/h (0 Bft)
12.04.2019 21:11 3,3 °C 81 % 1018,3 hPa 0,0 mm 0,0 km/h (0 Bft) O 88 ° 0 min 0,000 mm 0,0 UV-I 0 W/m² 0,4 °C 3,3 °C 0,0 km/h (0 Bft)
12.04.2019 21:12 3,3 °C 81 % 1018,3 hPa 0,0 mm 0,0 km/h (0 Bft) O 88 ° 0 min 0,000 mm 0,0 UV-I 0 W/m² 0,4 °C 3,3 °C 0,0 km/h (0 Bft)
12.04.2019 21:13 3,3 °C 81 % 1018,3 hPa 0,0 mm 0,0 km/h (0 Bft) O 88 ° 0 min 0,000 mm 0,0 UV-I 0 W/m² 0,4 °C 3,3 °C 0,0 km/h (0 Bft)
12.04.2019 21:14 3,3 °C 80 % 1018,3 hPa 0,0 mm 0,0 km/h (0 Bft) O 88 ° 0 min 0,000 mm 0,0 UV-I 0 W/m² 0,2 °C 3,3 °C 0,0 km/h (0 Bft)
12.04.2019 21:15 3,3 °C 81 % 1018,3 hPa 0,0 mm 0,0 km/h (0 Bft) O 88 ° 0 min 0,000 mm 0,0 UV-I 0 W/m² 0,4 °C 3,3 °C 0,0 km/h (0 Bft)
12.04.2019 21:16 3,3 °C 81 % 1018,4 hPa 0,0 mm 0,0 km/h (0 Bft) O 88 ° 0 min 0,000 mm 0,0 UV-I 0 W/m² 0,4 °C 3,3 °C 0,0 km/h (0 Bft)
12.04.2019 21:17 3,3 °C 81 % 1018,4 hPa 0,0 mm 0,0 km/h (0 Bft) O 88 ° 0 min 0,000 mm 0,0 UV-I 0 W/m² 0,4 °C 3,3 °C 0,0 km/h (0 Bft)
12.04.2019 21:18 3,2 °C 81 % 1018,3 hPa 0,0 mm 0,2 km/h (0 Bft) O 88 ° 0 min 0,000 mm 0,0 UV-I 0 W/m² 0,3 °C 3,2 °C 1,6 km/h (1 Bft)
12.04.2019 21:19 3,2 °C 81 % 1018,3 hPa 0,0 mm 0,0 km/h (0 Bft) O 88 ° 0 min 0,000 mm 0,0 UV-I 0 W/m² 0,3 °C 3,2 °C 0,0 km/h (0 Bft)
12.04.2019 21:20 3,2 °C 81 % 1018,4 hPa 0,0 mm 0,0 km/h (0 Bft) O 88 ° 0 min 0,000 mm 0,0 UV-I 0 W/m² 0,3 °C 3,2 °C 0,0 km/h (0 Bft)
12.04.2019 21:21 3,3 °C 80 % 1018,3 hPa 0,0 mm 0,0 km/h (0 Bft) O 88 ° 0 min 0,000 mm 0,0 UV-I 0 W/m² 0,2 °C 3,3 °C 0,0 km/h (0 Bft)
12.04.2019 21:22 3,3 °C 81 % 1018,3 hPa 0,0 mm 0,0 km/h (0 Bft) O 88 ° 0 min 0,000 mm 0,0 UV-I 0 W/m² 0,4 °C 3,3 °C 0,0 km/h (0 Bft)
12.04.2019 21:23 3,3 °C 81 % 1018,4 hPa 0,0 mm 0,0 km/h (0 Bft) O 88 ° 0 min 0,000 mm 0,0 UV-I 0 W/m² 0,4 °C 3,3 °C 0,0 km/h (0 Bft)
12.04.2019 21:24 3,3 °C 81 % 1018,4 hPa 0,0 mm 0,0 km/h (0 Bft) O 88 ° 0 min 0,000 mm 0,0 UV-I 0 W/m² 0,4 °C 3,3 °C 0,0 km/h (0 Bft)
12.04.2019 21:25 3,3 °C 81 % 1018,4 hPa 0,0 mm 0,0 km/h (0 Bft) O 88 ° 0 min 0,000 mm 0,0 UV-I 0 W/m² 0,4 °C 3,3 °C 0,0 km/h (0 Bft)
12.04.2019 21:26 3,3 °C 81 % 1018,4 hPa 0,0 mm 0,0 km/h (0 Bft) O 88 ° 0 min 0,000 mm 0,0 UV-I 0 W/m² 0,4 °C 3,3 °C 0,0 km/h (0 Bft)
12.04.2019 21:27 3,2 °C 81 % 1018,4 hPa 0,0 mm 0,0 km/h (0 Bft) O 88 ° 0 min 0,000 mm 0,0 UV-I 0 W/m² 0,3 °C 3,2 °C 0,0 km/h (0 Bft)
12.04.2019 21:28 3,2 °C 81 % 1018,4 hPa 0,0 mm 0,0 km/h (0 Bft) O 88 ° 0 min 0,000 mm 0,0 UV-I 0 W/m² 0,3 °C 3,2 °C 0,0 km/h (0 Bft)
12.04.2019 21:29 3,2 °C 81 % 1018,4 hPa 0,0 mm 0,0 km/h (0 Bft) O 88 ° 0 min 0,000 mm 0,0 UV-I 0 W/m² 0,3 °C 3,2 °C 0,0 km/h (0 Bft)
12.04.2019 21:30 3,3 °C 81 % 1018,4 hPa 0,0 mm 0,0 km/h (0 Bft) O 88 ° 0 min 0,000 mm 0,0 UV-I 0 W/m² 0,4 °C 3,3 °C 0,0 km/h (0 Bft)
12.04.2019 21:31 3,2 °C 82 % 1018,4 hPa 0,0 mm 0,0 km/h (0 Bft) O 88 ° 0 min 0,000 mm 0,0 UV-I 0 W/m² 0,4 °C 3,2 °C 0,0 km/h (0 Bft)
12.04.2019 21:32 3,2 °C 81 % 1018,4 hPa 0,0 mm 0,0 km/h (0 Bft) O 88 ° 0 min 0,000 mm 0,0 UV-I 0 W/m² 0,3 °C 3,2 °C 0,0 km/h (0 Bft)
12.04.2019 21:33 3,2 °C 81 % 1018,4 hPa 0,0 mm 0,0 km/h (0 Bft) O 88 ° 0 min 0,000 mm 0,0 UV-I 0 W/m² 0,3 °C 3,2 °C 0,0 km/h (0 Bft)
12.04.2019 21:34 3,2 °C 81 % 1018,4 hPa 0,0 mm 0,0 km/h (0 Bft) O 88 ° 0 min 0,000 mm 0,0 UV-I 0 W/m² 0,3 °C 3,2 °C 0,0 km/h (0 Bft)
12.04.2019 21:35 3,2 °C 81 % 1018,4 hPa 0,0 mm 0,0 km/h (0 Bft) O 88 ° 0 min 0,000 mm 0,0 UV-I 0 W/m² 0,3 °C 3,2 °C 0,0 km/h (0 Bft)
12.04.2019 21:36 3,2 °C 81 % 1018,4 hPa 0,0 mm 0,0 km/h (0 Bft) O 88 ° 0 min 0,000 mm 0,0 UV-I 0 W/m² 0,3 °C 3,2 °C 0,0 km/h (0 Bft)
12.04.2019 21:37 3,2 °C 81 % 1018,4 hPa 0,0 mm 0,0 km/h (0 Bft) O 88 ° 0 min 0,000 mm 0,0 UV-I 0 W/m² 0,3 °C 3,2 °C 0,0 km/h (0 Bft)
12.04.2019 21:38 3,2 °C 81 % 1018,4 hPa 0,0 mm 0,5 km/h (0 Bft) O 88 ° 0 min 0,000 mm 0,0 UV-I 0 W/m² 0,3 °C 3,2 °C 3,2 km/h (1 Bft)
12.04.2019 21:39 3,2 °C 81 % 1018,4 hPa 0,0 mm 0,8 km/h (0 Bft) O 88 ° 0 min 0,000 mm 0,0 UV-I 0 W/m² 0,3 °C 3,2 °C 1,6 km/h (1 Bft)
12.04.2019 21:40 3,2 °C 81 % 1018,4 hPa 0,0 mm 0,0 km/h (0 Bft) O 88 ° 0 min 0,000 mm 0,0 UV-I 0 W/m² 0,3 °C 3,2 °C 0,0 km/h (0 Bft)
12.04.2019 21:41 3,2 °C 81 % 1018,4 hPa 0,0 mm 0,0 km/h (0 Bft) O 88 ° 0 min 0,000 mm 0,0 UV-I 0 W/m² 0,3 °C 3,2 °C 0,0 km/h (0 Bft)
12.04.2019 21:42 3,2 °C 81 % 1018,4 hPa 0,0 mm 0,0 km/h (0 Bft) O 88 ° 0 min 0,000 mm 0,0 UV-I 0 W/m² 0,3 °C 3,2 °C 0,0 km/h (0 Bft)
12.04.2019 21:43 3,2 °C 81 % 1018,4 hPa 0,0 mm 0,0 km/h (0 Bft) O 88 ° 0 min 0,000 mm 0,0 UV-I 0 W/m² 0,3 °C 3,2 °C 0,0 km/h (0 Bft)
12.04.2019 21:44 3,2 °C 81 % 1018,4 hPa 0,0 mm 0,0 km/h (0 Bft) O 88 ° 0 min 0,000 mm 0,0 UV-I 0 W/m² 0,3 °C 3,2 °C 0,0 km/h (0 Bft)
12.04.2019 21:45 3,2 °C 81 % 1018,4 hPa 0,0 mm 0,0 km/h (0 Bft) O 88 ° 0 min 0,000 mm 0,0 UV-I 0 W/m² 0,3 °C 3,2 °C 0,0 km/h (0 Bft)
12.04.2019 21:46 3,2 °C 81 % 1018,4 hPa 0,0 mm 0,0 km/h (0 Bft) O 88 ° 0 min 0,000 mm 0,0 UV-I 0 W/m² 0,3 °C 3,2 °C 0,0 km/h (0 Bft)
12.04.2019 21:47 3,2 °C 81 % 1018,4 hPa 0,0 mm 0,0 km/h (0 Bft) O 88 ° 0 min 0,000 mm 0,0 UV-I 0 W/m² 0,3 °C 3,2 °C 0,0 km/h (0 Bft)
12.04.2019 21:48 3,2 °C 81 % 1018,4 hPa 0,0 mm 0,0 km/h (0 Bft) O 88 ° 0 min 0,000 mm 0,0 UV-I 0 W/m² 0,3 °C 3,2 °C 0,0 km/h (0 Bft)
12.04.2019 21:49 3,2 °C 81 % 1018,4 hPa 0,0 mm 0,0 km/h (0 Bft) O 88 ° 0 min 0,000 mm 0,0 UV-I 0 W/m² 0,3 °C 3,2 °C 0,0 km/h (0 Bft)
12.04.2019 21:50 3,2 °C 81 % 1018,4 hPa 0,0 mm 0,0 km/h (0 Bft) O 88 ° 0 min 0,000 mm 0,0 UV-I 0 W/m² 0,3 °C 3,2 °C 0,0 km/h (0 Bft)
12.04.2019 21:51 3,2 °C 80 % 1018,4 hPa 0,0 mm 0,3 km/h (0 Bft) O 90 ° 0 min 0,000 mm 0,0 UV-I 0 W/m² 0,1 °C 3,2 °C 1,6 km/h (1 Bft)
12.04.2019 21:52 3,2 °C 80 % 1018,4 hPa 0,0 mm 0,0 km/h (0 Bft) O 90 ° 0 min 0,000 mm 0,0 UV-I 0 W/m² 0,1 °C 3,2 °C 0,0 km/h (0 Bft)
12.04.2019 21:53 3,2 °C 80 % 1018,4 hPa 0,0 mm 0,0 km/h (0 Bft) O 90 ° 0 min 0,000 mm 0,0 UV-I 0 W/m² 0,1 °C 3,2 °C 0,0 km/h (0 Bft)
12.04.2019 21:54 3,2 °C 81 % 1018,4 hPa 0,0 mm 0,1 km/h (0 Bft) O 90 ° 0 min 0,000 mm 0,0 UV-I 0 W/m² 0,3 °C 3,2 °C 1,6 km/h (1 Bft)
12.04.2019 21:55 3,2 °C 82 % 1018,4 hPa 0,0 mm 0,0 km/h (0 Bft) O 90 ° 0 min 0,000 mm 0,0 UV-I 0 W/m² 0,4 °C 3,2 °C 0,0 km/h (0 Bft)
12.04.2019 21:56 3,2 °C 81 % 1018,4 hPa 0,0 mm 0,0 km/h (0 Bft) O 90 ° 0 min 0,000 mm 0,0 UV-I 0 W/m² 0,3 °C 3,2 °C 0,0 km/h (0 Bft)
12.04.2019 21:57 3,2 °C 81 % 1018,4 hPa 0,0 mm 0,0 km/h (0 Bft) O 90 ° 0 min 0,000 mm 0,0 UV-I 0 W/m² 0,3 °C 3,2 °C 0,0 km/h (0 Bft)
12.04.2019 21:58 3,2 °C 81 % 1018,5 hPa 0,0 mm 0,0 km/h (0 Bft) O 90 ° 0 min 0,000 mm 0,0 UV-I 0 W/m² 0,3 °C 3,2 °C 0,0 km/h (0 Bft)
12.04.2019 21:59 3,2 °C 81 % 1018,5 hPa 0,0 mm 0,0 km/h (0 Bft) O 90 ° 0 min 0,000 mm 0,0 UV-I 0 W/m² 0,3 °C 3,2 °C 0,0 km/h (0 Bft)
12.04.2019 22:00 3,2 °C 81 % 1018,4 hPa 0,0 mm 1,5 km/h (1 Bft) O 98 ° 0 min 0,000 mm 0,0 UV-I 0 W/m² 0,3 °C 3,2 °C 3,2 km/h (1 Bft)
12.04.2019 22:01 3,2 °C 82 % 1018,4 hPa 0,0 mm 0,8 km/h (0 Bft) O 98 ° 0 min 0,000 mm 0,0 UV-I 0 W/m² 0,4 °C 3,2 °C 3,2 km/h (1 Bft)
12.04.2019 22:02 3,2 °C 81 % 1018,4 hPa 0,0 mm 0,0 km/h (0 Bft) O 98 ° 0 min 0,000 mm 0,0 UV-I 0 W/m² 0,3 °C 3,2 °C 0,0 km/h (0 Bft)
12.04.2019 22:03 3,2 °C 82 % 1018,4 hPa 0,0 mm 0,0 km/h (0 Bft) O 98 ° 0 min 0,000 mm 0,0 UV-I 0 W/m² 0,4 °C 3,2 °C 0,0 km/h (0 Bft)
12.04.2019 22:04 3,2 °C 82 % 1018,4 hPa 0,0 mm 0,0 km/h (0 Bft) O 98 ° 0 min 0,000 mm 0,0 UV-I 0 W/m² 0,4 °C 3,2 °C 0,0 km/h (0 Bft)
12.04.2019 22:05 3,2 °C 82 % 1018,4 hPa 0,0 mm 0,0 km/h (0 Bft) O 98 ° 0 min 0,000 mm 0,0 UV-I 0 W/m² 0,4 °C 3,2 °C 0,0 km/h (0 Bft)
12.04.2019 22:06 3,2 °C 81 % 1018,4 hPa 0,0 mm 1,2 km/h (1 Bft) O-SO 105 ° 0 min 0,000 mm 0,0 UV-I 0 W/m² 0,3 °C 3,2 °C 4,8 km/h (1 Bft)
12.04.2019 22:07 3,2 °C 80 % 1018,4 hPa 0,0 mm 0,0 km/h (0 Bft) O-SO 105 ° 0 min 0,000 mm 0,0 UV-I 0 W/m² 0,1 °C 3,2 °C 0,0 km/h (0 Bft)
12.04.2019 22:08 3,2 °C 80 % 1018,4 hPa 0,0 mm 0,1 km/h (0 Bft) O-SO 105 ° 0 min 0,000 mm 0,0 UV-I 0 W/m² 0,1 °C 3,2 °C 1,6 km/h (1 Bft)
12.04.2019 22:09 3,2 °C 80 % 1018,4 hPa 0,0 mm 0,0 km/h (0 Bft) O-SO 105 ° 0 min 0,000 mm 0,0 UV-I 0 W/m² 0,1 °C 3,2 °C 0,0 km/h (0 Bft)
12.04.2019 22:10 3,2 °C 79 % 1018,5 hPa 0,0 mm 0,0 km/h (0 Bft) O-SO 105 ° 0 min 0,000 mm 0,0 UV-I 0 W/m² -0,1 °C 3,2 °C 0,0 km/h (0 Bft)
12.04.2019 22:11 3,2 °C 79 % 1018,4 hPa 0,0 mm 0,0 km/h (0 Bft) O-SO 105 ° 0 min 0,000 mm 0,0 UV-I 0 W/m² -0,1 °C 3,2 °C 0,0 km/h (0 Bft)
12.04.2019 22:12 3,2 °C 80 % 1018,4 hPa 0,0 mm 0,0 km/h (0 Bft) O-SO 105 ° 0 min 0,000 mm 0,0 UV-I 0 W/m² 0,1 °C 3,2 °C 0,0 km/h (0 Bft)
12.04.2019 22:13 3,2 °C 81 % 1018,5 hPa 0,0 mm 0,2 km/h (0 Bft) O-SO 105 ° 0 min 0,000 mm 0,0 UV-I 0 W/m² 0,3 °C 3,2 °C 1,6 km/h (1 Bft)
12.04.2019 22:14 3,2 °C 81 % 1018,5 hPa 0,0 mm 0,0 km/h (0 Bft) O-SO 105 ° 0 min 0,000 mm 0,0 UV-I 0 W/m² 0,3 °C 3,2 °C 0,0 km/h (0 Bft)
12.04.2019 22:15 3,2 °C 81 % 1018,5 hPa 0,0 mm 0,0 km/h (0 Bft) O-SO 105 ° 0 min 0,000 mm 0,0 UV-I 0 W/m² 0,3 °C 3,2 °C 0,0 km/h (0 Bft)
12.04.2019 22:16 3,2 °C 80 % 1018,5 hPa 0,0 mm 0,0 km/h (0 Bft) O-SO 105 ° 0 min 0,000 mm 0,0 UV-I 0 W/m² 0,1 °C 3,2 °C 0,0 km/h (0 Bft)
12.04.2019 22:17 3,2 °C 80 % 1018,5 hPa 0,0 mm 0,0 km/h (0 Bft) O-SO 105 ° 0 min 0,000 mm 0,0 UV-I 0 W/m² 0,1 °C 3,2 °C 0,0 km/h (0 Bft)
12.04.2019 22:18 3,2 °C 81 % 1018,5 hPa 0,0 mm 0,0 km/h (0 Bft) O-SO 105 ° 0 min 0,000 mm 0,0 UV-I 0 W/m² 0,3 °C 3,2 °C 0,0 km/h (0 Bft)
12.04.2019 22:19 3,2 °C 81 % 1018,5 hPa 0,0 mm 0,0 km/h (0 Bft) O-SO 104 ° 0 min 0,000 mm 0,0 UV-I 0 W/m² 0,3 °C 3,2 °C 0,0 km/h (0 Bft)
12.04.2019 22:20 3,2 °C 80 % 1018,4 hPa 0,0 mm 2,2 km/h (1 Bft) NO 53 ° 0 min 0,000 mm 0,0 UV-I 0 W/m² 0,1 °C 3,2 °C 4,8 km/h (1 Bft)
12.04.2019 22:21 3,2 °C 80 % 1018,4 hPa 0,0 mm 1,0 km/h (0 Bft) NO 53 ° 0 min 0,000 mm 0,0 UV-I 0 W/m² 0,1 °C 3,2 °C 1,6 km/h (1 Bft)
12.04.2019 22:22 3,2 °C 81 % 1018,3 hPa 0,0 mm 0,0 km/h (0 Bft) NO 53 ° 0 min 0,000 mm 0,0 UV-I 0 W/m² 0,3 °C 3,2 °C 0,0 km/h (0 Bft)
12.04.2019 22:23 3,1 °C 81 % 1018,3 hPa 0,0 mm 0,0 km/h (0 Bft) NO 53 ° 0 min 0,000 mm 0,0 UV-I 0 W/m² 0,2 °C 3,1 °C 0,0 km/h (0 Bft)
12.04.2019 22:24 3,1 °C 81 % 1018,3 hPa 0,0 mm 0,0 km/h (0 Bft) NO 53 ° 0 min 0,000 mm 0,0 UV-I 0 W/m² 0,2 °C 3,1 °C 0,0 km/h (0 Bft)
12.04.2019 22:25 3,2 °C 81 % 1018,4 hPa 0,0 mm 0,0 km/h (0 Bft) NO 53 ° 0 min 0,000 mm 0,0 UV-I 0 W/m² 0,3 °C 3,2 °C 0,0 km/h (0 Bft)
12.04.2019 22:26 3,1 °C 81 % 1018,3 hPa 0,0 mm 0,0 km/h (0 Bft) NO 53 ° 0 min 0,000 mm 0,0 UV-I 0 W/m² 0,2 °C 3,1 °C 0,0 km/h (0 Bft)
12.04.2019 22:27 3,1 °C 80 % 1018,3 hPa 0,0 mm 0,0 km/h (0 Bft) NO 53 ° 0 min 0,000 mm 0,0 UV-I 0 W/m² -0,0 °C 3,1 °C 0,0 km/h (0 Bft)
12.04.2019 22:28 3,1 °C 80 % 1018,3 hPa 0,0 mm 0,0 km/h (0 Bft) NO 53 ° 0 min 0,000 mm 0,0 UV-I 0 W/m² -0,0 °C 3,1 °C 0,0 km/h (0 Bft)
12.04.2019 22:29 3,2 °C 80 % 1018,3 hPa 0,0 mm 0,0 km/h (0 Bft) NO 53 ° 0 min 0,000 mm 0,0 UV-I 0 W/m² 0,1 °C 3,2 °C 0,0 km/h (0 Bft)
12.04.2019 22:30 3,1 °C 81 % 1018,3 hPa 0,0 mm 0,8 km/h (0 Bft) NO 53 ° 0 min 0,000 mm 0,0 UV-I 0 W/m² 0,2 °C 3,1 °C 1,6 km/h (1 Bft)
12.04.2019 22:31 3,1 °C 80 % 1018,3 hPa 0,0 mm 0,0 km/h (0 Bft) NO 53 ° 0 min 0,000 mm 0,0 UV-I 0 W/m² -0,0 °C 3,1 °C 0,0 km/h (0 Bft)
12.04.2019 22:32 3,1 °C 80 % 1018,3 hPa 0,0 mm 0,0 km/h (0 Bft) NO 53 ° 0 min 0,000 mm 0,0 UV-I 0 W/m² -0,0 °C 3,1 °C 0,0 km/h (0 Bft)
12.04.2019 22:33 3,1 °C 81 % 1018,3 hPa 0,0 mm 1,5 km/h (1 Bft) O-NO 57 ° 0 min 0,000 mm 0,0 UV-I 0 W/m² 0,2 °C 3,1 °C 3,2 km/h (1 Bft)
12.04.2019 22:34 3,1 °C 81 % 1018,3 hPa 0,0 mm 0,3 km/h (0 Bft) O-NO 57 ° 0 min 0,000 mm 0,0 UV-I 0 W/m² 0,2 °C 3,1 °C 1,6 km/h (1 Bft)
12.04.2019 22:35 3,1 °C 81 % 1018,3 hPa 0,0 mm 0,0 km/h (0 Bft) O-NO 57 ° 0 min 0,000 mm 0,0 UV-I 0 W/m² 0,2 °C 3,1 °C 0,0 km/h (0 Bft)
12.04.2019 22:36 3,1 °C 80 % 1018,3 hPa 0,0 mm 0,0 km/h (0 Bft) O-NO 57 ° 0 min 0,000 mm 0,0 UV-I 0 W/m² -0,0 °C 3,1 °C 0,0 km/h (0 Bft)
12.04.2019 22:37 3,1 °C 80 % 1018,3 hPa 0,0 mm 0,2 km/h (0 Bft) O-NO 57 ° 0 min 0,000 mm 0,0 UV-I 0 W/m² -0,0 °C 3,1 °C 1,6 km/h (1 Bft)
12.04.2019 22:38 3,0 °C 81 % 1018,3 hPa 0,0 mm 0,0 km/h (0 Bft) O-NO 57 ° 0 min 0,000 mm 0,0 UV-I 0 W/m² 0,1 °C 3,0 °C 0,0 km/h (0 Bft)
12.04.2019 22:39 3,0 °C 81 % 1018,3 hPa 0,0 mm 0,1 km/h (0 Bft) O-NO 57 ° 0 min 0,000 mm 0,0 UV-I 0 W/m² 0,1 °C 3,0 °C 1,6 km/h (1 Bft)
12.04.2019 22:40 3,0 °C 81 % 1018,3 hPa 0,0 mm 0,0 km/h (0 Bft) O-NO 57 ° 0 min 0,000 mm 0,0 UV-I 0 W/m² 0,1 °C 3,0 °C 0,0 km/h (0 Bft)
12.04.2019 22:41 3,0 °C 82 % 1018,3 hPa 0,0 mm 0,0 km/h (0 Bft) O-NO 57 ° 0 min 0,000 mm 0,0 UV-I 0 W/m² 0,2 °C 3,0 °C 0,0 km/h (0 Bft)
12.04.2019 22:42 3,0 °C 82 % 1018,3 hPa 0,0 mm 0,0 km/h (0 Bft) O-NO 57 ° 0 min 0,000 mm 0,0 UV-I 0 W/m² 0,2 °C 3,0 °C 0,0 km/h (0 Bft)
12.04.2019 22:43 2,9 °C 82 % 1018,3 hPa 0,0 mm 0,0 km/h (0 Bft) O-NO 57 ° 0 min 0,000 mm 0,0 UV-I 0 W/m² 0,1 °C 2,9 °C 0,0 km/h (0 Bft)
12.04.2019 22:44 2,9 °C 81 % 1018,3 hPa 0,0 mm 0,2 km/h (0 Bft) O-NO 57 ° 0 min 0,000 mm 0,0 UV-I 0 W/m² -0,0 °C 2,9 °C 1,6 km/h (1 Bft)
12.04.2019 22:45 2,9 °C 81 % 1018,3 hPa 0,0 mm 0,3 km/h (0 Bft) O-NO 57 ° 0 min 0,000 mm 0,0 UV-I 0 W/m² -0,0 °C 2,9 °C 1,6 km/h (1 Bft)
12.04.2019 22:46 2,9 °C 81 % 1018,3 hPa 0,0 mm 0,0 km/h (0 Bft) O-NO 57 ° 0 min 0,000 mm 0,0 UV-I 0 W/m² -0,0 °C 2,9 °C 0,0 km/h (0 Bft)
12.04.2019 22:47 2,9 °C 81 % 1018,3 hPa 0,0 mm 0,0 km/h (0 Bft) O-NO 57 ° 0 min 0,000 mm 0,0 UV-I 0 W/m² -0,0 °C 2,9 °C 0,0 km/h (0 Bft)
12.04.2019 22:48 3,0 °C 81 % 1018,3 hPa 0,0 mm 0,0 km/h (0 Bft) O-NO 57 ° 0 min 0,000 mm 0,0 UV-I 0 W/m² 0,1 °C 3,0 °C 0,0 km/h (0 Bft)
12.04.2019 22:49 3,0 °C 80 % 1018,3 hPa 0,0 mm 0,0 km/h (0 Bft) O-NO 57 ° 0 min 0,000 mm 0,0 UV-I 0 W/m² -0,1 °C 3,0 °C 0,0 km/h (0 Bft)
12.04.2019 22:50 3,0 °C 80 % 1018,3 hPa 0,0 mm 0,0 km/h (0 Bft) O-NO 57 ° 0 min 0,000 mm 0,0 UV-I 0 W/m² -0,1 °C 3,0 °C 0,0 km/h (0 Bft)
12.04.2019 22:51 3,0 °C 79 % 1018,3 hPa 0,0 mm 0,0 km/h (0 Bft) O-NO 57 ° 0 min 0,000 mm 0,0 UV-I 0 W/m² -0,3 °C 3,0 °C 0,0 km/h (0 Bft)
12.04.2019 22:52 3,0 °C 80 % 1018,3 hPa 0,0 mm 0,0 km/h (0 Bft) O-NO 57 ° 0 min 0,000 mm 0,0 UV-I 0 W/m² -0,1 °C 3,0 °C 0,0 km/h (0 Bft)
12.04.2019 22:53 3,0 °C 80 % 1018,3 hPa 0,0 mm 0,0 km/h (0 Bft) O-NO 57 ° 0 min 0,000 mm 0,0 UV-I 0 W/m² -0,1 °C 3,0 °C 0,0 km/h (0 Bft)
12.04.2019 22:54 3,0 °C 80 % 1018,3 hPa 0,0 mm 0,0 km/h (0 Bft) O-NO 57 ° 0 min 0,000 mm 0,0 UV-I 0 W/m² -0,1 °C 3,0 °C 0,0 km/h (0 Bft)
12.04.2019 22:55 3,0 °C 80 % 1018,3 hPa 0,0 mm 0,0 km/h (0 Bft) O-NO 57 ° 0 min 0,000 mm 0,0 UV-I 0 W/m² -0,1 °C 3,0 °C 0,0 km/h (0 Bft)
12.04.2019 22:56 2,9 °C 80 % 1018,3 hPa 0,0 mm 0,0 km/h (0 Bft) O-NO 57 ° 0 min 0,000 mm 0,0 UV-I 0 W/m² -0,2 °C 2,9 °C 0,0 km/h (0 Bft)
12.04.2019 22:57 2,9 °C 81 % 1018,3 hPa 0,0 mm 0,0 km/h (0 Bft) O-NO 57 ° 0 min 0,000 mm 0,0 UV-I 0 W/m² -0,0 °C 2,9 °C 0,0 km/h (0 Bft)
12.04.2019 22:58 2,9 °C 80 % 1018,3 hPa 0,0 mm 0,0 km/h (0 Bft) O-NO 57 ° 0 min 0,000 mm 0,0 UV-I 0 W/m² -0,2 °C 2,9 °C 0,0 km/h (0 Bft)
12.04.2019 22:59 2,9 °C 81 % 1018,3 hPa 0,0 mm 0,0 km/h (0 Bft) O-NO 57 ° 0 min 0,000 mm 0,0 UV-I 0 W/m² -0,0 °C 2,9 °C 0,0 km/h (0 Bft)
12.04.2019 23:00 2,9 °C 81 % 1018,3 hPa 0,0 mm 0,0 km/h (0 Bft) O-NO 57 ° 0 min 0,000 mm 0,0 UV-I 0 W/m² -0,0 °C 2,9 °C 0,0 km/h (0 Bft)
12.04.2019 23:01 2,9 °C 80 % 1018,3 hPa 0,0 mm 0,0 km/h (0 Bft) O-NO 57 ° 0 min 0,000 mm 0,0 UV-I 0 W/m² -0,2 °C 2,9 °C 0,0 km/h (0 Bft)
12.04.2019 23:02 2,9 °C 81 % 1018,3 hPa 0,0 mm 0,0 km/h (0 Bft) O-NO 57 ° 0 min 0,000 mm 0,0 UV-I 0 W/m² -0,0 °C 2,9 °C 0,0 km/h (0 Bft)
12.04.2019 23:03 2,9 °C 80 % 1018,3 hPa 0,0 mm 0,0 km/h (0 Bft) O-NO 57 ° 0 min 0,000 mm 0,0 UV-I 0 W/m² -0,2 °C 2,9 °C 0,0 km/h (0 Bft)
12.04.2019 23:04 2,9 °C 80 % 1018,3 hPa 0,0 mm 0,0 km/h (0 Bft) O-NO 57 ° 0 min 0,000 mm 0,0 UV-I 0 W/m² -0,2 °C 2,9 °C 0,0 km/h (0 Bft)
12.04.2019 23:05 2,9 °C 81 % 1018,3 hPa 0,0 mm 0,0 km/h (0 Bft) O-NO 57 ° 0 min 0,000 mm 0,0 UV-I 0 W/m² -0,0 °C 2,9 °C 0,0 km/h (0 Bft)
12.04.2019 23:06 2,9 °C 82 % 1018,3 hPa 0,0 mm 0,0 km/h (0 Bft) O-NO 57 ° 0 min 0,000 mm 0,0 UV-I 0 W/m² 0,1 °C 2,9 °C 0,0 km/h (0 Bft)
12.04.2019 23:07 2,8 °C 81 % 1018,3 hPa 0,0 mm 1,8 km/h (1 Bft) O-NO 57 ° 0 min 0,000 mm 0,0 UV-I 0 W/m² -0,1 °C 2,8 °C 4,8 km/h (1 Bft)
12.04.2019 23:08 2,8 °C 81 % 1018,3 hPa 0,0 mm 0,0 km/h (0 Bft) O-NO 57 ° 0 min 0,000 mm 0,0 UV-I 0 W/m² -0,1 °C 2,8 °C 0,0 km/h (0 Bft)
12.04.2019 23:09 2,8 °C 80 % 1018,3 hPa 0,0 mm 0,0 km/h (0 Bft) O-NO 57 ° 0 min 0,000 mm 0,0 UV-I 0 W/m² -0,3 °C 2,8 °C 0,0 km/h (0 Bft)
12.04.2019 23:10 2,8 °C 81 % 1018,3 hPa 0,0 mm 0,0 km/h (0 Bft) O-NO 57 ° 0 min 0,000 mm 0,0 UV-I 0 W/m² -0,1 °C 2,8 °C 0,0 km/h (0 Bft)
12.04.2019 23:11 2,8 °C 81 % 1018,3 hPa 0,0 mm 0,0 km/h (0 Bft) O-NO 57 ° 0 min 0,000 mm 0,0 UV-I 0 W/m² -0,1 °C 2,8 °C 0,0 km/h (0 Bft)
12.04.2019 23:12 2,8 °C 81 % 1018,3 hPa 0,0 mm 0,3 km/h (0 Bft) O-NO 63 ° 0 min 0,000 mm 0,0 UV-I 0 W/m² -0,1 °C 2,8 °C 1,6 km/h (1 Bft)
12.04.2019 23:13 2,8 °C 81 % 1018,3 hPa 0,0 mm 0,0 km/h (0 Bft) O-NO 63 ° 0 min 0,000 mm 0,0 UV-I 0 W/m² -0,1 °C 2,8 °C 0,0 km/h (0 Bft)
12.04.2019 23:14 2,8 °C 80 % 1018,3 hPa 0,0 mm 0,8 km/h (0 Bft) O-NO 63 ° 0 min 0,000 mm 0,0 UV-I 0 W/m² -0,3 °C 2,8 °C 3,2 km/h (1 Bft)
12.04.2019 23:15 2,8 °C 80 % 1018,3 hPa 0,0 mm 0,0 km/h (0 Bft) O-NO 63 ° 0 min 0,000 mm 0,0 UV-I 0 W/m² -0,3 °C 2,8 °C 0,0 km/h (0 Bft)
12.04.2019 23:16 2,8 °C 80 % 1018,4 hPa 0,0 mm 0,0 km/h (0 Bft) O-NO 63 ° 0 min 0,000 mm 0,0 UV-I 0 W/m² -0,3 °C 2,8 °C 0,0 km/h (0 Bft)
12.04.2019 23:17 2,8 °C 82 % 1018,3 hPa 0,0 mm 2,5 km/h (1 Bft) O-NO 63 ° 0 min 0,000 mm 0,0 UV-I 0 W/m² 0,0 °C 2,8 °C 4,8 km/h (1 Bft)
12.04.2019 23:18 2,8 °C 81 % 1018,3 hPa 0,0 mm 0,8 km/h (0 Bft) O-NO 63 ° 0 min 0,000 mm 0,0 UV-I 0 W/m² -0,1 °C 2,8 °C 1,6 km/h (1 Bft)
12.04.2019 23:19 2,8 °C 81 % 1018,3 hPa 0,0 mm 0,3 km/h (0 Bft) O-NO 63 ° 0 min 0,000 mm 0,0 UV-I 0 W/m² -0,1 °C 2,8 °C 1,6 km/h (1 Bft)
12.04.2019 23:20 2,8 °C 80 % 1018,3 hPa 0,0 mm 0,0 km/h (0 Bft) O-NO 63 ° 0 min 0,000 mm 0,0 UV-I 0 W/m² -0,3 °C 2,8 °C 0,0 km/h (0 Bft)
12.04.2019 23:21 2,8 °C 80 % 1018,3 hPa 0,0 mm 0,0 km/h (0 Bft) O-NO 63 ° 0 min 0,000 mm 0,0 UV-I 0 W/m² -0,3 °C 2,8 °C 0,0 km/h (0 Bft)
12.04.2019 23:22 2,8 °C 80 % 1018,3 hPa 0,0 mm 0,0 km/h (0 Bft) O-NO 63 ° 0 min 0,000 mm 0,0 UV-I 0 W/m² -0,3 °C 2,8 °C 0,0 km/h (0 Bft)
12.04.2019 23:23 2,8 °C 81 % 1018,3 hPa 0,0 mm 0,0 km/h (0 Bft) O-NO 63 ° 0 min 0,000 mm 0,0 UV-I 0 W/m² -0,1 °C 2,8 °C 0,0 km/h (0 Bft)
12.04.2019 23:24 2,7 °C 81 % 1018,3 hPa 0,0 mm 1,8 km/h (1 Bft) O-NO 63 ° 0 min 0,000 mm 0,0 UV-I 0 W/m² -0,2 °C 2,7 °C 4,8 km/h (1 Bft)
12.04.2019 23:25 2,7 °C 82 % 1018,3 hPa 0,0 mm 2,0 km/h (1 Bft) O-NO 63 ° 0 min 0,000 mm 0,0 UV-I 0 W/m² -0,1 °C 2,7 °C 4,8 km/h (1 Bft)
12.04.2019 23:26 2,7 °C 82 % 1018,3 hPa 0,0 mm 3,6 km/h (1 Bft) O-NO 63 ° 0 min 0,000 mm 0,0 UV-I 0 W/m² -0,1 °C 2,7 °C 6,4 km/h (2 Bft)
12.04.2019 23:27 2,7 °C 81 % 1018,3 hPa 0,0 mm 1,0 km/h (0 Bft) O-NO 64 ° 0 min 0,000 mm 0,0 UV-I 0 W/m² -0,2 °C 2,7 °C 3,2 km/h (1 Bft)
12.04.2019 23:28 2,7 °C 81 % 1018,3 hPa 0,0 mm 3,4 km/h (1 Bft) O-NO 64 ° 0 min 0,000 mm 0,0 UV-I 0 W/m² -0,2 °C 2,7 °C 4,8 km/h (1 Bft)
12.04.2019 23:29 2,7 °C 81 % 1018,2 hPa 0,0 mm 3,4 km/h (1 Bft) O-NO 64 ° 0 min 0,000 mm 0,0 UV-I 0 W/m² -0,2 °C 2,7 °C 4,8 km/h (1 Bft)
12.04.2019 23:30 2,7 °C 81 % 1018,2 hPa 0,0 mm 1,2 km/h (1 Bft) O-NO 64 ° 0 min 0,000 mm 0,0 UV-I 0 W/m² -0,2 °C 2,7 °C 6,4 km/h (2 Bft)
12.04.2019 23:31 2,6 °C 81 % 1018,2 hPa 0,0 mm 0,0 km/h (0 Bft) O-NO 64 ° 0 min 0,000 mm 0,0 UV-I 0 W/m² -0,3 °C 2,6 °C 0,0 km/h (0 Bft)
12.04.2019 23:32 2,6 °C 81 % 1018,2 hPa 0,0 mm 0,0 km/h (0 Bft) O-NO 64 ° 0 min 0,000 mm 0,0 UV-I 0 W/m² -0,3 °C 2,6 °C 0,0 km/h (0 Bft)
12.04.2019 23:33 2,7 °C 81 % 1018,2 hPa 0,0 mm 0,7 km/h (0 Bft) O-NO 64 ° 0 min 0,000 mm 0,0 UV-I 0 W/m² -0,2 °C 2,7 °C 3,2 km/h (1 Bft)
12.04.2019 23:34 2,6 °C 81 % 1018,2 hPa 0,0 mm 0,4 km/h (0 Bft) O-NO 64 ° 0 min 0,000 mm 0,0 UV-I 0 W/m² -0,3 °C 2,6 °C 1,6 km/h (1 Bft)
12.04.2019 23:35 2,6 °C 81 % 1018,2 hPa 0,0 mm 0,0 km/h (0 Bft) O-NO 64 ° 0 min 0,000 mm 0,0 UV-I 0 W/m² -0,3 °C 2,6 °C 0,0 km/h (0 Bft)
12.04.2019 23:36 2,6 °C 80 % 1018,2 hPa 0,0 mm 0,0 km/h (0 Bft) O-NO 64 ° 0 min 0,000 mm 0,0 UV-I 0 W/m² -0,5 °C 2,6 °C 0,0 km/h (0 Bft)
12.04.2019 23:37 2,6 °C 79 % 1018,3 hPa 0,0 mm 0,0 km/h (0 Bft) O-NO 64 ° 0 min 0,000 mm 0,0 UV-I 0 W/m² -0,7 °C 2,6 °C 0,0 km/h (0 Bft)
12.04.2019 23:38 2,7 °C 79 % 1018,3 hPa 0,0 mm 0,0 km/h (0 Bft) O-NO 64 ° 0 min 0,000 mm 0,0 UV-I 0 W/m² -0,6 °C 2,7 °C 0,0 km/h (0 Bft)
12.04.2019 23:39 2,7 °C 79 % 1018,3 hPa 0,0 mm 0,0 km/h (0 Bft) O-NO 64 ° 0 min 0,000 mm 0,0 UV-I 0 W/m² -0,6 °C 2,7 °C 0,0 km/h (0 Bft)
12.04.2019 23:40 2,7 °C 80 % 1018,3 hPa 0,0 mm 0,0 km/h (0 Bft) O-NO 64 ° 0 min 0,000 mm 0,0 UV-I 0 W/m² -0,4 °C 2,7 °C 0,0 km/h (0 Bft)
12.04.2019 23:41 2,6 °C 80 % 1018,3 hPa 0,0 mm 0,0 km/h (0 Bft) O-NO 64 ° 0 min 0,000 mm 0,0 UV-I 0 W/m² -0,5 °C 2,6 °C 0,0 km/h (0 Bft)
12.04.2019 23:42 2,6 °C 81 % 1018,3 hPa 0,0 mm 0,0 km/h (0 Bft) O-NO 64 ° 0 min 0,000 mm 0,0 UV-I 0 W/m² -0,3 °C 2,6 °C 0,0 km/h (0 Bft)
12.04.2019 23:43 2,6 °C 82 % 1018,3 hPa 0,0 mm 0,0 km/h (0 Bft) O-NO 64 ° 0 min 0,000 mm 0,0 UV-I 0 W/m² -0,2 °C 2,6 °C 0,0 km/h (0 Bft)
12.04.2019 23:44 2,5 °C 81 % 1018,2 hPa 0,0 mm 0,0 km/h (0 Bft) O-NO 64 ° 0 min 0,000 mm 0,0 UV-I 0 W/m² -0,4 °C 2,5 °C 0,0 km/h (0 Bft)
12.04.2019 23:45 2,5 °C 81 % 1018,3 hPa 0,0 mm 0,0 km/h (0 Bft) O-NO 64 ° 0 min 0,000 mm 0,0 UV-I 0 W/m² -0,4 °C 2,5 °C 0,0 km/h (0 Bft)
12.04.2019 23:46 2,5 °C 80 % 1018,2 hPa 0,0 mm 0,0 km/h (0 Bft) O-NO 64 ° 0 min 0,000 mm 0,0 UV-I 0 W/m² -0,6 °C 2,5 °C 0,0 km/h (0 Bft)
12.04.2019 23:47 2,5 °C 80 % 1018,3 hPa 0,0 mm 0,0 km/h (0 Bft) O-NO 64 ° 0 min 0,000 mm 0,0 UV-I 0 W/m² -0,6 °C 2,5 °C 0,0 km/h (0 Bft)
12.04.2019 23:48 2,4 °C 81 % 1018,3 hPa 0,0 mm 0,0 km/h (0 Bft) O-NO 64 ° 0 min 0,000 mm 0,0 UV-I 0 W/m² -0,5 °C 2,4 °C 0,0 km/h (0 Bft)
12.04.2019 23:49 2,5 °C 80 % 1018,2 hPa 0,0 mm 0,0 km/h (0 Bft) O-NO 64 ° 0 min 0,000 mm 0,0 UV-I 0 W/m² -0,6 °C 2,5 °C 0,0 km/h (0 Bft)
12.04.2019 23:50 2,4 °C 81 % 1018,2 hPa 0,0 mm 0,0 km/h (0 Bft) O-NO 64 ° 0 min 0,000 mm 0,0 UV-I 0 W/m² -0,5 °C 2,4 °C 0,0 km/h (0 Bft)
12.04.2019 23:51 2,5 °C 80 % 1018,2 hPa 0,0 mm 0,0 km/h (0 Bft) O-NO 64 ° 0 min 0,000 mm 0,0 UV-I 0 W/m² -0,6 °C 2,5 °C 0,0 km/h (0 Bft)
12.04.2019 23:52 2,5 °C 80 % 1018,2 hPa 0,0 mm 0,0 km/h (0 Bft) O-NO 64 ° 0 min 0,000 mm 0,0 UV-I 0 W/m² -0,6 °C 2,5 °C 0,0 km/h (0 Bft)
12.04.2019 23:53 2,5 °C 80 % 1018,2 hPa 0,0 mm 0,0 km/h (0 Bft) O-NO 64 ° 0 min 0,000 mm 0,0 UV-I 0 W/m² -0,6 °C 2,5 °C 0,0 km/h (0 Bft)
12.04.2019 23:54 2,5 °C 80 % 1018,2 hPa 0,0 mm 0,0 km/h (0 Bft) O-NO 64 ° 0 min 0,000 mm 0,0 UV-I 0 W/m² -0,6 °C 2,5 °C 0,0 km/h (0 Bft)
12.04.2019 23:55 2,5 °C 81 % 1018,2 hPa 0,0 mm 0,0 km/h (0 Bft) O-NO 64 ° 0 min 0,000 mm 0,0 UV-I 0 W/m² -0,4 °C 2,5 °C 0,0 km/h (0 Bft)
12.04.2019 23:56 2,4 °C 81 % 1018,2 hPa 0,0 mm 0,0 km/h (0 Bft) O-NO 64 ° 0 min 0,000 mm 0,0 UV-I 0 W/m² -0,5 °C 2,4 °C 0,0 km/h (0 Bft)
12.04.2019 23:57 2,4 °C 81 % 1018,2 hPa 0,0 mm 0,0 km/h (0 Bft) O-NO 64 ° 0 min 0,000 mm 0,0 UV-I 0 W/m² -0,5 °C 2,4 °C 0,0 km/h (0 Bft)
12.04.2019 23:58 2,4 °C 81 % 1018,2 hPa 0,0 mm 0,0 km/h (0 Bft) O-NO 64 ° 0 min 0,000 mm 0,0 UV-I 0 W/m² -0,5 °C 2,4 °C 0,0 km/h (0 Bft)
12.04.2019 23:59 2,4 °C 81 % 1018,2 hPa 0,0 mm 0,0 km/h (0 Bft) O-NO 64 ° 0 min 0,000 mm 0,0 UV-I 0 W/m² -0,5 °C 2,4 °C 0,0 km/h (0 Bft)
_ Min-Zeit 09:59 18:54 03:11 - 23:59 - - - - - - 23:37 09:41 23:59
Minimum _ 1,4 °C 72 % 1015,9 hPa - 0,0 km/h (0 Bft) - - - - - - -0,7 °C -1,5 °C 0,0 km/h (0 Bft)
_ Max-Zeit 16:17 08:15 22:19 23:59 14:25 - - 23:59 15:01 14:12 14:11 00:06 16:17 15:16
Maximum _ 5,7 °C 92 % 1018,5 hPa 0,0 mm 11,8 km/h
O-NO (2 Bft)
- - 0 min 0,127 mm 3,0 UV-I 436 W/m² 2,7 °C 5,7 °C 16,1 km/h
NO (3 Bft)
Durchschnitt _ 3,2 °C 84 % 1016,9 hPa #0,0 mm 2,3 km/h (1 Bft) O-NO - #0 min. #0,686 mm 1,3 UV-I 66 W/m² 0,7 °C 2,9 °C 3,9 km/h (1 Bft)